GFSCGP_850_spd_000.txt.gz
Wind_Speed
7 7 8 9 8 9 11 13 15 14 8 15 16 17 15 6 9 10 9 8 7 6 8 9 9 13 16 15 16 17 16 17 19 16 17 15 15 14 15 12 16 12 11 11
8 4 6 6 7 9 15 15 12 13 17 15 19 19 13 8 7 6 4 6 6 5 5 4 3 9 15 16 16 18 16 17 19 17 16 15 16 16 20 17 21 22 15 16
6 6 6 7 7 10 14 8 13 17 18 15 12 12 10 6 13 8 6 4 4 3 5 5 5 8 12 16 17 17 19 19 21 23 19 20 21 24 19 20 19 18 21 19
5 3 6 8 6 10 11 13 16 17 14 10 15 7 4 12 11 10 7 5 4 4 5 6 6 8 10 15 18 19 18 21 22 24 26 24 24 23 22 19 23 26 24 19
4 6 8 10 7 9 11 16 19 19 15 9 5 5 10 8 9 11 11 7 4 4 6 9 10 10 13 12 14 19 20 19 23 26 27 29 30 29 27 24 21 19 17 18
4 1 3 7 11 14 12 17 19 4 1 3 5 2 10 6 4 5 4 4 7 6 9 10 12 12 13 15 15 18 23 25 25 26 29 32 33 32 25 25 25 22 20 18
8 6 4 5 13 11 16 14 4 4 2 3 12 9 11 17 2 3 7 9 5 6 9 8 14 16 15 15 18 21 23 26 27 28 31 34 36 33 32 30 27 23 22 20
6 3 3 7 5 7 13 7 2 4 4 9 17 6 6 4 6 6 3 3 11 9 8 16 16 14 15 13 18 21 26 31 31 31 33 33 35 36 28 29 25 23 23 22
6 2 8 3 3 5 6 5 5 4 1 1 5 12 15 6 7 10 9 13 6 10 13 16 15 15 16 17 21 26 32 34 30 33 35 32 29 30 30 25 22 21 17 9
4 7 9 2 10 14 7 6 3 1 3 5 8 15 10 11 16 20 15 14 18 17 21 17 16 14 19 26 27 27 30 28 32 30 27 24 26 27 24 20 16 12 16 17
8 3 8 13 2 10 3 6 4 7 5 4 6 6 12 22 21 10 16 22 22 16 14 14 11 15 18 25 25 33 33 30 31 30 29 28 25 20 18 18 13 18 14 17
6 3 5 18 17 3 5 9 8 2 8 9 10 13 18 9 5 29 24 18 18 18 17 21 24 25 23 21 28 43 31 30 27 25 23 22 18 15 14 12 11 15 17 21
9 2 5 8 6 2 14 19 18 14 2 8 6 9 12 26 26 26 23 22 23 19 20 28 33 22 23 30 43 35 31 27 23 17 15 14 13 11 11 15 19 23 15 22
3 6 6 8 15 18 18 22 24 19 12 15 14 27 21 19 19 20 19 21 22 25 29 30 24 26 26 37 39 29 29 26 19 13 10 10 11 11 14 16 13 15 20 21
2 5 11 17 19 20 23 24 24 23 20 18 23 22 22 19 20 17 21 23 28 31 26 27 33 34 32 35 32 26 28 23 16 12 12 12 15 19 17 13 13 19 23 28
4 4 3 9 19 20 20 23 26 25 21 21 20 21 16 26 22 23 29 31 30 22 23 33 31 33 37 32 27 24 23 17 13 13 16 21 14 12 12 14 18 25 26 27
14 3 2 7 10 12 11 15 15 13 17 17 15 21 19 16 18 22 31 30 19 25 32 31 32 39 31 27 22 27 19 14 16 18 21 11 10 10 14 17 22 24 27 27
10 4 3 4 3 6 7 21 24 21 16 17 19 20 14 19 31 33 27 23 26 28 37 39 38 30 26 31 31 34 24 13 18 14 9 8 9 12 15 20 24 25 27 29
7 5 2 3 9 18 15 18 11 18 13 15 11 19 30 32 34 24 18 27 32 36 31 35 28 28 29 30 33 25 17 17 7 9 6 8 11 15 19 22 23 27 29 28
8 8 1 4 13 15 2 17 27 15 15 13 21 25 23 21 13 12 29 28 27 26 27 25 28 29 36 28 14 6 7 7 8 8 8 10 13 16 19 21 26 27 24 27
2 4 6 10 9 9 14 20 16 7 5 28 22 25 27 14 14 32 36 28 26 26 25 23 20 33 17 7 5 8 10 11 5 6 10 13 14 17 20 22 24 24 27 29
8 6 4 4 5 10 3 9 3 16 28 29 27 25 26 30 28 28 30 23 27 25 27 20 27 12 7 6 7 8 6 4 7 15 15 15 16 19 21 21 25 24 26 24
6 7 7 9 8 27 39 37 29 42 33 36 28 32 23 30 31 28 27 25 21 24 19 26 10 7 8 8 5 6 9 12 16 16 15 19 21 22 20 23 22 23 22 24
5 19 12 15 17 31 35 43 39 33 32 32 30 25 30 29 27 29 25 21 18 19 25 11 7 7 9 6 5 7 9 14 17 18 19 21 21 20 23 21 19 20 24 25
9 12 12 22 29 32 32 30 35 36 35 20 27 19 21 26 29 26 21 19 19 23 10 6 7 9 9 6 10 10 13 16 18 19 20 18 19 22 20 17 18 20 21 25
11 14 10 18 32 28 38 39 38 32 19 23 21 21 24 26 22 18 18 23 17 10 7 7 9 9 6 9 11 13 17 18 20 21 20 20 19 17 18 19 21 21 21 24

GFSCGP_850_spd_003.txt.gz
Wind_Speed
4 6 3 4 4 3 6 7 5 5 10 10 8 10 11 2 19 20 18 16 12 9 10 12 7 12 11 13 14 16 17 19 21 20 21 22 23 24 20 22 24 20 19 17
7 4 3 5 9 7 7 6 6 4 11 8 10 15 8 9 10 16 16 14 11 8 5 5 5 2 6 10 13 14 15 18 19 20 22 22 22 21 21 19 24 23 24 23
3 2 6 6 6 8 5 5 6 7 10 11 4 9 7 4 17 15 11 7 8 8 4 2 3 6 9 12 13 14 13 16 19 22 23 25 21 22 24 22 24 27 29 27
2 2 6 7 3 6 5 7 9 11 7 3 4 4 5 6 7 8 13 14 15 10 9 6 3 3 6 10 10 11 13 17 18 22 26 28 30 30 29 28 27 28 29 28
4 2 4 5 4 4 7 5 12 14 9 2 7 3 5 6 4 6 12 15 12 8 5 4 3 5 5 7 8 11 14 21 25 25 25 29 31 32 33 27 23 24 23 20
5 4 4 1 8 5 7 7 11 5 3 3 6 5 5 3 4 5 10 13 12 7 4 2 3 7 12 12 12 14 17 21 24 27 29 30 33 35 34 35 31 31 22 20
7 4 3 3 5 7 12 6 4 6 4 4 12 6 8 9 6 10 10 9 4 4 6 5 9 7 6 6 7 11 20 25 28 33 33 35 37 37 39 38 38 36 30 25
4 6 6 7 3 4 5 3 4 2 1 5 9 3 5 9 21 11 2 7 15 16 13 9 8 4 6 4 11 19 21 26 30 32 38 33 30 35 41 40 39 37 33 26
6 4 8 3 1 3 6 4 2 2 2 3 4 7 9 7 11 15 23 11 8 6 9 9 6 7 5 14 19 21 28 32 34 34 36 38 37 35 31 31 28 21 17 14
4 5 5 6 5 5 4 0 5 3 2 3 4 6 6 10 14 10 3 7 7 16 10 11 12 18 17 19 24 29 29 33 34 28 33 36 34 24 19 19 16 14 15 14
6 3 8 6 1 4 2 4 2 2 1 3 3 5 5 13 9 12 23 18 12 8 12 15 21 15 14 19 24 31 35 36 25 30 31 32 31 23 18 15 13 13 18 13
3 2 3 9 15 9 6 7 6 3 5 4 3 8 13 9 13 33 15 16 17 20 20 21 16 18 25 32 39 39 42 27 27 27 30 28 23 18 13 12 13 13 11 13
2 3 3 8 6 7 6 15 12 6 0 7 4 9 7 21 21 8 19 20 22 25 21 24 26 29 37 36 38 37 30 25 29 28 28 20 14 12 12 11 10 13 16 21
4 2 5 5 6 5 10 19 21 11 2 8 9 17 14 12 7 15 18 21 23 17 16 20 27 37 38 36 38 29 27 30 29 24 22 16 9 6 11 13 12 15 14 16
6 5 6 8 7 10 14 19 20 15 17 12 23 18 12 8 6 12 18 23 21 15 19 30 34 35 37 36 27 26 29 36 28 20 13 9 11 12 13 13 15 13 15 21
2 6 2 6 11 10 8 20 21 19 14 10 14 19 7 13 22 22 22 24 20 22 30 36 36 35 33 28 25 31 36 30 22 15 16 13 12 15 18 17 14 13 20 24
5 3 2 15 4 5 7 13 4 6 14 13 8 4 19 18 24 22 24 18 19 27 32 34 32 34 27 22 29 35 36 31 23 20 18 22 24 19 11 7 9 21 25 29
4 3 2 4 3 4 8 14 21 16 9 7 8 14 19 20 23 27 29 17 29 37 32 31 31 28 24 32 33 37 25 15 15 11 7 7 4 4 4 14 20 24 27 29
7 5 1 2 3 8 9 9 3 11 17 4 8 20 25 25 29 17 13 22 29 27 26 28 25 24 35 30 31 14 11 10 11 10 2 3 4 12 15 19 22 24 28 30
7 6 3 1 4 7 8 3 11 12 11 8 21 11 21 20 10 11 24 31 28 26 24 19 25 31 27 23 10 10 14 6 3 5 5 7 14 19 19 20 23 25 26 25
3 3 2 2 5 7 7 9 6 4 9 19 9 15 20 9 14 24 29 24 26 18 16 24 28 23 16 8 6 8 7 5 6 9 15 20 18 19 20 23 24 23 24 23
4 2 4 3 4 8 2 4 3 8 16 23 17 16 27 27 20 27 24 24 12 18 24 27 24 12 9 8 5 1 6 10 17 19 19 19 20 21 21 20 21 21 20 21
3 7 4 9 6 9 25 25 31 36 36 31 25 24 15 24 23 23 25 16 19 23 25 24 9 10 9 7 7 9 13 14 14 19 20 19 19 19 19 22 20 19 20 26
3 15 8 7 10 24 28 42 39 35 29 29 19 22 16 19 19 20 16 21 27 30 22 9 7 7 7 8 9 12 13 15 18 19 19 19 18 19 19 16 17 19 23 26
7 5 8 13 24 33 31 28 33 32 23 22 21 9 13 17 17 17 20 27 29 22 11 8 6 8 7 10 12 13 16 18 19 20 20 19 17 16 16 18 18 20 22 19
14 15 7 16 30 25 35 27 31 18 16 13 13 14 10 16 20 20 27 24 18 12 14 9 9 7 10 11 14 16 17 18 20 21 19 17 15 16 23 21 20 16 18 20

GFSCGP_850_spd_006.txt.gz
Wind_Speed
4 6 2 4 2 4 1 3 3 4 3 7 6 8 13 6 17 19 20 22 18 15 11 4 6 15 14 8 8 10 11 12 15 15 17 19 22 23 25 26 27 24 24 27
7 3 2 5 5 4 6 3 4 6 6 3 9 11 7 7 6 20 23 21 17 15 10 10 7 5 4 6 7 8 8 10 12 14 16 19 22 25 27 25 23 26 29 29
5 2 3 5 6 7 3 2 4 6 7 3 5 6 6 3 10 16 15 15 11 6 6 4 1 3 6 7 6 5 5 10 13 15 16 20 24 28 31 33 32 30 29 34
1 3 4 6 2 3 4 4 5 6 4 2 4 3 4 3 2 2 8 12 11 9 7 5 5 5 6 5 6 7 8 11 14 19 22 25 28 30 31 33 33 31 34 30
4 2 4 4 3 3 7 7 8 4 4 3 9 3 6 4 4 6 5 12 11 9 5 2 2 2 3 3 4 6 9 13 15 20 24 29 33 39 38 37 36 36 35 36
3 2 3 1 4 1 6 6 5 4 3 3 3 1 4 5 5 5 7 8 7 6 1 3 3 5 3 1 0 3 5 8 13 20 26 29 33 36 38 39 41 43 40 39
6 4 4 3 5 7 8 6 4 5 5 4 5 4 2 1 7 10 10 8 5 1 4 5 5 5 4 4 5 8 15 22 28 33 32 37 42 36 33 33 31 39 41 32
5 7 7 6 2 2 4 5 4 1 0 5 7 1 3 5 4 6 10 12 9 3 3 3 1 5 1 6 12 16 19 25 29 32 37 39 32 34 35 33 32 34 36 27
5 4 5 4 5 2 4 4 1 5 2 3 5 5 8 4 8 9 5 9 10 7 7 9 9 10 10 13 17 22 26 31 35 38 33 27 31 34 34 30 28 23 27 28
3 4 2 6 6 3 3 1 5 4 2 3 5 6 5 7 13 14 5 2 9 14 11 8 8 4 9 20 27 32 37 36 34 29 28 29 31 32 31 20 15 18 20 18
2 2 7 4 3 2 5 4 3 1 4 3 2 6 4 11 10 11 7 11 12 9 10 12 12 13 19 26 29 28 33 30 29 30 31 30 30 29 23 15 13 15 15 13
3 4 3 5 8 2 2 3 5 3 5 3 3 10 14 7 19 8 10 9 13 12 10 10 16 23 28 30 30 33 31 30 29 31 35 30 28 22 17 14 13 13 11 7
0 2 3 7 6 8 4 8 4 3 2 6 3 6 10 27 10 11 12 14 10 3 10 15 24 30 31 35 30 31 28 28 28 37 35 28 22 17 15 13 13 13 10 11
4 3 6 5 6 3 9 15 11 4 3 5 13 16 19 12 7 7 9 10 13 15 15 22 28 33 30 32 31 30 28 29 37 38 33 21 16 13 12 12 11 11 7 12
4 5 4 7 8 5 16 17 16 11 14 6 10 10 12 4 2 8 11 11 16 16 18 27 30 34 32 31 29 30 27 35 39 38 24 17 15 14 12 9 9 10 13 12
3 4 4 11 7 8 17 15 13 13 14 9 9 14 2 12 11 15 16 23 23 18 27 32 29 30 31 30 28 25 32 36 32 22 16 13 14 14 16 16 20 8 10 14
2 3 2 6 5 5 10 8 6 5 7 7 6 6 5 6 13 19 28 29 23 24 31 35 31 29 28 30 28 31 31 24 16 13 12 10 12 12 11 6 5 8 14 20
5 3 2 3 1 4 9 6 7 6 8 6 3 5 9 8 19 21 23 21 21 29 32 32 29 29 27 29 30 26 13 11 9 6 7 8 8 8 7 9 12 19 23 24
8 4 1 1 2 7 11 10 2 2 8 5 5 9 16 26 28 16 17 16 25 31 29 24 23 24 31 29 25 14 14 13 8 5 3 5 7 11 19 27 26 23 25 27
6 5 3 2 4 5 8 5 6 5 6 8 8 12 17 17 10 12 24 20 25 26 19 16 22 28 27 20 15 10 5 5 8 10 15 18 19 15 17 20 22 23 23 24
3 2 3 1 6 8 9 12 2 4 8 10 22 25 25 8 16 23 18 21 20 14 20 26 30 31 18 14 11 7 2 6 11 16 18 16 19 20 21 20 19 21 22 23
5 3 4 3 3 8 5 3 2 9 16 30 35 29 15 16 14 16 17 18 16 22 26 32 28 13 15 17 6 3 12 16 13 14 18 19 19 19 19 19 21 19 20 21
3 7 4 8 7 4 8 24 26 26 34 32 21 14 14 17 16 21 11 18 21 26 31 25 13 11 11 10 12 11 13 11 14 18 19 19 19 18 19 19 18 19 21 24
4 10 6 6 8 18 26 42 39 31 24 15 14 13 10 11 14 21 18 19 26 29 22 15 11 11 8 11 14 14 14 15 17 17 18 20 20 19 16 16 19 19 21 21
8 7 5 14 23 33 29 29 24 21 10 12 6 11 11 18 25 21 19 25 27 22 18 19 20 13 10 12 15 16 16 15 16 19 20 19 18 15 15 20 17 16 16 18
12 16 7 14 27 23 29 20 18 14 9 2 12 22 25 22 22 18 24 26 23 19 20 15 11 10 14 16 18 17 15 15 17 20 20 16 15 15 18 21 18 14 18 19

GFSCGP_850_spd_009.txt.gz
Wind_Speed
5 6 2 2 1 4 1 2 2 4 3 7 5 9 12 16 1 4 8 16 15 13 6 3 7 10 12 13 9 5 5 6 4 6 9 12 15 18 22 23 23 23 24 26
6 2 1 4 5 4 2 2 4 5 5 3 7 9 8 9 5 4 21 21 18 14 11 10 8 7 5 4 5 5 6 6 7 10 13 16 19 21 24 27 29 30 31 29
5 1 4 3 5 6 4 2 3 5 7 1 6 6 6 5 9 9 13 14 14 14 11 7 4 2 4 5 5 8 10 11 11 12 15 19 23 26 28 30 34 36 38 38
1 2 3 5 3 1 4 2 2 6 4 2 4 3 5 4 2 3 4 8 11 11 8 6 4 7 7 7 8 11 12 14 13 16 18 20 24 29 29 31 35 35 36 39
2 3 6 6 4 2 6 7 4 2 3 2 8 4 6 5 2 0 3 8 7 4 6 4 6 6 7 8 10 12 13 13 13 14 18 26 33 35 38 40 37 34 34 36
4 3 3 2 3 4 8 4 5 4 2 2 1 2 6 4 4 1 4 8 7 6 1 3 4 5 7 9 11 10 6 6 12 20 27 32 35 39 41 38 33 32 32 32
6 4 5 4 5 6 8 6 4 5 5 4 1 2 6 4 4 2 2 2 4 3 6 6 9 9 8 7 3 7 13 18 23 28 35 36 39 37 33 34 36 35 32 33
4 6 5 6 1 2 3 3 4 3 1 5 6 3 4 1 4 8 6 5 4 4 6 8 4 6 1 5 11 17 24 30 35 39 38 33 29 30 32 34 34 34 31 28
4 4 4 1 3 1 3 4 2 6 2 3 4 5 5 5 6 8 7 15 3 2 6 8 3 3 6 13 21 25 30 32 33 29 28 29 32 33 32 31 31 31 29 24
3 4 2 6 3 6 5 2 4 4 3 3 5 6 5 4 8 14 10 7 8 8 7 5 5 8 15 22 26 28 28 29 27 28 30 33 39 35 30 29 28 24 19 18
2 2 6 3 5 1 5 4 5 3 3 2 3 6 5 6 7 11 7 9 6 3 6 9 12 19 24 27 26 24 26 28 26 27 33 37 40 33 31 28 24 18 13 10
2 3 3 3 7 4 4 5 4 3 4 3 2 7 3 2 10 7 4 10 12 10 14 19 21 23 26 28 26 29 25 31 31 32 36 42 45 31 26 22 16 14 11 17
2 2 3 7 6 4 3 3 3 4 3 6 3 5 3 22 11 3 8 12 14 16 20 22 22 25 24 26 28 29 30 32 32 37 43 45 36 23 20 19 16 12 11 10
2 2 6 5 6 5 10 5 3 5 3 4 11 18 16 10 4 11 18 18 19 24 25 23 24 26 25 26 30 32 33 32 36 40 41 35 23 15 16 13 9 8 5 9
3 2 3 6 7 6 14 13 16 9 11 6 9 10 13 6 5 12 18 20 23 27 23 19 28 31 27 27 31 31 31 34 37 36 29 23 14 10 12 12 13 12 14 14
2 3 3 4 6 10 15 14 11 14 11 8 10 10 6 4 9 14 21 24 24 25 22 25 31 31 29 30 32 29 33 32 27 19 17 14 10 9 12 16 13 9 14 18
2 4 2 5 6 9 7 7 4 3 5 5 5 7 2 6 15 20 25 28 25 31 25 29 31 32 29 30 26 32 31 22 13 12 11 10 11 9 11 11 12 14 17 21
6 4 2 3 3 1 8 3 6 9 10 6 6 5 8 16 26 23 26 21 19 26 24 27 31 29 30 29 34 30 22 16 15 12 7 6 7 8 10 16 23 23 19 22
6 4 3 2 3 6 9 9 2 3 7 4 5 4 20 29 29 21 17 13 18 15 17 23 28 27 30 34 29 19 15 7 3 6 9 16 19 19 18 18 18 22 23 23
5 5 3 3 4 5 8 4 6 1 6 2 2 11 25 20 10 9 6 16 18 19 21 22 23 32 34 19 15 19 19 10 9 21 16 18 18 20 21 22 22 21 23 25
2 1 4 2 6 8 9 8 1 4 5 7 14 25 26 10 16 15 14 16 18 20 20 23 31 29 18 14 18 19 9 9 16 18 17 18 21 21 21 21 22 24 23 23
4 3 4 2 3 8 2 1 5 10 22 25 28 21 17 13 10 11 17 21 22 21 26 30 26 17 14 16 14 13 10 16 17 17 20 21 20 20 21 22 22 21 23 25
3 8 4 9 6 7 7 15 31 25 29 24 15 14 13 9 14 21 25 25 18 22 28 26 22 16 15 15 13 14 14 17 19 19 19 20 21 21 21 20 21 23 23 25
4 11 4 4 8 21 21 36 41 37 18 9 7 5 6 19 20 24 30 26 20 25 27 25 22 22 18 17 11 14 16 15 17 17 19 22 22 21 19 19 22 22 22 25
8 3 5 13 20 28 32 30 23 14 9 8 8 11 18 22 26 28 28 20 25 24 24 22 22 16 14 11 12 15 14 15 15 17 20 23 22 20 20 20 23 22 21 23
13 8 5 11 26 24 28 18 11 5 7 8 15 17 19 24 23 24 23 25 25 24 20 20 18 16 16 17 18 18 15 15 16 18 21 23 22 22 22 23 24 20 21 22

GFSCGP_850_spd_012.txt.gz
Wind_Speed
7 7 3 3 1 1 1 1 3 3 2 5 3 6 9 15 10 6 1 8 10 9 6 3 3 2 5 10 11 7 5 5 5 6 9 11 14 15 17 20 22 24 27 31
6 4 1 6 5 4 3 2 4 5 3 0 5 8 6 11 7 8 11 14 15 14 11 10 9 7 6 4 5 6 7 8 8 10 13 16 19 21 22 24 26 29 31 32
5 1 5 4 5 6 4 2 3 5 6 1 6 4 6 4 11 13 11 10 12 11 9 7 6 3 2 3 4 7 9 12 13 15 18 20 21 22 27 28 26 27 32 33
3 4 5 5 4 2 3 2 2 5 2 1 4 2 5 6 3 7 5 6 8 7 6 5 1 4 6 7 10 11 13 15 16 16 15 17 23 30 33 34 36 36 31 29
1 3 5 6 2 1 7 4 2 1 3 3 8 4 6 6 4 2 2 7 5 6 5 3 7 9 11 12 12 11 9 8 8 11 17 24 28 33 35 34 33 31 32 33
2 2 3 2 3 2 6 4 5 4 2 3 3 3 5 3 4 4 4 1 4 5 4 6 7 6 6 3 2 3 5 9 14 20 26 31 32 32 33 34 35 37 37 36
6 3 6 4 5 6 9 6 3 5 5 3 3 1 5 6 4 2 1 8 9 7 9 7 6 4 1 3 6 11 17 23 27 29 29 29 28 30 32 35 37 37 36 36
4 5 5 6 1 2 3 4 4 2 1 4 5 3 3 3 15 22 20 17 12 9 8 5 5 5 6 11 17 22 26 29 30 28 27 26 27 31 35 37 37 33 31 32
4 3 5 1 3 1 2 4 2 5 2 3 3 5 5 3 8 16 13 9 8 8 8 8 8 9 15 21 24 26 26 26 26 26 27 30 34 38 41 41 34 27 27 29
1 2 1 4 1 8 6 4 4 3 2 3 5 5 4 6 8 7 7 8 9 7 9 12 16 19 19 20 24 24 24 24 24 29 30 34 39 42 42 40 26 22 25 20
2 2 5 1 5 1 4 3 5 4 3 3 3 6 5 4 4 5 4 8 11 9 12 18 20 19 20 23 24 25 26 29 29 31 33 38 42 43 42 28 18 17 13 6
2 4 3 4 1 1 2 3 4 4 3 1 3 6 4 7 1 4 1 8 13 14 19 23 25 26 24 28 27 25 28 31 32 33 36 41 42 39 27 18 9 6 6 5
1 2 4 8 5 5 4 1 4 5 3 6 3 6 0 14 16 2 6 11 18 24 28 27 28 23 27 29 27 25 27 31 30 34 38 39 37 30 18 9 9 9 9 9
3 2 5 5 7 5 5 4 4 5 3 4 11 17 19 15 9 13 14 17 23 29 27 25 25 22 27 28 26 27 31 30 32 36 33 31 28 24 14 7 9 9 10 18
4 2 4 6 9 8 11 11 8 8 8 6 15 8 12 11 8 8 17 26 27 30 25 24 20 25 24 24 26 33 30 31 36 30 24 23 20 18 12 12 14 16 22 26
3 3 1 4 4 5 7 11 11 9 7 11 14 15 12 7 5 17 28 29 27 30 22 21 20 22 24 26 29 30 34 39 30 21 17 12 16 15 11 12 11 12 17 21
0 3 2 5 4 9 6 4 4 3 6 5 6 9 2 3 14 22 27 27 29 20 16 22 24 25 27 30 30 37 35 27 21 20 13 8 9 11 15 19 20 22 24 23
5 4 2 3 5 2 6 3 7 7 9 9 7 6 5 12 21 25 24 26 17 18 26 23 22 27 27 33 37 30 24 25 24 18 12 18 18 17 17 19 20 21 22 24
5 5 2 2 3 6 12 6 2 2 7 3 3 3 15 25 33 23 15 9 11 15 20 25 29 26 34 34 28 21 23 27 18 14 18 17 19 19 21 23 22 22 22 23
5 5 3 2 4 5 8 3 3 2 6 2 2 19 21 21 9 7 12 16 22 21 21 26 24 32 31 23 18 23 21 14 12 17 19 19 20 22 22 23 23 23 24 23
2 0 4 3 4 8 10 11 1 3 5 5 13 22 19 6 3 4 15 18 19 22 26 21 27 28 24 19 19 17 16 14 15 18 21 22 23 22 22 22 22 22 22 25
4 3 4 2 3 8 4 3 3 9 16 21 23 14 4 1 6 12 17 20 24 26 21 25 27 26 22 22 20 16 15 15 17 20 21 21 21 22 23 23 22 23 24 26
3 7 3 8 7 6 7 16 32 30 27 25 9 6 2 8 13 21 23 25 27 22 21 25 26 26 24 20 17 19 16 15 15 18 19 20 21 24 23 23 24 25 25 26
4 6 4 2 7 16 26 39 32 23 10 4 4 8 5 11 17 23 26 27 27 19 27 26 24 22 19 16 14 15 17 16 17 17 19 20 23 25 25 25 24 24 26 26
8 2 3 6 19 27 27 17 17 17 11 11 10 14 17 20 24 24 24 27 25 26 27 25 21 19 19 16 17 19 20 17 17 18 19 21 22 25 26 25 23 24 23 23
14 6 4 13 25 19 20 12 14 7 6 12 13 18 23 23 24 21 27 28 26 27 27 24 21 21 22 22 21 20 19 18 18 19 20 22 23 25 26 25 26 21 20 22

GFSCGP_850_spd_015.txt.gz
Wind_Speed
8 8 4 2 1 3 3 2 3 3 2 5 3 6 8 13 12 10 8 8 10 9 6 4 1 3 1 5 11 12 10 9 8 9 10 10 11 13 16 18 20 24 25 26
6 4 1 4 4 2 1 2 1 3 1 1 5 5 4 12 9 8 9 12 12 13 12 11 10 8 6 3 5 10 11 11 11 12 14 16 17 18 21 22 25 27 27 29
5 1 2 1 4 5 1 2 2 3 7 1 4 2 7 5 8 11 11 12 13 12 10 8 7 6 4 5 8 10 11 12 12 14 15 15 16 17 21 27 32 34 33 29
5 4 3 3 3 2 3 2 4 4 1 1 4 3 5 6 4 6 5 6 4 4 4 3 1 2 5 6 7 9 9 10 9 7 10 14 21 25 27 30 31 30 29 30
0 2 4 5 2 1 3 2 1 1 3 2 5 1 4 4 6 6 10 7 6 6 5 4 5 5 4 1 2 1 3 6 10 15 20 24 27 28 29 30 33 35 35 36
2 2 3 2 2 1 4 2 3 3 2 1 1 2 4 5 5 5 7 15 11 6 4 5 4 3 4 4 3 4 8 15 21 25 28 29 31 32 33 35 39 40 39 38
5 3 5 4 4 3 8 3 1 2 2 1 2 1 4 9 8 6 9 11 12 9 7 5 2 2 4 7 11 15 19 23 25 29 32 31 29 28 31 35 39 42 40 36
3 1 4 5 2 2 4 2 2 1 2 4 2 4 6 8 9 14 11 12 12 12 11 10 8 9 12 17 20 23 25 27 31 33 30 24 25 28 35 38 40 40 37 31
2 2 3 4 3 1 1 4 1 5 1 1 3 1 3 7 9 11 9 10 11 10 11 12 15 18 19 21 21 24 27 25 22 23 23 24 28 33 38 40 39 35 27 22
1 2 2 3 1 8 3 4 1 3 2 2 4 4 3 3 5 5 6 5 7 7 10 17 21 22 22 22 22 25 23 21 21 24 26 28 33 37 39 40 35 25 17 11
1 1 2 0 4 1 2 2 5 4 1 1 3 5 4 6 0 5 5 1 5 8 14 20 20 20 21 17 21 24 22 22 25 27 26 31 38 39 37 33 24 15 7 4
1 2 2 2 2 1 2 3 3 2 2 1 1 7 2 7 2 7 8 1 8 15 21 23 19 21 18 18 24 24 22 22 26 27 30 36 36 31 28 24 17 4 7 7
2 2 3 2 2 2 2 2 4 4 2 7 3 6 0 6 14 11 11 10 18 26 26 26 20 22 21 28 25 22 25 28 29 32 37 36 28 25 21 15 9 8 10 11
2 2 4 4 4 2 5 4 4 4 3 4 12 19 21 18 13 14 9 15 21 25 23 22 18 21 22 21 21 22 24 27 32 34 31 24 22 22 17 12 10 12 14 16
3 3 3 5 9 5 8 13 10 12 12 7 13 15 18 14 10 4 13 21 21 21 18 15 15 18 17 20 24 26 28 32 29 27 22 20 19 12 14 12 13 15 19 21
2 2 1 4 6 5 9 12 11 12 14 13 18 19 17 9 4 10 18 19 18 15 11 12 13 15 21 24 26 33 35 27 22 22 22 22 17 18 17 18 17 18 20 21
1 3 1 3 5 9 6 3 4 3 6 4 5 6 2 4 9 17 22 15 10 7 11 16 16 18 25 25 33 35 28 22 20 22 13 14 15 16 18 19 21 22 22 22
4 3 1 3 4 2 1 4 7 9 12 7 9 6 3 12 19 17 8 6 7 12 22 20 20 25 23 30 32 27 23 21 22 11 12 16 16 18 20 23 23 22 21 21
2 4 2 2 3 7 10 2 2 3 6 3 2 4 17 27 26 17 8 9 17 23 16 21 25 21 27 28 25 24 22 20 16 13 15 18 21 22 23 23 23 23 23 23
4 4 1 3 3 5 5 1 4 3 8 2 5 22 27 21 8 11 8 15 15 19 22 25 21 22 25 24 21 22 20 18 16 14 19 19 21 21 22 22 23 22 22 23
1 1 4 5 5 8 9 6 2 2 4 5 14 19 19 7 6 15 14 17 23 23 24 23 19 25 24 24 24 22 20 23 20 18 18 19 20 20 21 23 23 23 24 24
3 3 4 3 4 7 2 3 2 3 21 20 18 17 8 4 15 10 13 20 23 24 24 17 24 28 26 24 21 18 16 13 13 16 17 18 19 20 21 23 24 24 24 25
4 6 3 8 6 5 6 17 21 19 12 10 12 6 9 10 9 17 22 24 24 25 26 25 27 30 27 21 18 18 15 18 19 18 18 18 18 20 21 24 25 24 23 24
3 6 4 1 8 14 23 27 16 7 12 11 13 13 7 14 20 24 25 26 25 29 30 28 28 29 27 21 18 19 20 21 20 19 17 18 19 20 22 24 23 21 20 19
8 4 4 6 20 22 16 14 12 7 10 7 10 13 16 19 23 23 26 24 28 31 31 30 29 27 26 24 22 22 22 24 20 19 19 19 20 21 23 23 22 20 19 20
8 7 4 7 17 13 9 8 7 4 5 7 11 17 18 21 23 23 27 30 30 30 32 34 29 26 26 25 23 17 21 21 18 18 18 20 20 21 22 23 22 19 16 18

GFSCGP_850_spd_018.txt.gz
Wind_Speed
5 2 6 8 7 5 1 2 3 1 3 9 1 3 8 10 9 8 6 6 9 11 7 4 7 6 3 3 4 5 6 14 12 11 9 6 7 9 10 11 16 18 21 26
4 7 5 5 5 1 2 3 1 1 1 5 3 3 7 11 12 10 11 12 12 12 11 11 10 8 7 4 5 6 8 9 11 10 12 14 15 12 15 14 16 21 29 30
3 6 3 0 4 4 1 2 4 5 6 3 3 6 5 7 11 13 14 14 14 12 10 10 9 6 4 2 3 4 7 10 11 10 7 7 9 12 11 22 25 28 30 29
7 3 2 2 4 6 2 2 9 7 6 3 2 4 6 4 9 10 10 10 10 10 8 7 7 3 2 3 3 3 3 4 7 9 12 16 13 13 15 16 18 25 26 30
4 4 3 4 4 5 5 7 6 3 5 4 3 6 7 4 7 7 11 10 10 8 7 7 7 8 7 6 7 8 9 9 13 17 19 18 21 23 27 30 41 25 22 24
6 3 3 5 2 2 5 4 1 1 2 4 1 5 6 2 3 5 8 11 11 10 7 6 7 7 8 8 8 9 10 10 16 19 21 22 21 24 21 19 22 24 26 26
3 4 2 7 4 4 8 3 2 2 4 1 1 5 8 6 6 8 10 11 11 10 9 8 6 5 6 8 11 14 16 15 17 21 24 30 18 17 19 22 24 29 30 28
3 4 8 9 5 6 6 6 3 3 2 2 3 3 7 8 9 10 9 9 8 8 7 7 6 8 9 10 11 13 14 15 14 15 20 21 19 20 22 25 31 31 29 27
3 3 4 7 5 4 3 3 2 2 1 3 1 3 8 9 5 7 8 7 5 2 3 6 10 11 12 12 12 14 17 20 19 18 18 20 23 25 27 34 34 29 27 19
2 2 2 1 3 8 4 3 2 2 3 3 2 4 6 13 11 3 9 8 4 3 4 9 13 15 15 15 13 14 19 19 17 16 16 18 21 24 29 31 29 25 19 11
3 2 2 3 3 3 2 2 2 2 2 3 4 5 4 2 1 4 12 6 6 6 10 14 16 15 14 12 14 17 18 16 15 15 17 20 22 24 25 24 18 13 8 7
4 1 2 1 2 2 1 2 1 2 2 2 4 7 3 2 5 5 9 4 5 9 14 15 16 14 12 14 18 18 15 17 17 17 19 21 26 20 17 17 12 10 8 8
1 0 2 3 5 4 5 4 2 1 1 9 4 4 3 3 9 11 11 5 8 15 19 18 17 15 14 18 17 15 15 16 20 22 21 18 16 16 17 14 12 10 10 11
1 2 4 5 7 5 6 9 7 9 4 7 12 17 17 12 13 14 5 8 15 17 18 16 15 15 18 16 14 14 17 20 22 20 19 18 15 17 18 12 12 13 14 16
2 3 4 8 12 13 11 14 13 15 15 10 14 16 14 14 13 11 7 16 21 20 16 15 16 16 12 12 15 17 21 21 17 17 17 13 15 14 13 13 14 15 15 16
1 1 3 4 8 9 12 15 14 13 14 15 16 16 9 10 8 6 16 22 21 13 11 15 14 13 14 16 17 20 21 17 15 14 14 9 11 12 14 14 15 16 16 15
1 1 1 4 9 12 6 2 5 5 4 8 9 10 10 6 10 16 21 19 10 8 14 14 12 13 17 16 18 21 20 16 15 15 11 11 13 13 13 16 17 17 16 16
3 3 1 3 5 3 3 6 11 12 13 6 12 7 5 11 19 24 10 7 5 15 14 15 15 18 17 17 20 21 20 18 16 15 13 12 12 13 15 16 16 16 16 16
2 3 2 1 3 14 11 3 2 5 13 9 5 5 17 27 26 14 4 6 17 12 16 18 19 21 18 19 21 22 21 20 18 17 14 12 13 13 14 15 15 16 16 17
5 3 2 3 3 4 2 3 3 3 11 5 12 19 29 26 13 8 12 20 11 15 17 20 21 21 18 22 21 21 22 20 17 14 14 13 12 13 14 14 15 15 17 17
3 2 4 6 6 8 7 2 0 4 4 11 16 11 14 10 3 15 15 12 15 18 18 20 21 21 23 23 22 22 20 18 17 12 12 12 12 12 13 14 16 18 19 19
4 5 4 2 4 6 4 3 5 12 16 16 9 8 7 10 16 10 13 18 20 21 21 21 24 25 25 24 24 24 21 20 18 18 16 13 12 12 14 15 18 20 20 19
5 6 3 7 6 9 10 16 16 15 15 6 4 6 9 10 12 15 18 20 21 22 22 24 26 27 25 24 23 24 24 21 19 19 16 13 12 12 13 17 19 18 18 17
5 9 4 5 12 18 13 19 7 3 4 5 7 4 7 12 16 19 20 23 23 22 24 24 25 26 26 24 22 20 21 20 18 17 16 13 13 13 15 16 15 17 16 16
8 4 8 12 19 20 9 6 3 4 6 4 6 8 11 13 17 21 23 24 24 24 23 22 23 26 27 24 22 20 18 15 16 17 14 12 12 12 14 14 14 14 13 16
15 13 7 6 14 7 4 2 5 2 2 5 8 10 13 17 21 22 24 25 24 24 23 23 25 27 27 24 21 16 15 21 18 15 11 11 12 11 11 11 13 16 19 18

GFSCGP_850_spd_024.txt.gz
Wind_Speed
8 9 2 13 9 6 9 6 6 7 8 3 10 9 9 11 6 3 3 2 11 23 17 16 16 12 8 9 9 9 8 8 2 3 5 7 6 7 6 9 12 15 15 22
4 3 7 5 7 6 5 5 4 3 5 4 8 10 11 9 5 7 10 12 24 20 18 17 15 15 13 11 10 7 4 2 5 1 4 7 8 10 10 10 11 13 19 22
9 10 5 4 2 8 4 4 8 7 10 9 10 9 13 11 8 14 18 18 17 15 15 14 14 13 11 12 11 9 6 5 6 3 2 6 8 7 10 13 19 29 25 25
8 3 2 1 2 7 7 6 5 8 9 9 13 4 14 14 11 13 15 15 13 11 12 12 10 10 10 10 10 7 5 4 7 9 7 8 7 10 13 17 18 22 25 22
6 4 1 2 6 6 5 6 7 8 10 11 12 7 14 16 13 12 14 13 11 9 10 9 9 9 7 6 7 5 4 7 9 10 10 13 14 18 20 16 18 19 18 19
8 3 6 7 4 2 7 9 11 8 9 4 13 3 5 8 13 12 13 10 9 8 7 7 7 6 7 7 6 6 7 8 10 13 15 15 17 15 17 18 19 17 22 26
6 5 6 6 10 7 6 8 4 2 4 2 5 3 8 10 9 14 14 11 8 7 6 6 5 5 5 5 7 7 9 11 13 13 14 14 14 15 16 18 20 24 30 27
8 7 4 5 6 7 5 6 2 4 4 6 7 3 9 12 14 14 11 10 7 5 3 3 3 6 6 7 8 10 11 12 16 16 16 16 18 15 16 23 27 29 21 25
3 6 6 5 6 7 6 5 4 3 2 2 5 8 11 12 11 10 9 4 7 2 3 5 6 9 10 11 12 12 13 15 16 18 18 17 16 19 24 26 28 21 23 18
4 2 3 3 3 2 4 1 2 1 2 3 7 6 7 10 9 9 3 8 6 6 6 9 11 13 13 14 13 14 16 15 16 18 16 16 18 18 23 25 18 20 18 20
7 3 5 5 6 7 1 2 2 3 1 2 3 3 8 7 5 6 8 7 4 4 7 10 13 12 14 17 20 18 19 15 13 14 16 19 21 20 18 14 16 23 25 22
4 2 1 7 6 4 3 5 4 1 4 1 1 6 4 3 8 9 10 12 8 5 8 12 13 14 17 16 15 16 15 12 14 18 19 20 18 18 17 20 26 25 17 19
4 1 3 8 5 4 0 3 2 4 2 5 4 4 3 1 15 8 7 6 5 8 12 15 14 14 19 20 21 16 14 16 16 19 20 20 19 21 23 19 19 17 17 19
3 1 1 2 6 7 7 10 8 10 4 6 8 14 15 12 8 7 10 10 12 13 15 17 16 19 20 19 16 16 18 16 18 20 21 19 20 22 16 15 16 18 18 20
3 1 4 7 9 8 9 11 11 12 12 9 11 16 11 8 7 13 17 18 19 20 18 15 19 20 17 18 17 19 19 21 19 21 21 20 22 17 15 19 18 19 18 21
3 1 3 3 5 10 13 15 13 13 13 10 11 12 12 7 16 16 17 23 19 15 15 20 18 18 18 18 20 21 22 21 22 20 22 26 18 16 16 16 18 17 19 19
2 1 2 3 9 10 3 3 6 8 7 9 5 10 9 15 17 19 18 16 14 17 19 20 18 19 19 21 23 26 23 24 23 29 26 29 26 16 14 15 15 18 18 19
4 2 2 2 4 2 4 14 11 7 6 9 11 9 15 12 16 24 11 12 17 20 20 18 19 21 21 21 25 26 26 29 28 30 35 27 22 16 13 14 14 16 17 19
4 3 2 1 3 9 9 3 5 5 9 9 7 14 15 18 23 12 12 16 17 17 17 20 22 24 24 26 25 26 29 33 34 33 22 33 18 18 18 12 15 15 17 19
4 4 2 2 2 3 3 7 4 6 8 10 14 11 13 17 7 6 16 16 17 19 21 24 26 24 24 22 27 29 29 32 32 32 26 23 20 23 14 15 11 15 16 17
2 2 3 5 5 6 8 6 1 3 3 10 8 7 12 5 6 14 15 15 18 21 23 26 28 28 27 29 28 27 29 30 32 31 28 25 25 26 26 18 8 13 17 18
7 6 4 4 3 6 1 4 2 6 13 7 8 7 6 7 9 13 14 17 20 23 26 28 29 29 27 26 28 27 27 29 29 32 36 35 31 28 13 12 10 13 17 18
4 6 4 9 5 11 9 5 3 5 7 7 8 5 7 10 11 13 15 19 23 25 27 29 27 29 30 28 26 28 28 25 27 28 22 23 22 19 14 13 11 14 16 19
3 9 3 3 8 12 5 8 10 5 8 8 5 5 6 9 11 15 19 22 24 25 28 25 30 29 27 28 26 24 23 26 26 22 22 21 18 18 11 12 13 14 18 22
6 7 6 9 13 10 6 8 3 4 3 0 2 5 7 10 15 18 22 23 25 26 25 30 28 28 28 30 27 25 25 27 21 21 20 15 16 13 10 12 12 15 19 19
8 7 5 7 4 4 3 5 3 0 2 1 3 7 9 13 16 20 23 24 24 26 28 28 28 29 27 27 28 30 27 22 23 23 15 17 17 16 16 17 15 14 18 19

GFSCGP_850_spd_027.txt.gz
Wind_Speed
10 5 4 4 4 3 3 5 10 5 5 3 3 3 6 13 11 7 27 32 32 30 25 21 18 17 12 8 4 5 6 6 5 1 3 4 5 3 3 10 14 13 12 16
4 4 4 3 2 5 6 6 5 3 4 4 3 2 6 14 10 30 31 31 31 26 20 16 13 10 7 6 3 3 3 2 1 3 4 6 7 6 4 6 7 10 12 13
6 3 2 4 7 9 8 6 5 3 6 3 3 2 7 8 23 32 29 27 26 26 22 16 15 14 11 9 6 4 4 6 6 2 3 6 9 9 10 12 15 18 20 22
6 5 4 4 8 7 5 6 6 6 4 3 5 1 3 10 11 19 28 27 28 24 20 16 12 10 8 9 6 8 10 13 14 14 14 15 17 16 17 20 20 22 24 23
2 4 8 9 4 4 1 2 4 3 4 3 7 4 4 12 11 11 21 23 21 18 14 10 7 7 9 9 10 9 7 9 12 17 19 20 19 18 15 13 18 18 20 22
5 11 4 4 3 3 5 4 6 5 2 2 6 4 1 6 14 6 19 23 18 14 10 6 5 7 8 8 9 7 3 6 10 9 10 10 10 12 15 23 26 28 28 31
3 4 4 3 4 1 4 6 4 4 4 3 5 7 1 7 13 18 19 23 19 15 13 12 8 5 4 4 3 3 7 8 10 16 18 13 12 15 16 20 26 26 31 34
5 1 5 5 5 2 4 3 4 0 1 4 5 3 2 10 22 23 20 16 13 11 8 4 7 5 2 2 6 10 12 11 12 12 14 17 19 17 17 21 24 29 28 21
4 3 3 6 3 3 6 5 3 4 2 3 1 3 6 9 9 14 18 18 14 12 6 4 7 6 2 4 7 10 12 12 14 15 13 13 14 16 21 25 28 26 22 19
4 4 2 4 1 3 4 2 5 4 1 3 4 3 3 6 6 5 9 13 14 13 9 7 6 7 8 11 14 17 16 15 13 14 13 14 18 22 24 23 22 19 21 27
5 4 3 1 4 4 4 3 4 2 4 4 1 3 2 4 4 4 15 11 10 7 7 7 8 9 10 11 10 12 16 15 13 14 16 22 25 21 20 22 21 25 32 19
3 4 3 3 3 3 1 2 4 4 3 1 4 5 2 8 13 12 10 4 8 9 8 12 12 8 8 16 21 18 13 13 17 18 20 20 23 26 24 28 30 27 24 15
3 2 3 4 4 5 2 2 5 5 3 4 5 5 5 10 13 4 6 19 17 16 13 8 5 12 22 20 15 15 16 19 19 21 26 27 25 27 26 30 28 23 22 18
3 2 5 5 2 1 2 4 4 6 3 3 6 6 10 7 4 13 18 16 15 15 13 13 16 23 21 15 17 17 19 20 27 28 24 26 27 26 29 30 28 22 20 18
3 3 4 4 5 5 3 4 6 4 5 4 7 5 3 9 9 17 18 18 15 15 16 19 23 20 15 16 16 20 23 28 26 19 27 28 32 33 29 26 25 21 17 14
4 1 2 3 5 7 4 7 8 7 4 3 4 3 14 17 17 19 16 13 13 13 16 19 20 19 19 22 24 24 24 22 21 30 31 31 25 24 36 33 19 17 13 15
3 4 3 3 4 6 4 4 3 1 2 1 1 3 12 13 17 15 12 10 12 16 17 17 17 20 19 21 18 20 21 24 26 30 28 25 29 32 24 23 19 19 17 15
4 3 3 2 4 2 4 4 2 6 5 6 9 11 15 15 12 9 8 13 16 15 16 17 20 22 25 17 21 21 22 26 28 27 26 33 30 26 26 18 17 19 12 11
5 4 3 3 1 6 6 3 3 4 3 8 7 10 11 11 3 6 9 13 11 13 16 18 19 18 19 19 24 23 24 27 24 24 26 30 33 32 29 21 27 16 12 11
6 6 4 2 3 6 6 4 7 3 3 7 10 8 11 17 4 4 10 10 12 14 16 17 17 21 23 23 25 29 31 26 22 25 30 34 36 39 29 24 21 18 6 14
3 2 4 3 3 7 7 3 3 4 5 9 8 4 4 2 3 9 12 8 12 14 16 19 25 26 26 29 32 31 24 24 26 30 32 34 35 27 24 18 7 7 10 11
7 6 3 2 3 7 7 2 6 5 9 12 5 1 2 3 4 5 9 12 13 16 21 25 27 24 28 26 23 22 22 24 26 28 34 33 26 25 21 17 9 6 9 14
2 7 6 8 6 7 7 6 9 8 13 6 2 2 1 5 2 8 10 13 18 20 22 19 20 26 24 20 26 21 22 27 31 35 32 25 22 17 14 11 8 7 14 19
3 12 3 4 7 9 16 16 13 11 5 3 3 4 2 3 5 8 11 13 16 17 17 23 26 25 25 25 23 24 30 34 37 30 25 23 17 15 13 9 11 15 19 19
6 4 1 2 1 15 14 15 14 6 0 7 6 3 1 3 7 8 12 15 18 20 24 25 24 26 27 29 30 31 33 29 30 27 25 19 16 16 13 13 14 17 17 17
6 5 3 5 9 7 12 14 8 4 9 9 5 1 3 4 7 12 15 16 19 23 25 26 27 28 29 32 33 34 24 26 27 23 22 20 20 11 10 11 13 11 15 14

GFSCGP_850_spd_030.txt.gz
Wind_Speed
7 6 2 5 4 4 2 3 9 1 0 3 5 5 4 11 27 26 29 36 35 35 29 28 29 28 23 19 15 12 10 11 11 12 10 7 8 4 3 5 4 7 9 10
6 3 4 4 7 8 5 8 4 5 6 5 4 6 7 8 13 27 32 32 33 27 22 18 15 13 14 15 15 15 14 11 9 6 4 2 1 3 3 4 9 11 14 18
5 5 1 6 6 8 6 5 2 3 3 4 10 5 7 7 21 20 26 29 27 25 22 18 15 12 9 11 10 9 10 10 7 4 2 3 5 8 11 16 21 24 26 28
4 4 6 6 5 2 2 1 2 3 4 1 3 3 1 4 8 13 19 27 26 24 21 17 14 12 9 11 11 11 9 9 12 14 15 16 19 19 21 23 22 22 24 25
2 4 7 6 0 1 3 1 0 1 3 3 3 6 3 7 9 8 15 26 24 20 17 17 13 9 8 8 9 10 11 11 12 15 17 16 15 15 15 16 17 20 21 24
4 3 4 2 3 2 2 3 7 4 3 3 4 5 5 5 7 6 10 23 22 17 15 11 8 6 6 6 6 4 3 7 10 12 15 18 20 16 14 17 22 26 26 30
5 4 4 3 4 5 8 5 3 4 4 4 5 5 1 4 9 14 15 19 18 15 11 8 5 3 5 3 1 3 5 8 11 16 17 16 15 15 14 16 20 24 28 27
4 2 4 7 3 1 2 5 4 3 2 4 5 3 4 6 24 24 20 17 15 13 10 9 9 9 8 4 3 6 11 14 18 20 21 21 19 18 18 23 28 28 27 26
4 1 1 2 1 3 3 4 4 6 3 3 1 3 3 3 10 14 12 6 13 11 8 10 10 9 5 2 5 7 10 13 16 18 17 15 15 20 25 28 28 27 25 22
2 4 2 1 5 6 5 2 4 4 2 0 3 4 4 7 6 8 11 14 10 11 15 12 8 6 4 5 6 10 14 17 17 16 16 18 23 29 30 31 32 29 29 29
2 4 4 4 2 2 4 3 5 4 3 4 2 5 4 7 7 8 12 14 14 15 11 11 10 6 3 6 12 17 13 9 12 17 22 25 25 31 32 31 33 31 30 26
2 5 3 2 2 1 2 3 4 4 2 1 4 4 3 8 17 17 11 12 15 13 13 10 5 4 9 14 15 12 10 13 18 17 24 29 30 29 28 35 34 34 33 28
2 2 3 6 6 5 2 2 5 6 3 5 5 5 6 9 13 16 23 19 16 11 6 5 8 13 16 12 9 10 14 18 21 27 28 23 23 32 33 31 33 35 26 23
2 3 5 6 4 3 1 2 4 5 3 3 6 5 6 6 11 15 19 16 10 6 7 10 14 13 8 9 10 15 18 17 19 19 18 24 26 27 28 34 32 26 23 17
3 3 1 1 3 1 1 2 1 4 4 5 6 6 5 7 9 15 13 9 7 7 10 12 14 10 11 13 15 13 15 19 19 20 20 28 27 30 30 26 26 32 33 20
3 1 2 3 6 6 3 5 5 4 4 4 8 6 4 13 15 12 9 6 7 9 9 9 9 13 14 17 12 11 16 20 23 24 27 26 26 30 29 30 30 33 24 15
3 4 3 3 4 5 6 5 3 1 2 4 5 6 9 6 10 10 7 4 4 5 8 11 14 13 11 10 11 17 21 23 24 25 25 25 27 30 34 33 29 31 23 17
4 4 3 3 3 1 5 5 4 9 4 8 11 8 9 10 9 9 3 5 5 6 9 10 7 10 12 15 19 19 21 21 18 18 23 27 31 33 36 37 23 26 23 21
4 5 3 3 3 5 4 4 5 5 5 4 9 10 8 11 14 5 2 3 4 7 5 6 10 14 17 20 22 25 24 21 22 26 30 32 31 34 34 29 24 21 17 8
6 6 4 2 4 6 5 2 7 7 5 14 13 13 7 10 2 4 2 2 3 2 4 10 16 20 24 29 29 30 23 20 24 30 27 28 34 29 25 20 15 8 5 3
3 3 4 2 2 7 7 5 7 5 7 17 13 11 7 4 3 4 1 3 2 5 11 15 16 19 24 24 21 21 22 27 26 23 28 32 25 22 18 15 13 9 6 8
7 6 4 3 2 7 12 4 7 6 14 17 14 10 5 3 4 2 2 1 4 7 10 13 17 20 21 18 23 27 27 26 26 31 32 26 23 19 14 13 6 5 3 8
2 7 5 9 6 7 16 8 15 15 17 18 12 8 6 8 6 3 2 2 6 10 14 17 21 22 19 22 24 25 26 27 32 28 25 23 20 15 12 10 9 6 10 15
4 8 3 3 5 12 16 12 13 14 13 13 7 7 9 10 6 4 2 7 11 15 19 21 22 22 22 23 26 29 31 32 28 23 24 21 18 14 11 10 10 12 15 14
6 7 4 4 2 5 11 13 15 13 9 7 11 11 10 8 5 3 6 10 14 17 20 20 21 22 23 24 26 29 32 30 21 23 20 18 17 15 9 7 8 12 13 14
7 7 4 5 11 9 8 20 17 13 11 13 17 12 7 4 3 6 11 14 17 20 19 20 21 24 24 25 28 28 24 23 25 21 16 15 13 12 7 7 8 11 13 9

GFSCGP_850_spd_033.txt.gz
Wind_Speed
6 6 2 3 2 3 3 1 3 1 3 5 5 7 8 10 24 23 23 28 28 27 26 24 21 19 21 22 22 18 9 0 3 6 6 6 6 3 4 5 7 9 12 15
6 2 1 7 5 6 6 6 2 1 5 7 6 11 9 12 10 18 25 27 32 30 25 23 22 19 15 9 9 9 8 6 4 3 4 4 4 7 10 13 15 19 23 25
4 3 5 6 6 8 5 4 2 3 5 7 6 6 7 6 16 19 24 26 25 24 23 19 14 11 12 12 11 11 9 7 5 4 5 6 8 14 19 20 20 20 20 22
5 5 5 6 6 4 3 1 3 3 4 4 3 2 0 1 6 7 16 20 22 23 19 16 16 17 15 13 10 11 10 8 9 11 11 14 15 17 17 18 18 18 20 22
3 3 5 5 1 2 3 2 2 2 3 4 2 5 3 5 3 4 9 18 21 20 17 18 17 14 11 9 7 5 3 1 5 9 13 13 14 16 15 13 15 17 23 28
3 2 3 2 1 1 1 4 6 4 3 2 3 5 4 7 7 6 12 20 19 17 16 16 15 12 11 8 4 1 3 7 9 11 13 16 17 15 13 14 18 23 26 28
5 3 4 2 2 2 6 5 2 3 3 4 5 2 4 5 9 8 13 20 19 17 15 13 10 8 7 5 4 5 6 8 9 12 15 16 16 15 14 17 21 27 27 27
4 4 4 5 2 3 3 4 4 4 3 3 5 3 4 1 19 21 23 20 16 12 9 8 4 6 3 5 4 4 7 12 14 14 17 16 15 16 19 25 27 29 29 29
4 1 3 2 2 3 1 3 3 6 3 3 2 2 5 3 7 16 19 18 11 8 10 8 7 8 6 4 6 8 11 12 15 15 16 17 20 23 24 27 29 28 30 30
5 4 1 2 2 4 4 4 3 4 2 1 3 4 4 8 9 8 12 11 9 11 16 14 11 7 4 5 7 9 13 13 14 13 15 19 23 26 26 25 27 28 29 32
3 4 4 2 3 1 4 2 6 5 3 4 1 5 4 11 10 8 9 10 16 17 15 11 8 5 2 5 9 12 10 9 12 16 19 23 22 20 22 26 27 29 31 33
2 5 3 1 4 3 2 2 4 4 2 1 3 5 4 4 12 16 15 20 19 16 13 9 4 3 6 9 9 6 8 12 14 15 19 19 17 20 22 24 24 32 35 28
2 2 3 6 6 5 2 3 5 5 3 4 4 5 2 9 11 13 23 20 18 15 9 3 2 5 5 5 6 7 10 13 12 17 21 20 18 21 26 28 28 25 28 29
3 3 5 6 4 3 3 2 3 5 3 3 6 3 2 5 7 13 20 18 13 8 3 1 4 2 5 6 7 9 10 11 12 17 19 20 25 26 26 26 28 28 26 26
4 4 2 3 4 1 2 4 6 6 5 5 5 7 6 9 8 17 16 12 7 3 1 2 2 3 5 4 8 8 8 13 18 22 27 29 26 27 28 28 28 29 31 29
4 1 2 1 5 5 4 6 6 6 4 6 4 4 4 13 14 14 12 8 4 2 3 3 2 6 7 7 4 9 15 20 25 27 23 21 23 26 30 30 34 35 25 26
3 4 3 3 4 5 6 8 9 5 4 6 6 7 13 7 13 15 11 6 4 5 2 4 4 2 2 7 12 18 21 23 23 20 19 22 26 29 30 33 35 28 22 19
5 4 3 2 3 2 6 4 5 4 2 3 3 9 15 16 13 11 8 5 6 5 5 4 3 4 8 12 18 23 23 24 20 15 22 27 28 31 35 33 28 24 20 17
3 5 3 3 3 5 4 4 6 6 7 6 8 8 12 10 9 9 10 8 8 8 6 4 4 9 12 17 21 22 23 20 18 23 27 25 29 34 30 26 23 18 11 8
6 6 4 3 4 6 6 3 7 4 5 17 16 15 13 15 2 5 16 11 9 7 4 4 8 10 15 18 20 21 19 22 25 26 24 28 30 25 23 20 18 14 8 6
2 3 5 2 3 8 7 6 6 5 7 20 24 27 21 9 12 8 13 11 8 6 5 6 9 13 17 19 21 22 23 23 24 24 28 27 24 23 20 16 15 10 5 6
7 6 4 3 1 8 11 5 8 6 6 23 25 26 23 16 10 9 11 10 10 6 5 9 14 18 19 20 22 21 22 24 25 28 26 23 22 22 17 12 10 10 4 7
3 7 5 9 6 4 18 6 20 9 10 21 23 22 16 14 14 15 13 10 7 6 9 13 17 19 19 20 20 21 23 25 29 27 18 21 21 19 15 9 8 8 10 13
4 7 3 3 5 14 12 24 14 15 13 17 17 15 14 14 13 14 11 7 5 8 12 16 19 19 20 21 20 22 26 27 24 24 20 19 19 18 14 9 9 9 11 12
4 7 4 4 8 7 13 19 21 16 13 16 14 15 15 11 15 12 7 5 8 11 15 18 19 19 20 21 22 25 26 22 21 22 20 19 17 14 12 9 8 9 11 12
9 6 4 6 12 9 8 12 18 19 19 18 20 17 13 15 12 7 4 7 11 14 17 18 19 21 22 25 27 26 25 20 20 21 16 16 13 11 11 12 11 10 13 10

GFSCGP_850_spd_036.txt.gz
Wind_Speed
6 7 3 3 3 3 3 4 2 1 3 7 5 5 8 9 14 13 15 16 15 11 7 6 6 8 13 14 17 21 18 5 8 9 6 2 5 8 9 11 13 14 14 16
6 4 3 4 5 6 5 6 3 2 6 7 5 8 7 10 6 11 20 23 25 24 22 20 18 14 10 8 12 15 15 14 12 8 7 8 10 11 14 16 18 18 18 20
6 0 3 4 5 9 4 5 2 3 3 6 4 5 5 6 12 16 21 24 25 24 21 14 10 14 18 19 18 16 14 12 11 10 9 9 9 11 13 14 16 16 16 18
5 3 4 6 6 3 3 0 3 4 3 3 3 3 2 3 3 2 15 19 20 19 14 14 17 18 17 15 13 11 9 7 8 7 5 6 8 11 13 15 15 14 16 21
1 2 5 7 1 3 1 5 5 4 5 4 3 4 4 6 5 8 9 15 18 15 15 18 17 14 10 9 8 5 4 3 2 4 7 9 12 14 12 11 11 14 19 22
3 3 3 2 3 3 4 5 8 5 3 2 1 4 4 6 6 5 11 17 18 16 16 17 15 10 8 6 5 7 3 3 5 7 10 13 14 13 11 10 14 19 22 22
6 4 5 3 3 3 6 5 3 3 3 4 3 2 6 4 5 11 15 20 19 17 17 17 14 14 14 8 7 5 4 6 8 10 11 11 10 11 12 15 18 20 22 25
4 4 3 5 2 4 3 5 4 4 3 3 3 4 4 4 13 26 24 22 18 16 16 15 14 15 13 8 8 6 5 7 10 12 10 9 11 14 17 19 18 21 23 24
4 0 2 2 2 3 2 3 4 6 1 3 2 4 4 6 5 16 21 18 19 17 16 16 15 15 12 9 6 3 6 10 10 7 8 12 16 19 18 18 21 21 21 23
5 4 2 2 3 6 2 5 3 3 2 3 3 4 4 5 7 7 14 23 18 16 16 17 17 15 11 6 3 7 9 6 5 9 12 16 19 17 16 17 19 19 21 28
3 4 4 1 3 3 2 2 6 4 3 4 1 5 5 11 11 13 15 20 18 19 19 17 14 10 6 4 6 7 7 5 8 10 13 18 18 15 15 18 19 19 22 22
1 5 2 2 2 2 2 3 4 4 3 1 3 6 2 7 14 16 16 19 21 20 16 12 8 4 3 4 5 5 4 6 9 12 15 15 13 16 18 20 21 21 27 27
5 2 3 6 5 4 2 3 4 5 3 5 5 5 3 4 8 13 19 19 18 16 12 8 3 1 1 1 2 4 6 9 11 10 12 16 19 20 20 23 26 27 26 30
4 3 5 7 4 3 4 4 4 5 3 4 6 4 3 3 5 11 17 18 16 12 8 4 2 2 1 3 7 7 9 8 9 15 20 23 19 19 22 27 29 28 31 31
3 4 2 2 3 2 2 4 6 7 5 6 4 7 6 9 8 17 21 18 14 9 6 4 4 3 5 4 7 8 7 12 18 21 22 16 17 20 26 30 29 32 32 26
3 2 1 2 3 5 3 6 7 5 3 7 4 8 6 7 14 18 20 17 13 9 6 7 5 4 4 4 4 8 14 19 19 19 16 17 20 26 26 29 34 31 27 23
3 5 3 4 4 5 6 9 9 5 5 7 6 8 8 4 15 24 21 17 12 9 10 8 6 4 3 4 8 13 17 19 19 17 15 19 24 23 28 32 30 27 27 20
5 4 3 2 3 2 6 2 5 8 5 7 2 4 14 12 18 21 18 15 12 13 12 8 6 5 5 8 11 14 17 19 18 15 20 22 24 28 31 29 26 23 22 14
4 5 3 3 3 6 5 5 6 7 7 8 7 4 9 11 12 12 18 15 11 12 8 7 7 6 8 10 13 16 19 19 18 18 22 25 28 31 29 26 24 21 17 9
5 6 4 3 4 6 6 3 4 4 5 7 13 12 14 15 3 7 20 16 12 8 9 9 8 8 9 13 16 19 19 18 18 21 24 28 29 27 24 22 20 19 14 13
3 3 4 2 3 8 7 3 4 5 7 8 18 23 24 8 14 5 9 17 13 13 13 9 7 8 12 16 17 17 17 18 21 23 26 27 24 23 22 20 16 14 10 8
7 6 4 3 2 7 8 4 7 6 7 9 19 24 31 24 12 8 13 12 12 13 10 8 8 11 15 17 16 17 19 21 23 26 26 24 20 21 20 18 13 13 12 9
2 6 5 8 6 5 13 7 15 6 6 9 17 22 27 21 14 15 16 14 14 12 8 7 11 15 16 17 18 20 20 23 26 26 23 20 19 20 19 16 13 13 13 13
4 6 2 2 5 11 19 21 23 13 15 13 13 19 20 22 17 18 13 16 12 8 7 11 15 16 17 18 19 21 23 25 25 23 20 21 21 20 19 15 13 14 14 14
4 6 4 5 12 13 20 19 22 25 20 14 13 17 18 16 18 14 12 9 5 7 11 14 16 17 18 19 21 24 26 26 24 21 21 19 18 19 17 13 12 12 13 15
9 6 4 6 13 8 13 15 13 15 17 17 18 17 16 15 12 8 6 3 8 11 13 15 16 18 19 22 23 25 24 22 21 20 21 20 18 19 16 14 15 14 15 16

GFSCGP_850_spd_039.txt.gz
Wind_Speed
3 3 3 2 2 3 4 3 4 3 4 6 5 4 7 4 7 9 9 11 11 9 7 6 5 7 10 11 10 13 16 11 3 9 11 10 5 4 1 5 8 10 10 10
4 3 2 5 5 5 4 6 3 3 3 4 4 8 7 5 2 5 11 12 12 13 11 9 7 8 7 7 8 8 11 13 15 12 10 6 3 3 7 11 11 13 14 13
5 1 3 3 4 8 5 6 3 4 4 6 3 2 2 5 6 6 8 13 17 19 20 17 16 19 23 23 22 20 20 19 16 11 6 2 0 3 7 10 12 12 10 12
5 3 4 3 3 2 4 2 4 6 2 2 2 3 1 2 4 7 12 15 20 21 17 19 24 25 24 22 19 17 15 13 10 6 3 4 5 7 9 10 10 8 11 16
1 2 4 3 0 2 4 3 4 3 4 2 1 2 1 3 6 11 13 15 16 15 16 23 23 21 19 18 16 12 11 9 6 5 4 7 8 8 8 8 7 11 14 17
3 2 3 2 3 4 8 5 5 3 2 1 1 3 3 6 8 13 14 14 16 15 20 21 20 18 17 15 11 10 8 10 7 4 5 6 7 6 6 7 11 14 16 18
4 3 3 3 4 3 4 4 2 1 1 3 2 2 5 4 6 19 20 18 19 19 22 22 20 18 16 14 6 12 11 7 4 4 5 5 5 6 9 12 14 14 17 18
3 0 3 4 2 4 2 3 4 4 3 1 0 4 2 4 7 18 23 22 22 21 22 21 18 16 15 11 8 10 8 5 3 4 3 4 6 9 10 12 13 15 17 18
4 1 1 3 1 1 4 2 2 6 2 1 2 3 5 2 4 13 20 20 22 22 22 19 17 16 15 11 10 8 6 4 2 2 3 5 8 10 12 13 14 16 18 21
4 3 1 1 1 7 1 7 3 2 3 3 2 4 4 4 8 11 17 22 21 21 19 17 17 16 14 11 9 6 3 1 2 3 5 8 11 15 17 16 18 20 21 22
3 3 2 1 0 5 2 2 5 4 1 2 1 4 3 8 11 16 21 21 22 19 17 15 15 14 12 8 4 1 2 1 3 6 9 11 14 15 16 18 19 20 23 26
1 4 3 2 0 1 1 3 4 3 4 1 1 5 1 5 9 11 16 18 18 17 16 16 15 12 10 6 4 2 3 7 7 9 11 11 16 19 19 16 20 23 26 24
5 1 3 2 2 1 3 3 4 5 2 5 4 4 2 3 6 15 17 17 19 19 19 17 13 11 8 4 3 5 8 6 7 7 12 18 20 17 16 18 22 25 27 29
4 3 4 6 3 2 4 4 4 4 3 4 6 4 5 6 7 9 16 19 21 22 19 16 12 9 5 4 6 7 6 5 7 13 18 18 15 14 16 21 25 27 29 28
3 4 2 1 1 1 2 4 9 8 4 7 4 9 6 7 11 15 16 21 23 22 19 15 11 9 8 7 5 5 3 7 13 16 15 13 13 14 21 24 27 29 27 25
2 3 2 3 1 3 4 5 6 7 4 11 5 14 8 3 8 14 20 23 22 22 17 13 12 11 8 7 6 3 6 12 15 14 13 13 13 20 23 26 28 27 25 24
2 5 3 3 3 3 5 9 13 6 6 8 10 9 6 6 13 20 23 24 23 20 16 14 12 9 9 7 4 7 10 13 14 13 10 12 18 22 24 27 26 25 23 21
5 4 2 2 2 1 4 2 2 10 7 12 4 4 7 4 9 16 22 26 23 17 15 13 10 10 8 6 7 9 12 14 14 12 13 16 20 23 25 26 23 22 22 17
3 4 3 2 3 5 5 2 5 6 5 11 13 4 4 6 6 8 21 21 18 14 14 11 12 10 8 7 8 12 14 14 14 14 16 19 22 25 26 24 22 21 18 17
5 5 3 3 2 5 5 2 4 4 4 1 8 7 10 11 4 5 24 23 18 15 13 12 10 8 6 7 12 14 15 15 16 17 18 21 24 24 25 22 21 20 17 13
2 3 3 2 3 7 6 2 3 3 4 4 13 13 18 8 9 4 13 24 17 14 15 11 10 7 8 10 14 15 15 16 17 18 21 23 22 21 23 20 18 14 16 14
5 6 3 3 1 6 7 4 4 3 4 5 11 13 18 21 12 9 14 20 18 17 9 9 6 7 10 13 15 15 16 17 19 22 24 23 23 22 19 21 19 16 15 13
3 5 4 8 5 4 11 8 10 8 8 6 9 13 19 20 16 15 17 18 20 9 13 5 10 9 12 14 15 15 16 19 22 24 24 22 24 21 21 21 19 16 16 16
3 5 2 1 2 9 16 18 23 23 23 14 14 13 16 20 15 16 19 14 11 8 4 9 9 11 12 13 14 17 20 22 24 24 21 20 21 20 17 19 17 13 14 17
2 7 3 4 11 13 11 11 13 15 18 19 17 13 13 15 19 20 20 19 14 7 10 9 10 11 12 14 16 18 20 23 23 22 21 19 19 20 18 20 17 15 16 15
7 4 4 4 4 5 9 12 14 13 11 10 9 8 10 15 21 21 14 10 3 7 8 10 11 12 13 15 17 19 21 22 21 21 20 18 19 19 19 20 19 18 17 17

GFSCGP_850_spd_042.txt.gz
Wind_Speed
9 7 6 13 4 4 4 6 12 8 4 7 6 6 5 7 12 13 14 13 13 10 7 7 9 11 15 16 15 14 10 11 7 12 8 11 6 5 2 3 5 6 6 7
6 3 5 5 4 3 5 7 7 5 4 5 9 6 4 6 9 12 13 12 12 10 9 8 7 9 11 14 14 10 9 11 15 14 12 9 10 6 4 5 5 6 7 8
5 6 5 7 8 7 4 3 10 5 7 2 9 8 8 4 7 8 10 10 10 11 12 12 13 12 15 16 17 17 18 20 17 14 12 10 8 5 4 7 8 9 8 9
4 3 4 6 6 3 5 2 5 11 10 7 8 7 10 9 8 10 11 12 14 15 14 15 17 18 20 20 20 20 19 16 15 14 10 8 5 4 7 7 6 5 11 14
4 5 5 4 3 1 4 4 4 3 4 5 9 7 8 9 10 12 14 16 17 16 16 20 20 20 20 22 19 18 16 13 14 12 9 6 5 5 8 6 6 8 10 15
5 3 2 3 6 2 10 8 6 2 3 8 4 6 9 7 7 13 17 19 19 16 19 20 19 18 18 20 18 15 13 15 12 8 7 6 6 3 3 4 6 9 11 12
6 3 4 3 9 6 6 6 3 3 4 6 3 6 11 2 3 10 19 22 20 18 22 21 19 17 16 14 13 13 10 9 8 7 6 5 3 2 3 6 9 11 14 15
9 7 5 1 3 2 2 3 3 4 3 1 3 5 2 2 2 7 20 23 21 20 21 21 18 16 15 13 11 10 10 8 8 5 5 4 2 4 6 8 11 13 14 15
6 4 4 3 2 3 5 4 3 2 1 3 3 4 8 2 3 10 19 22 23 23 22 20 18 16 14 13 10 11 10 8 6 6 7 7 8 9 9 13 14 11 12 13
4 4 2 5 2 7 4 9 3 3 3 4 3 5 2 4 7 10 18 23 24 22 20 19 18 16 14 12 11 13 9 9 7 7 7 8 11 12 13 14 9 9 12 16
5 3 6 4 7 6 4 4 1 0 2 2 3 2 3 1 5 11 18 22 24 22 20 19 16 14 13 12 11 11 11 8 6 8 9 12 8 11 12 7 9 11 15 17
2 1 4 5 3 1 2 5 8 4 4 1 2 3 4 2 2 9 15 20 22 21 19 18 16 16 15 13 12 12 11 5 7 9 7 5 10 11 7 8 10 14 16 17
6 3 4 4 4 4 7 9 5 4 1 6 3 3 4 4 5 9 13 18 20 20 19 18 17 17 16 15 13 13 6 7 7 5 5 7 8 7 8 10 13 15 17 19
4 3 7 10 2 0 6 11 11 11 4 5 10 12 8 8 8 8 15 19 22 22 20 19 18 17 16 14 14 10 10 4 6 5 7 8 8 9 10 12 15 17 18 19
3 6 4 2 0 3 4 8 13 15 14 8 11 11 11 5 9 11 13 17 20 21 21 20 19 17 15 14 14 7 7 6 6 7 9 10 10 12 11 14 16 18 18 17
2 3 3 3 2 2 7 8 10 15 16 15 19 20 15 10 9 10 14 18 22 22 22 20 18 16 15 14 10 9 7 5 10 11 10 9 10 11 13 15 17 17 16 16
4 5 4 2 2 3 6 15 18 13 12 15 14 16 3 6 10 12 15 19 22 22 21 19 17 15 14 12 10 6 5 10 12 11 9 9 13 12 14 16 16 15 15 15
6 5 1 1 2 3 1 1 3 12 16 15 17 10 7 4 5 7 13 17 19 20 20 18 16 17 16 12 8 8 9 12 13 9 9 10 11 13 15 15 15 15 15 14
1 4 3 2 4 6 12 3 3 3 6 4 12 8 5 3 4 10 11 15 18 19 18 16 15 15 14 9 10 8 12 11 11 9 10 11 13 15 14 14 15 14 16 14
5 3 2 3 3 4 3 4 1 2 5 3 3 4 7 6 4 5 10 15 16 16 16 17 17 17 12 8 10 12 9 9 9 10 12 12 14 14 13 14 16 14 14 12
2 1 4 3 4 6 1 1 3 2 3 1 2 4 9 6 6 2 8 14 15 16 17 17 17 13 10 9 12 11 8 9 10 14 15 14 14 13 14 15 15 15 14 13
5 6 3 3 3 4 6 6 3 4 4 3 4 5 9 7 5 4 10 14 15 16 16 13 12 10 10 10 11 8 8 9 14 16 17 16 14 13 16 17 16 14 12 12
3 3 1 6 1 3 7 7 3 5 9 9 7 6 8 9 7 8 13 17 18 17 17 14 6 7 8 10 11 10 9 14 17 18 18 14 12 14 15 16 14 14 12 14
5 4 3 2 2 5 7 8 10 11 13 12 12 12 12 11 10 12 15 17 18 13 12 6 4 10 9 11 12 12 15 16 17 17 15 13 13 15 15 14 13 13 13 13
2 8 5 4 8 6 4 4 8 11 11 9 7 7 6 7 10 13 15 15 14 13 10 6 7 10 11 12 13 15 16 17 18 16 16 14 13 14 15 14 14 14 14 14
2 1 2 2 5 5 6 12 11 10 8 5 2 6 7 9 14 18 18 15 12 4 1 6 10 12 13 14 14 15 16 17 17 18 16 14 14 15 16 16 15 17 20 19

GFSCGP_850_spd_045.txt.gz
Wind_Speed
12 7 9 16 18 7 11 10 10 14 9 13 11 10 12 16 17 17 19 19 18 17 14 11 13 13 14 17 19 20 20 9 9 11 9 11 13 10 6 3 4 4 1 2
14 7 12 9 9 7 7 4 7 8 9 7 7 11 11 15 19 21 19 18 18 17 14 14 13 13 16 19 20 20 13 12 9 8 9 11 11 8 6 6 2 2 5 6
9 5 4 6 8 7 3 8 4 9 10 13 9 14 14 12 13 12 18 19 18 18 17 14 14 14 16 17 17 16 14 13 14 14 13 11 10 10 7 4 3 4 6 8
6 20 8 7 5 6 8 1 2 4 12 13 17 12 16 17 15 14 17 17 17 18 16 16 16 16 16 17 16 16 18 18 17 15 12 12 7 7 6 4 7 6 5 4
8 9 7 9 5 6 9 3 4 6 11 9 18 8 19 16 15 15 18 19 19 17 18 18 19 20 20 20 20 18 18 16 16 13 11 10 7 6 5 4 6 7 9 9
5 6 2 9 2 3 4 4 6 8 10 9 14 10 3 12 12 17 15 18 18 19 19 20 21 21 22 20 19 17 16 15 14 11 10 9 7 6 5 5 7 9 10 12
13 8 4 5 6 3 7 7 8 5 4 8 5 5 13 7 3 6 16 19 20 19 21 23 23 22 21 19 17 16 15 13 12 11 9 8 7 5 5 7 8 11 12 13
11 8 11 7 10 5 8 10 5 6 7 7 6 7 3 8 3 2 15 20 21 21 22 23 22 21 20 18 16 15 14 13 12 11 10 8 6 4 6 7 10 11 12 13
16 5 7 1 3 5 6 7 5 3 0 5 10 6 9 5 5 7 15 20 22 22 23 24 22 20 19 17 16 14 15 14 14 13 11 8 5 5 8 9 9 10 11 12
3 3 4 6 6 6 8 3 4 4 3 6 4 4 6 7 6 8 14 20 22 22 24 24 22 20 18 17 16 15 16 16 15 12 9 6 7 9 8 8 8 9 10 12
7 8 7 5 10 11 7 8 6 4 2 4 3 2 7 4 5 8 12 18 21 23 24 23 21 19 18 17 16 16 16 17 14 10 7 9 10 8 7 8 9 10 11 13
5 4 7 11 3 5 9 8 9 6 6 3 3 5 4 5 3 7 10 16 20 23 23 22 21 19 18 18 17 17 16 16 11 7 10 12 6 7 9 10 10 10 13 15
6 7 9 7 6 6 8 10 8 7 1 9 4 3 6 8 4 5 9 14 18 22 22 21 20 20 20 19 18 18 17 13 8 12 5 9 8 10 10 10 11 12 14 16
1 12 10 10 8 5 12 12 12 12 8 10 11 13 5 9 7 7 10 12 17 21 21 21 21 21 20 19 19 18 15 10 5 4 10 9 10 11 11 11 11 13 15 17
5 9 13 14 6 8 8 9 10 15 17 15 12 15 10 7 5 9 11 12 16 18 21 23 22 21 20 19 19 17 11 9 7 9 9 9 11 10 10 11 13 14 16 16
5 6 4 5 7 9 11 13 13 14 17 18 18 18 15 12 8 7 12 11 15 19 21 22 21 20 20 20 19 14 12 9 9 7 8 10 10 10 11 13 14 16 16 16
6 4 4 7 3 5 6 15 18 17 17 14 15 16 7 8 6 10 9 10 13 16 18 20 20 20 18 18 17 15 10 9 6 9 10 10 10 10 12 14 15 16 16 16
5 7 1 1 1 1 2 2 5 7 12 14 14 13 11 8 8 6 8 10 12 13 16 18 18 17 17 17 16 12 10 8 7 9 9 9 11 12 13 15 16 16 16 17
4 5 3 3 6 9 12 5 2 2 5 6 8 9 4 3 6 16 8 6 9 12 13 15 16 16 17 16 13 9 8 6 7 9 10 10 12 13 15 16 16 17 18 20
3 3 4 3 3 4 3 4 2 1 5 8 7 4 1 3 4 5 2 2 6 9 12 13 14 15 15 11 8 4 5 9 9 9 10 11 13 14 16 16 16 17 17 18
3 2 6 5 3 6 4 3 2 5 3 7 7 5 4 6 7 7 5 5 8 10 11 13 14 14 12 9 3 2 7 9 9 10 10 13 14 16 16 15 16 18 18 22
7 7 3 3 3 5 7 6 1 5 6 5 7 7 8 8 7 6 3 5 7 10 11 12 13 12 6 3 0 4 7 10 10 12 13 14 16 15 15 16 17 17 19 19
4 4 2 6 1 5 5 4 3 7 9 10 11 11 11 11 9 5 3 6 8 10 10 10 9 7 4 1 7 9 9 10 13 14 14 15 14 14 15 16 18 19 17 18
4 3 3 1 3 3 1 3 4 7 8 10 9 10 11 13 11 4 5 9 11 11 9 8 6 4 3 4 10 12 13 15 13 14 14 14 14 15 16 15 16 19 17 19
3 6 5 5 8 3 7 5 8 10 9 8 6 7 6 4 3 8 10 11 11 12 9 7 3 2 7 11 14 12 11 13 13 14 15 15 15 15 16 17 18 20 21 21
4 1 3 1 5 4 7 8 9 6 7 6 5 8 11 10 11 15 15 15 12 9 6 3 3 6 11 11 11 12 12 12 14 16 15 15 16 16 17 18 21 21 24 23

GFSCGP_850_spd_048.txt.gz
Wind_Speed
7 6 9 12 14 11 6 7 13 13 10 12 11 14 13 17 16 21 21 20 21 22 17 17 16 17 18 20 22 22 21 18 15 12 12 11 12 10 12 11 7 1 1 4
9 10 6 9 15 18 13 6 9 11 10 10 11 10 13 14 17 19 20 22 22 22 20 16 17 18 14 22 24 23 20 14 11 7 7 8 12 10 6 5 5 8 6 3
7 8 24 19 22 17 11 8 9 11 7 9 7 11 15 14 16 19 21 24 23 23 22 18 18 17 18 23 24 18 17 14 15 14 12 12 12 14 14 10 6 8 4 5
5 17 21 22 5 7 5 9 10 15 11 9 7 6 2 11 14 17 23 22 26 26 22 21 18 20 23 23 21 16 18 14 16 16 16 17 17 11 9 7 8 9 9 9
15 11 20 18 4 3 4 15 17 11 9 4 4 7 17 11 16 14 13 17 20 22 21 22 22 23 20 19 20 19 20 19 19 18 16 15 10 16 15 12 11 8 9 12
13 17 26 2 3 0 14 13 12 9 9 6 15 12 9 13 16 9 17 19 16 16 16 16 18 14 20 19 18 24 21 21 19 18 15 14 15 11 9 10 9 7 8 7
0 12 4 8 8 5 7 8 3 5 6 5 9 7 2 19 14 20 18 18 19 18 18 19 21 23 24 24 23 23 22 20 18 16 15 15 13 13 11 10 7 9 12 14
9 10 11 9 5 4 17 1 2 3 3 6 13 4 5 12 8 12 18 17 18 18 20 23 24 25 25 24 23 22 21 19 18 17 15 15 13 9 10 9 13 15 14 14
1 2 10 16 3 11 11 4 3 6 3 2 5 11 7 7 8 6 15 18 20 20 22 24 25 26 25 23 21 20 19 19 20 17 17 16 15 14 14 13 14 13 11 11
6 6 16 21 5 5 6 6 3 2 2 4 8 11 10 7 8 6 12 17 21 20 22 24 25 24 24 23 20 19 17 23 20 19 18 15 12 12 9 8 10 10 13 12
7 13 11 8 8 8 5 7 6 8 4 1 4 4 6 7 8 7 8 17 21 22 23 24 25 26 22 21 21 23 19 19 20 20 17 18 17 8 9 9 9 11 11 13
12 5 4 10 2 5 10 11 8 3 6 3 0 5 4 6 6 7 8 15 20 23 23 25 25 25 24 20 20 18 18 19 19 18 20 14 16 5 5 9 12 12 12 13
4 4 5 9 7 8 8 12 9 8 2 5 3 3 6 6 4 4 5 10 15 19 22 24 24 23 23 19 18 17 21 17 19 20 12 7 3 7 9 12 13 14 13 14
5 5 9 6 11 4 6 10 11 10 3 4 9 13 7 11 10 9 11 6 9 18 20 23 24 21 17 18 18 18 18 21 21 12 4 7 10 10 9 13 14 14 15 17
3 8 12 14 14 12 8 13 7 10 10 10 11 15 12 9 5 4 6 9 10 12 16 18 16 16 16 17 18 18 19 18 14 8 7 8 8 11 15 13 12 15 17 17
5 6 5 8 10 13 10 14 15 14 15 15 14 14 11 10 11 11 9 9 8 9 10 12 13 14 16 18 19 18 14 8 8 9 9 9 12 11 10 11 16 17 15 18
7 3 2 2 6 7 5 10 15 16 15 11 12 10 8 9 5 9 4 7 3 8 9 10 14 15 16 17 18 16 12 10 11 7 6 7 10 9 10 15 15 17 19 19
6 5 2 1 1 1 9 3 5 5 8 9 10 10 11 14 12 8 6 7 7 3 7 6 8 10 12 13 13 12 12 12 8 5 4 8 8 11 18 15 18 19 19 18
4 5 2 2 4 7 12 2 2 1 3 11 9 9 10 11 9 17 7 6 7 7 4 4 7 10 11 11 12 14 10 5 3 5 9 7 13 14 14 16 18 20 18 20
2 5 3 3 3 5 1 6 3 2 2 8 9 7 7 5 3 7 9 5 6 3 2 5 9 11 12 11 9 8 6 4 3 7 7 14 14 14 15 17 20 20 19 20
2 1 4 3 2 5 3 6 1 3 3 7 8 10 10 7 5 7 10 5 4 3 6 9 11 13 13 12 10 6 1 5 2 8 14 16 15 15 18 19 20 19 19 22
7 6 3 2 2 6 7 6 2 5 6 9 8 9 7 6 9 7 8 3 5 8 13 13 13 14 11 8 8 4 1 5 11 13 18 17 16 16 17 18 20 19 20 25
4 5 4 7 4 6 7 10 7 6 7 9 8 9 9 9 9 5 2 6 9 12 12 14 13 13 10 5 8 4 4 8 14 19 19 17 17 17 16 17 19 20 23 26
5 5 2 2 4 9 8 13 10 8 7 7 7 7 8 8 7 4 8 12 14 13 13 10 7 6 6 2 8 7 9 15 16 16 16 16 17 18 20 20 16 18 21 25
2 8 5 5 3 13 13 11 7 6 6 6 7 10 9 4 10 14 16 16 14 10 8 5 2 2 4 6 8 10 11 15 18 15 18 19 19 20 21 20 20 21 23 24
5 0 3 1 6 7 11 8 8 9 10 10 11 12 15 14 16 15 15 12 9 2 1 4 5 7 8 10 12 13 13 14 17 20 21 22 22 24 24 21 25 25 25 21

GFSCGP_850_spd_051.txt.gz
Wind_Speed
6 3 2 3 2 8 8 13 10 7 9 10 15 10 11 20 24 25 30 28 28 27 28 27 27 27 31 28 31 25 25 26 24 23 19 18 15 14 13 10 9 7 5 1
3 3 4 11 10 11 9 12 1 8 5 7 6 12 12 10 18 28 29 30 31 27 27 28 24 28 32 33 32 26 23 21 20 18 16 14 13 11 10 11 10 7 5 3
4 3 4 8 13 15 7 4 2 3 4 2 3 2 2 7 15 28 34 33 31 32 32 30 27 21 30 35 31 24 22 16 17 16 9 12 15 16 16 14 8 7 7 5
3 6 3 9 16 19 8 13 2 0 3 2 4 2 1 4 9 8 22 29 34 33 30 29 28 25 21 28 26 19 16 14 20 17 18 18 21 18 10 4 7 8 7 8
3 5 0 6 14 11 7 11 6 5 2 4 2 4 6 5 5 5 13 31 37 38 38 30 30 27 24 23 18 17 15 21 18 23 19 18 12 11 14 15 14 10 6 10
8 4 5 5 7 8 3 2 4 5 3 2 10 5 4 7 17 4 9 10 28 35 37 33 31 29 27 26 25 21 24 21 21 23 19 17 15 18 18 15 15 10 4 6
3 8 3 5 10 6 6 4 3 5 6 4 4 5 8 8 9 17 20 28 11 24 29 33 32 28 21 18 25 26 23 23 28 24 19 18 18 20 19 15 13 13 11 14
6 3 2 5 4 4 5 3 4 4 1 5 5 4 5 3 13 28 32 26 17 25 25 25 24 23 20 23 20 23 29 29 27 26 22 21 19 19 17 16 15 14 16 15
4 3 4 7 5 4 1 4 6 5 2 3 4 3 4 6 6 12 18 22 23 22 21 22 23 23 26 27 27 27 24 25 24 22 22 24 23 23 19 19 18 19 16 16
2 4 3 7 6 9 5 4 2 3 2 3 4 3 3 6 5 6 10 22 23 22 22 23 27 27 28 28 28 26 21 21 22 24 22 23 24 21 18 16 15 16 14 17
6 4 2 6 2 11 2 3 2 4 5 5 1 4 2 8 8 9 13 29 29 26 26 26 29 29 30 28 28 24 25 19 26 27 26 27 25 22 19 15 13 9 14 20
8 5 4 14 20 14 6 6 6 5 5 3 5 5 2 7 9 15 13 29 32 31 29 28 28 30 30 31 31 27 26 24 28 28 26 20 17 14 16 4 9 15 18 16
2 2 3 1 4 3 3 5 4 3 4 4 5 5 3 7 6 8 7 17 27 31 30 29 29 30 33 34 33 31 28 23 26 22 19 14 9 5 5 13 11 13 16 20
6 0 5 6 6 4 4 5 6 4 4 4 6 4 9 8 8 9 11 5 20 29 30 30 31 33 38 30 27 27 24 23 24 21 13 3 5 8 11 9 12 20 20 22
4 4 1 4 5 5 4 1 5 4 5 6 8 7 10 2 7 2 14 9 7 8 25 28 31 29 30 25 21 21 24 24 20 16 10 7 9 13 11 13 18 18 19 22
1 3 3 1 5 7 4 6 6 6 6 5 3 4 4 12 14 14 12 9 11 11 10 6 22 25 25 24 23 23 25 21 15 13 11 14 12 11 13 16 14 19 23 19
6 4 3 2 4 6 6 7 5 6 4 3 3 5 9 9 12 14 16 17 9 7 9 6 12 16 20 23 23 25 21 18 16 17 15 9 10 7 11 13 16 21 20 23
6 5 3 3 3 1 8 2 5 5 5 8 8 9 12 14 24 26 20 18 19 13 9 6 4 11 17 19 21 19 15 16 17 13 6 3 3 7 10 16 19 23 23 22
4 5 2 4 4 5 8 2 3 4 4 5 7 7 11 12 23 22 17 15 13 11 5 5 10 16 20 19 19 20 19 13 7 7 4 3 2 14 15 18 20 21 21 25
6 5 5 2 4 6 6 4 5 3 1 6 13 10 13 11 4 3 14 9 9 7 10 18 20 21 22 21 20 20 16 14 9 5 2 12 19 11 18 18 18 21 24 26
3 3 5 2 2 7 5 8 2 6 6 8 13 13 14 5 6 6 7 11 13 19 19 20 19 20 19 15 14 13 9 7 6 12 19 16 14 15 17 21 23 22 24 26
7 6 3 3 2 6 10 5 6 6 14 14 15 14 11 9 5 6 15 19 17 20 19 17 18 18 15 11 9 9 6 13 10 13 17 16 18 20 20 21 20 20 22 24
2 7 6 7 6 5 20 24 20 20 17 13 9 7 6 7 7 19 22 20 18 16 16 13 11 9 6 5 10 12 3 5 7 11 17 19 18 18 18 19 21 23 23 24
2 6 4 5 1 13 23 21 17 13 15 12 6 4 3 3 11 22 21 20 18 14 10 6 4 6 7 4 2 4 7 10 13 16 19 18 18 19 20 21 22 23 22 25
5 5 6 5 11 21 17 15 14 13 12 9 7 8 10 12 20 20 20 15 12 10 7 5 6 8 8 9 10 10 12 14 17 18 20 22 23 24 26 27 27 27 24 25
2 4 4 4 8 14 12 15 14 15 15 11 8 12 13 13 17 15 16 13 9 8 10 10 10 9 8 8 10 13 14 15 18 22 24 26 29 31 31 30 30 24 24 27

GFSCGP_850_spd_054.txt.gz
Wind_Speed
1 4 2 3 3 7 8 12 6 6 11 7 12 6 7 16 23 24 29 36 39 42 39 41 41 36 32 31 29 30 30 29 26 26 24 24 22 17 14 12 11 13 11 9
4 4 7 4 3 4 8 9 7 9 4 15 5 11 5 10 18 30 33 36 37 36 36 41 41 39 35 31 29 26 26 24 25 25 24 22 19 16 13 13 15 13 10 7
6 7 3 3 4 6 5 5 6 7 4 6 5 2 5 3 10 19 25 40 43 44 43 43 42 40 37 35 30 25 25 24 25 25 24 21 18 15 18 18 16 13 11 8
5 0 4 3 1 2 12 9 12 5 0 1 2 3 2 8 12 11 24 27 36 40 43 41 44 42 40 36 31 26 25 23 22 26 25 22 22 24 21 16 14 13 12 9
5 5 5 3 6 8 11 3 2 7 3 3 3 3 6 4 7 9 22 33 42 44 47 43 43 39 40 36 33 30 27 24 21 26 25 18 18 17 15 17 17 15 11 8
3 3 5 5 2 4 4 4 6 6 4 2 4 5 5 6 11 15 16 35 36 40 42 41 40 35 31 28 27 30 25 21 22 28 23 19 17 18 20 22 21 17 14 11
3 3 1 2 6 6 3 5 2 3 3 5 6 4 9 4 7 8 10 16 30 37 43 40 38 34 32 32 34 27 22 22 26 24 23 21 18 19 20 22 23 21 20 19
5 4 2 2 3 2 4 3 5 3 3 4 4 4 6 7 12 13 18 18 13 31 40 41 38 33 32 27 28 23 23 27 24 25 23 23 24 22 21 20 22 22 18 12
4 3 5 4 4 6 3 2 6 5 1 3 3 4 6 6 7 9 7 11 15 24 37 39 37 34 26 24 24 26 26 25 24 25 26 27 21 21 19 20 18 17 8 7
7 1 3 5 2 5 6 5 2 3 2 3 4 4 5 2 2 1 4 13 17 25 29 30 30 27 24 24 27 25 22 24 28 31 26 25 23 22 23 25 25 20 16 15
6 4 5 2 5 8 1 2 1 4 5 4 1 5 5 8 8 10 11 18 24 28 28 27 26 25 25 26 25 23 26 26 30 28 28 28 25 26 24 19 12 11 8 15
7 5 4 9 2 4 4 5 5 5 4 1 4 5 4 9 10 14 18 23 31 30 28 27 27 28 30 30 29 28 32 33 33 33 34 33 29 25 24 22 14 15 11 9
8 1 2 7 6 4 3 5 5 4 4 6 5 6 3 3 5 16 15 22 31 34 33 33 34 34 36 37 34 37 37 35 34 35 34 30 25 22 17 16 12 10 8 9
8 5 7 8 7 4 3 4 4 6 3 4 6 6 6 8 8 11 13 12 25 34 36 36 36 38 39 40 41 39 32 32 29 31 26 24 21 20 18 7 3 6 9 17
4 5 4 5 3 3 1 0 1 4 4 5 7 6 9 4 8 16 13 3 6 24 30 33 34 34 36 35 32 32 31 29 30 28 26 22 21 14 12 12 13 10 13 12
2 3 2 3 3 3 3 3 4 5 4 4 4 5 6 6 13 15 11 16 15 9 6 23 29 28 29 32 32 31 28 27 27 26 25 21 15 16 13 11 10 6 14 25
6 6 3 4 3 3 5 6 6 5 3 5 5 4 2 7 11 13 15 14 13 10 8 7 8 20 24 29 31 28 28 28 26 23 18 15 15 13 5 3 8 21 21 19
6 6 3 3 3 2 7 5 3 9 4 6 9 5 11 16 22 19 16 17 16 13 12 13 16 23 25 26 27 29 27 24 21 18 15 12 10 5 4 8 14 17 19 19
6 5 3 4 3 4 5 4 6 5 1 4 7 7 16 24 24 17 13 12 11 8 10 11 16 20 23 23 27 27 25 21 18 15 13 10 1 16 8 12 14 17 19 19
8 6 5 3 4 7 7 3 8 6 1 3 9 6 9 6 3 1 14 11 14 12 13 15 20 21 25 26 26 25 22 19 16 12 2 9 16 9 8 13 16 18 20 23
4 3 5 2 3 7 7 7 5 6 6 10 15 11 6 4 8 18 16 15 17 20 23 24 25 25 24 22 20 17 13 8 0 11 19 7 11 13 15 18 20 21 23 23
7 7 3 3 3 6 6 4 7 6 15 19 16 14 14 19 22 21 18 20 21 21 23 21 22 21 17 12 6 5 1 9 18 11 9 12 13 18 19 18 20 20 21 24
1 7 6 8 5 3 3 10 22 24 23 15 15 12 14 20 22 22 22 22 22 21 20 16 14 13 10 4 1 3 6 3 5 7 11 14 16 17 17 19 21 23 24 26
1 5 4 6 2 3 19 21 22 19 17 15 12 9 7 19 22 23 23 23 21 18 16 12 8 6 6 5 4 4 6 8 11 14 15 16 18 20 20 22 25 28 29 31
6 8 7 4 3 12 11 18 22 20 16 13 11 9 14 18 23 24 24 21 18 14 12 12 12 10 8 6 8 10 10 11 13 16 18 21 23 26 29 31 32 31 30 29
5 7 5 5 20 8 10 18 21 19 16 14 12 17 17 18 25 23 21 16 15 15 12 10 9 7 5 4 5 6 9 12 15 18 21 24 27 29 30 31 34 33 33 33

GFSCGP_850_spd_057.txt.gz
Wind_Speed
1 3 4 7 6 3 3 4 7 8 12 9 9 5 5 17 19 15 22 27 33 33 31 31 30 30 29 32 34 32 30 29 28 27 28 26 25 23 19 14 14 14 14 13
4 4 7 4 2 4 2 2 7 9 6 8 5 9 5 8 13 28 29 30 35 35 34 36 34 34 34 34 33 33 32 31 31 31 29 28 24 21 16 15 13 13 14 12
6 5 1 3 3 3 3 4 5 7 6 3 3 4 5 5 9 22 28 38 38 40 39 39 41 39 37 39 35 32 33 34 35 31 29 26 24 20 19 19 17 16 15 13
5 3 5 2 5 4 5 6 4 2 2 3 3 4 4 7 11 12 22 30 37 43 43 42 44 42 44 45 38 32 33 35 34 30 29 29 28 25 25 21 18 17 16 13
6 6 5 5 7 5 6 3 2 2 3 1 3 3 5 5 8 14 22 28 40 46 47 47 46 43 44 44 41 36 35 34 31 28 29 30 28 24 19 19 19 18 15 14
4 2 4 6 4 3 3 4 5 3 2 2 3 3 5 5 15 15 21 30 40 46 44 46 46 45 45 43 42 39 32 31 30 29 27 30 25 19 19 20 21 18 16 16
1 3 2 2 2 3 5 5 3 4 4 5 4 2 8 5 7 8 15 31 39 45 46 46 46 46 46 44 39 40 35 32 29 27 27 27 21 17 18 18 20 21 22 23
5 5 4 1 3 4 2 6 5 4 2 4 3 4 6 5 9 5 17 30 37 39 44 45 46 45 44 40 40 38 29 32 28 28 26 24 22 19 19 21 22 26 27 27
5 4 2 3 2 3 1 2 3 6 3 3 3 6 9 7 3 4 8 17 20 32 39 44 42 43 39 37 35 24 22 24 25 25 25 25 23 25 28 27 25 28 29 27
7 1 3 1 2 5 4 4 3 2 2 3 4 4 5 6 7 0 5 14 19 24 31 38 40 37 37 32 28 24 24 23 25 26 25 26 27 30 29 29 33 32 27 16
5 5 2 2 5 6 2 3 3 4 4 4 1 5 6 7 7 7 4 10 16 20 24 26 29 34 34 30 27 24 24 25 28 27 28 29 31 33 32 32 31 30 27 26
7 6 5 10 2 3 4 7 5 4 4 1 4 6 4 9 8 9 13 9 11 17 18 20 24 28 30 29 28 28 28 30 30 32 32 33 33 34 32 30 28 21 17 17
8 1 2 7 5 3 5 5 4 5 4 6 5 6 3 7 8 17 17 18 16 22 25 27 29 29 28 29 32 32 34 36 34 36 37 34 32 31 26 24 19 20 15 7
13 4 7 6 8 3 3 3 5 5 3 4 6 6 6 8 7 7 18 20 17 24 29 31 32 33 33 33 32 33 38 37 37 38 37 34 33 27 24 20 17 10 6 3
5 6 5 4 3 4 3 4 6 6 5 6 6 7 8 6 8 12 15 9 10 16 24 30 31 31 31 33 34 35 33 33 33 33 31 27 26 23 20 15 12 8 5 7
2 3 3 3 2 2 4 6 4 4 3 6 5 6 4 1 6 12 6 8 6 4 6 15 23 27 29 32 32 33 29 29 28 28 26 24 19 13 11 12 9 3 7 16
5 6 4 5 2 2 6 8 8 6 5 5 6 8 3 4 8 10 12 11 10 9 7 4 7 16 21 24 28 29 27 28 26 24 21 17 13 14 11 7 6 16 15 13
7 5 3 3 3 1 7 3 6 5 1 5 3 5 6 10 14 14 12 13 13 10 7 5 5 9 14 19 23 26 26 24 23 21 18 17 14 13 12 8 23 14 14 19
3 5 3 5 4 4 5 4 7 6 3 2 6 7 14 17 15 12 10 8 8 7 5 5 8 11 15 19 21 22 22 22 22 20 19 15 9 5 15 21 13 14 18 19
5 6 5 3 5 7 8 4 7 5 3 6 9 9 13 4 3 3 4 6 6 7 7 9 10 13 14 16 18 21 22 20 17 13 10 5 12 21 10 10 14 17 20 21
3 3 5 2 2 7 7 6 9 6 7 17 22 21 15 4 5 13 12 10 9 9 11 11 13 14 16 19 18 18 16 13 7 6 14 20 9 11 13 16 19 19 21 23
8 7 4 3 3 6 7 5 8 7 12 22 18 16 15 15 18 19 16 14 15 15 18 19 21 22 19 15 10 10 4 6 9 12 8 8 11 14 16 17 18 19 22 25
2 6 6 8 6 1 5 6 8 24 30 20 21 19 19 23 21 19 19 19 20 22 21 19 17 17 14 8 4 3 1 4 3 5 8 10 12 13 16 18 21 24 25 29
3 4 4 4 3 0 4 12 25 23 26 21 20 20 21 23 23 22 22 24 23 20 18 16 13 10 8 6 5 3 2 2 5 7 10 12 15 19 22 24 27 30 32 33
5 8 6 2 1 6 6 15 23 23 22 22 19 18 19 22 25 26 27 25 22 19 15 11 9 11 10 6 3 0 3 6 9 12 16 19 22 26 30 31 32 33 35 33
9 7 6 6 19 8 14 22 22 23 22 18 17 20 21 22 28 28 26 22 20 18 16 14 11 9 7 3 1 3 7 11 15 18 21 24 27 29 32 35 40 38 39 39

GFSCGP_850_spd_060.txt.gz
Wind_Speed
1 4 3 7 5 8 5 4 2 4 6 3 8 7 8 18 14 18 23 23 27 30 31 27 22 26 27 28 26 26 24 24 25 25 25 25 24 22 19 17 15 14 13 15
4 3 4 3 2 4 2 2 4 6 2 5 5 7 4 12 18 25 29 29 29 27 28 32 30 29 33 30 27 26 25 25 27 26 26 24 22 22 19 18 17 16 16 16
5 5 4 5 4 3 3 4 3 5 3 2 1 5 4 7 15 22 27 31 31 32 30 31 33 33 34 32 30 28 27 26 28 27 27 25 25 24 23 22 21 19 18 16
4 3 4 4 5 6 5 5 3 4 0 1 0 3 5 5 8 9 23 30 34 34 33 33 34 36 37 34 31 30 31 31 32 32 31 30 30 30 28 24 19 19 20 18
6 4 4 4 6 5 8 4 5 3 1 3 2 3 7 3 6 12 17 29 38 38 38 38 39 40 39 36 33 32 33 33 35 34 33 33 33 29 22 18 20 21 21 19
4 2 5 6 3 5 0 3 4 4 3 1 2 4 5 5 8 6 7 26 37 39 41 41 40 39 39 38 35 35 37 36 36 35 37 36 35 26 24 22 22 24 23 20
2 3 2 3 1 1 3 5 3 4 3 5 2 1 9 1 5 9 12 30 41 41 42 43 43 42 40 40 35 36 36 39 38 36 39 39 30 27 25 21 22 24 23 23
6 4 6 3 4 4 1 5 4 2 2 4 5 4 5 4 8 9 14 24 36 38 42 43 45 45 44 40 38 39 38 34 38 40 38 31 27 23 19 19 20 23 24 25
5 5 2 2 2 3 2 2 3 6 2 2 4 7 9 4 4 6 5 7 20 31 40 44 44 44 44 42 40 40 40 36 34 34 28 28 28 24 23 22 24 24 26 30
8 0 1 2 3 1 1 6 3 3 1 4 4 5 5 8 6 6 8 7 5 14 24 33 40 42 42 40 38 35 37 30 25 29 30 29 23 24 25 27 29 29 30 32
5 5 3 1 5 7 3 1 4 4 4 4 1 5 7 7 5 3 4 6 8 11 16 22 29 33 36 36 34 31 30 28 25 22 24 24 26 28 30 30 31 31 30 31
6 5 5 9 1 4 5 8 6 4 4 1 3 6 5 9 6 5 7 6 5 7 10 15 18 22 28 29 27 29 28 24 23 24 25 28 30 32 32 33 32 28 27 22
8 1 1 7 5 3 3 4 4 5 3 7 5 6 3 7 8 11 13 11 10 10 12 14 16 17 19 23 28 30 22 23 26 27 30 32 32 33 33 29 27 21 20 21
11 4 7 9 8 5 4 6 6 6 4 4 6 6 9 8 7 11 12 15 14 14 17 18 19 22 23 26 27 23 24 24 25 29 32 30 31 30 25 20 16 17 12 10
6 7 6 5 4 6 6 5 8 7 6 7 7 8 9 6 6 10 13 14 13 16 17 22 23 22 21 23 22 21 23 25 28 29 28 28 27 23 15 18 14 12 10 5
2 5 4 4 1 0 3 7 8 5 3 5 5 6 7 2 3 5 4 3 3 3 4 9 15 17 20 22 21 20 19 19 18 21 24 23 21 16 15 13 11 7 7 11
8 7 4 4 2 4 5 8 9 7 6 8 8 11 6 3 3 3 6 8 10 11 10 6 2 4 9 12 13 15 16 17 18 18 19 18 14 12 9 9 10 11 11 22
6 6 3 4 2 1 7 1 4 8 5 5 4 2 4 9 10 9 8 9 11 10 9 8 6 4 2 5 9 12 15 17 16 16 14 14 13 13 14 7 7 18 26 15
2 5 3 5 4 4 4 4 7 8 9 7 6 7 13 18 11 8 8 9 10 9 9 7 5 2 3 6 9 11 12 13 16 19 18 16 13 8 10 16 21 12 13 16
4 6 4 3 5 8 8 4 7 4 6 7 11 10 12 13 4 3 7 9 10 9 7 6 5 5 5 8 8 11 15 19 19 17 12 7 10 17 16 8 11 14 18 20
3 3 5 2 3 7 7 3 10 5 8 13 25 26 22 5 4 15 13 12 10 9 9 9 10 10 11 12 12 17 19 17 12 5 8 13 8 6 9 12 15 17 18 21
7 7 3 3 2 6 11 5 9 8 4 21 24 27 22 11 14 18 15 13 12 12 14 14 16 19 19 16 13 16 11 4 6 5 2 2 5 7 10 12 14 17 20 24
3 5 6 9 7 3 20 5 16 7 9 21 27 25 22 19 20 20 18 16 16 18 20 20 20 23 19 15 10 6 3 2 1 2 4 6 8 11 14 18 21 24 27 30
4 5 3 2 4 5 11 15 11 15 18 24 25 25 23 22 23 22 21 23 23 23 22 19 18 17 13 8 4 3 2 2 3 5 7 10 13 17 20 23 26 29 30 32
5 7 6 3 5 8 12 14 15 16 18 22 22 23 22 20 23 23 25 26 25 23 20 17 14 9 7 5 4 3 1 3 6 8 12 16 19 22 26 28 30 32 31 30
7 8 6 8 15 11 10 21 22 23 24 23 24 23 21 21 24 26 27 26 24 21 18 13 9 6 9 6 2 1 4 7 11 14 17 21 24 27 29 32 34 32 32 31

GFSCGP_850_spd_063.txt.gz
Wind_Speed
1 2 4 7 5 2 2 3 3 3 5 4 5 9 10 15 14 12 15 18 20 25 22 24 22 23 28 29 27 26 23 20 21 23 25 26 26 24 22 20 19 13 12 12
1 5 4 2 4 2 2 4 4 2 3 3 6 9 5 16 20 21 19 19 21 21 24 29 26 24 27 32 31 27 25 23 23 23 24 25 23 24 21 21 19 15 16 16
5 2 5 5 3 4 4 4 3 5 3 2 4 4 3 7 12 13 19 20 19 23 27 31 33 30 28 31 32 29 26 26 26 26 26 26 25 25 25 25 18 19 18 17
4 2 4 3 4 6 5 6 6 3 1 1 2 3 3 5 10 13 23 22 26 27 27 28 34 36 35 34 34 32 29 28 28 28 29 28 29 29 28 23 18 19 18 19
5 4 4 3 5 6 5 2 2 1 3 2 1 1 4 0 8 17 24 29 30 34 33 32 34 34 34 32 32 30 28 27 28 28 28 29 30 30 27 23 21 22 21 23
3 1 3 6 3 4 5 4 5 3 1 1 0 2 4 4 4 4 14 25 32 34 36 34 33 33 34 32 31 30 28 28 27 27 28 30 32 32 30 25 25 25 26 27
0 2 2 3 3 2 3 4 1 1 1 2 3 1 8 4 7 6 10 15 29 37 37 36 35 37 37 35 34 33 33 32 32 32 29 31 34 34 33 27 28 27 29 30
6 3 7 4 4 5 5 4 4 3 2 1 2 4 3 5 11 12 12 13 13 25 35 37 36 36 37 36 35 32 35 35 31 24 29 31 35 35 36 29 28 27 29 28
6 5 1 4 4 3 4 3 2 6 2 1 2 4 8 2 6 6 9 10 7 14 22 32 36 37 38 39 39 36 37 35 34 32 26 33 33 36 35 32 30 27 28 31
7 2 2 1 2 4 2 8 3 1 3 3 3 3 3 6 6 4 4 6 6 5 10 18 25 31 35 37 35 36 37 34 36 34 31 32 30 31 34 31 30 29 30 33
5 3 2 2 4 8 3 2 3 3 2 3 2 4 6 5 2 5 4 3 3 4 4 8 13 18 24 29 30 30 32 30 31 28 33 29 25 28 27 30 32 31 33 32
7 4 4 6 1 2 2 6 6 3 4 1 1 6 5 8 5 7 12 8 4 3 3 4 6 9 13 16 18 20 22 24 23 24 26 24 21 23 27 30 29 30 28 28
8 1 3 1 1 2 2 4 4 5 3 7 5 5 2 4 6 7 11 10 9 6 7 9 10 10 12 12 14 17 18 17 17 19 19 22 24 26 28 27 25 20 17 21
15 4 6 9 8 5 4 6 7 6 4 5 7 10 8 8 5 11 10 10 10 11 9 10 13 13 14 15 16 15 15 16 18 20 20 22 23 23 19 18 12 5 19 18
5 7 6 5 5 5 6 5 12 11 10 8 11 11 10 7 5 6 9 9 11 10 11 10 12 11 12 12 13 15 17 19 19 17 16 14 14 12 12 15 10 15 12 11
2 4 5 4 3 6 5 6 8 9 5 9 8 8 10 6 5 4 4 1 1 2 1 4 5 7 8 8 7 6 7 8 8 9 9 10 10 13 15 11 11 12 11 4
5 6 4 5 1 5 4 7 9 5 6 6 9 10 3 5 4 3 2 7 9 11 12 11 11 8 5 4 4 4 5 5 6 6 9 12 14 13 11 11 9 6 2 9
5 6 1 3 1 5 4 2 4 10 7 9 6 5 5 3 6 5 7 10 12 12 14 14 13 11 9 7 7 7 8 8 8 11 14 14 13 13 12 8 5 11 13 14
3 5 3 4 5 3 3 5 7 7 13 8 12 8 5 14 10 3 8 11 13 13 14 13 12 10 10 9 10 10 12 11 13 16 16 16 12 8 3 11 13 10 8 11
4 4 3 3 5 9 8 5 9 4 10 8 13 10 14 16 7 5 13 13 14 14 14 13 12 13 12 14 13 13 15 17 18 17 15 10 5 8 10 4 5 8 12 14
3 2 5 3 4 5 6 5 13 6 9 8 19 17 23 9 3 21 20 16 15 15 15 15 15 15 15 16 16 20 22 19 15 10 6 6 4 3 4 6 8 11 14 17
6 8 4 3 2 8 11 7 9 9 7 9 20 24 23 13 19 25 21 20 18 18 18 17 20 21 21 20 18 22 17 13 7 4 2 2 3 4 6 9 12 15 18 22
4 5 5 8 6 2 25 7 21 8 7 9 20 27 32 23 24 25 25 22 21 20 22 23 24 27 25 20 15 14 9 3 2 2 1 2 5 7 10 13 16 19 21 24
4 4 3 2 4 6 13 22 12 14 15 12 19 31 34 27 27 26 25 24 25 26 26 25 25 24 22 15 9 4 5 4 2 2 3 4 7 11 13 16 18 19 21 22
3 8 6 3 5 6 16 20 24 19 15 15 19 30 32 27 29 28 28 29 28 28 26 24 21 19 16 10 7 8 6 3 2 3 6 8 11 14 16 18 19 19 19 19
6 6 5 6 13 11 13 20 26 23 21 22 25 27 26 28 30 30 31 31 31 29 27 23 18 14 13 11 9 6 4 1 3 6 9 12 15 17 18 19 19 20 19 20

GFSCGP_850_spd_066.txt.gz
Wind_Speed
9 8 11 9 11 7 7 5 5 6 2 7 6 10 2 9 12 13 13 16 18 19 18 20 21 25 27 24 23 21 19 16 15 17 17 18 19 19 20 23 22 20 21 20
7 11 6 2 6 7 8 7 7 3 1 8 7 7 4 10 12 13 16 17 19 20 21 22 23 24 25 26 26 23 21 18 17 17 18 17 19 18 19 23 23 24 24 19
13 2 3 8 8 9 10 9 5 7 9 4 7 7 6 7 11 12 14 15 17 20 23 25 26 26 25 27 27 25 22 20 20 18 17 16 16 16 19 25 26 25 21 20
12 7 7 8 10 9 9 4 10 8 6 2 2 2 4 7 10 13 17 19 20 20 21 24 28 29 28 27 26 27 23 22 22 23 19 20 19 18 18 23 23 23 22 22
11 10 11 11 13 10 4 1 5 6 8 5 6 7 7 5 8 13 18 22 23 24 25 27 29 29 28 25 26 26 26 24 23 24 25 23 22 19 19 22 23 24 24 25
11 3 5 2 4 10 7 5 3 3 4 6 2 5 2 1 4 2 3 19 25 26 27 28 26 25 27 27 27 27 27 26 26 28 29 28 24 22 26 27 26 26 26 29
15 13 5 6 8 6 9 7 5 5 5 3 4 5 7 5 2 7 8 7 12 26 28 28 27 27 28 29 29 30 29 29 28 30 28 27 25 24 27 28 30 28 27 32
16 15 14 11 10 7 14 10 4 6 5 4 3 5 2 1 5 7 7 9 9 15 26 29 29 29 29 30 30 32 32 31 31 29 28 26 22 16 28 32 34 30 29 30
16 15 5 7 4 9 6 8 1 1 2 2 4 5 11 3 4 1 3 3 2 7 16 22 26 27 28 28 31 35 33 28 28 30 27 24 26 26 32 31 33 29 30 29
7 13 8 8 6 3 6 10 5 4 4 6 5 5 5 1 5 1 2 6 4 1 5 11 17 23 24 24 24 26 28 26 24 27 30 30 31 24 26 29 30 30 29 29
14 9 7 7 11 12 6 8 4 2 3 4 3 4 2 4 2 2 1 2 3 2 1 5 8 12 15 18 19 20 23 22 21 21 25 27 28 28 24 27 26 31 29 29
18 9 9 13 4 5 9 12 14 7 8 4 4 8 9 10 5 6 6 7 5 3 2 3 5 7 10 13 14 15 15 17 17 17 17 20 20 23 21 17 19 26 30 30
16 10 10 11 7 5 8 11 11 7 2 11 8 7 3 5 7 10 11 6 8 7 6 6 6 7 8 10 11 11 11 13 15 18 19 19 19 19 21 21 23 24 23 3
24 14 18 14 12 10 14 13 14 14 9 11 12 16 12 13 13 12 10 7 7 7 8 8 9 9 9 10 11 12 11 13 15 16 16 16 17 15 14 14 13 11 9 9
13 18 17 17 15 13 16 16 17 18 17 16 13 15 13 14 13 13 6 5 5 6 8 9 10 10 10 10 10 11 12 13 13 12 9 7 7 7 8 9 11 12 9 14
9 13 12 13 11 13 15 17 17 18 16 12 17 17 13 17 8 8 6 4 2 2 3 6 9 10 10 10 10 10 10 9 8 9 8 8 8 9 11 13 14 13 15 11
6 10 7 13 5 5 7 15 15 14 12 14 15 15 13 11 13 12 7 4 4 5 7 9 11 12 12 12 11 12 12 11 10 11 11 11 12 13 13 13 12 8 3 7
6 11 6 6 4 7 13 2 12 17 16 16 15 14 14 13 5 6 6 7 10 10 10 11 12 14 14 15 15 15 15 16 15 15 15 15 15 15 14 8 3 3 7 9
10 7 5 5 10 11 8 5 8 11 16 17 17 18 15 8 7 6 8 9 11 12 13 14 15 16 16 17 17 18 18 16 16 16 16 16 14 10 6 1 6 6 3 4
6 5 6 4 7 8 6 13 13 6 13 12 14 14 8 13 7 5 16 14 13 13 13 15 16 17 18 18 17 18 19 19 19 19 17 13 9 3 2 3 3 3 4 6
4 3 10 8 5 4 3 8 14 9 15 5 11 11 15 12 2 18 20 16 14 14 16 17 17 17 18 19 20 21 20 19 17 15 12 8 4 5 3 2 3 4 6 10
5 7 4 4 5 9 12 11 10 12 4 8 11 13 19 13 14 20 21 20 18 18 18 17 19 19 19 19 20 20 18 16 15 10 6 7 5 4 2 2 5 7 9 12
6 7 4 8 5 3 26 14 21 7 8 8 12 14 18 19 20 23 23 22 21 20 20 19 21 22 20 18 17 18 16 13 10 8 6 5 3 2 3 6 8 9 11 12
12 6 5 2 8 11 13 19 13 12 12 7 8 13 21 24 25 25 23 23 22 21 21 21 22 22 21 18 16 14 12 11 9 7 5 3 3 4 6 7 9 8 10 10
6 10 13 11 12 7 12 18 21 20 15 15 14 17 22 25 26 26 25 24 23 23 22 22 21 21 21 19 15 13 12 10 7 5 4 3 4 5 7 8 8 8 9 12
8 8 6 6 10 9 14 7 11 19 21 20 17 18 22 26 29 27 26 25 25 25 24 23 22 22 20 17 15 13 11 9 6 5 4 4 5 6 6 5 5 12 10 12

GFSCGP_850_spd_069.txt.gz
Wind_Speed
20 12 14 16 14 15 11 10 11 7 5 6 2 15 7 11 8 10 13 15 15 17 18 20 22 23 25 27 24 21 18 17 16 15 16 16 17 18 17 19 20 20 20 20
13 14 17 4 6 8 10 12 11 7 1 7 12 5 8 12 15 15 16 18 18 19 22 22 25 28 27 27 22 21 19 17 15 15 16 16 17 18 18 20 20 18 20 21
17 13 10 7 9 10 11 12 10 8 9 10 10 6 9 11 12 14 17 18 21 23 23 25 26 28 28 27 25 23 20 18 18 16 16 16 17 16 18 19 19 23 22 20
17 17 9 12 12 10 13 10 7 11 13 2 15 3 18 15 14 14 17 20 22 24 24 25 26 28 29 28 26 25 23 21 20 21 19 19 18 19 18 20 20 21 21 23
18 18 12 15 14 12 13 1 8 11 11 14 5 8 9 12 13 17 17 21 22 23 25 27 29 30 29 28 28 26 25 24 23 23 22 20 20 19 16 19 18 20 23 22
20 16 15 18 8 10 6 7 10 10 12 9 12 6 12 9 5 6 14 22 22 24 25 26 28 28 29 29 29 27 28 27 25 24 25 24 22 21 19 21 20 20 22 23
21 15 14 6 10 10 10 12 7 6 6 9 5 5 12 1 5 2 4 6 15 23 26 28 28 29 29 30 30 28 28 29 28 27 26 27 26 23 24 24 24 26 28 26
17 20 21 15 16 11 16 15 6 7 7 8 9 6 1 5 2 4 4 7 8 14 26 31 30 30 30 30 30 29 29 29 29 29 29 27 26 24 24 25 25 26 25 26
19 22 23 17 16 14 14 16 12 7 3 4 7 8 9 4 4 2 1 3 4 7 16 26 30 30 29 29 31 34 30 28 28 29 27 26 25 25 26 26 27 26 26 29
6 16 11 15 10 12 12 12 9 8 9 9 13 9 6 7 3 5 3 4 4 1 6 14 22 27 28 27 28 29 28 28 27 27 27 24 24 26 28 27 23 24 23 24
18 11 16 12 17 17 12 11 9 10 12 7 8 6 8 2 4 4 3 1 2 3 4 7 13 19 24 25 25 26 26 26 26 25 24 23 21 23 23 24 22 21 20 20
23 11 12 16 16 19 18 19 18 9 13 9 9 11 11 6 11 4 8 6 5 3 2 5 7 11 15 19 21 22 22 23 23 22 22 21 21 24 21 23 22 18 19 21
21 14 12 15 11 7 12 17 14 17 13 13 10 9 7 4 4 10 11 11 7 9 7 6 8 10 12 14 17 18 18 17 19 18 24 27 24 21 21 20 19 17 15 17
23 17 20 16 17 15 18 19 19 16 10 13 15 17 14 11 13 12 14 11 10 7 11 10 9 10 11 13 14 15 18 21 26 28 28 24 21 17 16 16 15 13 13 16
18 23 19 21 19 13 17 19 21 19 18 19 16 18 16 10 8 12 10 5 5 10 10 11 11 11 11 13 14 18 22 22 22 21 21 19 17 14 12 10 11 12 13 10
20 16 22 21 18 18 15 15 17 18 19 19 19 20 14 16 12 9 12 8 8 5 5 7 9 11 12 12 12 12 14 15 16 17 16 14 12 11 11 11 14 15 11 11
15 15 17 17 19 19 18 18 17 17 18 16 17 14 15 12 10 12 15 7 9 6 5 6 10 12 12 13 14 11 13 14 13 13 14 14 14 14 14 14 13 12 11 8
13 15 14 8 1 15 10 15 17 19 18 16 17 17 15 15 16 5 5 9 9 8 9 10 12 13 13 15 15 15 14 15 16 17 17 17 16 15 16 15 12 9 6 5
11 11 9 8 12 14 17 10 9 13 16 16 18 18 17 15 1 9 9 8 11 12 13 14 15 16 17 18 18 18 18 18 18 18 17 17 15 17 15 12 7 4 3 3
11 11 9 6 15 19 14 14 12 13 13 16 18 12 11 3 5 9 17 17 17 16 18 19 19 19 18 18 18 19 19 18 17 17 17 17 15 12 5 4 6 6 6 5
6 4 11 11 8 9 13 14 14 14 9 14 11 9 9 9 6 12 19 19 19 19 19 19 18 17 17 17 18 19 18 18 18 17 16 14 8 9 9 8 7 5 4 4
10 9 5 8 8 12 11 10 11 13 16 8 9 10 10 9 14 17 19 21 21 21 20 19 19 18 17 18 18 18 17 17 16 16 13 12 11 8 7 7 5 4 3 4
6 6 5 7 5 8 20 13 20 9 7 9 9 10 11 18 18 21 22 23 23 22 21 19 20 20 19 18 18 19 18 17 16 14 13 11 9 8 7 5 4 2 3 4
11 18 8 11 6 14 11 14 14 7 10 8 7 9 14 19 19 23 24 25 25 24 22 22 22 21 20 18 18 17 17 15 14 13 11 9 7 5 4 1 2 2 4 6
10 6 11 18 19 23 18 16 15 13 13 12 12 11 15 18 22 24 25 26 25 24 24 23 23 22 20 19 18 16 15 15 14 13 11 8 7 5 4 5 6 6 11 10
10 11 9 8 11 11 17 4 7 14 16 14 12 13 17 21 23 26 26 26 25 24 24 23 21 21 19 18 16 14 13 13 12 11 9 8 5 5 3 3 7 10 11 12

GFSCGP_850_spd_072.txt.gz
Wind_Speed
21 12 15 20 19 20 12 14 16 5 17 6 10 6 12 8 8 11 15 15 19 19 24 24 24 19 26 38 41 32 28 23 23 26 25 23 27 28 27 32 30 26 24 23
16 18 19 21 18 9 12 11 15 9 9 2 10 6 9 10 8 14 16 15 19 19 21 24 29 30 36 38 29 22 17 20 23 23 22 24 23 22 21 21 26 24 24 24
20 18 19 19 8 9 10 13 14 11 6 12 13 13 7 14 17 17 20 20 22 24 27 29 32 34 33 30 29 27 28 20 19 19 23 23 21 21 22 26 27 25 24 22
21 22 12 11 10 13 13 9 14 9 10 7 8 9 15 12 12 12 20 26 25 25 32 32 33 36 37 31 26 28 29 29 20 23 27 26 26 27 26 26 26 23 26 24
21 21 18 14 15 15 13 8 9 11 12 14 9 10 4 7 18 16 13 26 30 30 30 37 37 37 40 35 33 29 30 27 28 24 24 27 24 23 24 25 26 24 23 25
21 21 19 21 14 14 14 13 10 12 12 10 14 8 6 4 11 15 19 23 29 36 32 32 35 35 37 36 36 34 31 30 28 32 27 24 25 25 24 24 26 28 26 26
21 23 18 15 18 14 11 10 7 6 7 7 3 9 5 16 14 2 2 24 26 31 35 37 37 38 38 39 39 37 36 35 32 31 31 32 28 27 26 25 30 27 27 26
17 16 23 13 14 13 14 14 5 6 4 4 4 6 3 11 11 6 5 5 12 19 29 34 33 40 40 40 41 41 39 39 36 36 33 31 31 30 27 29 29 29 28 29
16 21 20 17 14 19 14 15 17 7 10 5 7 13 10 8 5 4 3 1 9 14 15 24 33 35 40 41 42 42 39 38 38 38 39 35 33 32 33 30 34 31 27 28
19 15 22 23 20 18 17 11 13 8 5 10 8 10 8 9 7 7 6 7 7 1 7 14 24 33 36 37 40 40 37 37 35 34 36 37 37 33 30 33 31 29 28 27
22 12 14 17 18 18 12 12 10 13 10 8 5 3 10 4 2 8 5 9 4 6 5 5 9 15 32 34 35 39 38 35 30 32 35 35 33 30 31 33 33 29 26 20
24 9 13 18 16 17 17 16 16 8 10 7 6 9 3 5 3 5 3 6 7 7 5 6 7 10 13 19 20 30 32 30 28 29 33 34 33 30 31 31 28 27 26 20
18 17 11 16 17 16 17 20 17 15 12 13 7 4 8 7 4 6 4 10 11 12 10 10 8 9 11 13 16 15 22 21 24 27 27 28 34 30 30 28 24 23 20 17
14 17 15 11 12 12 16 19 18 16 8 9 12 12 12 13 8 11 11 8 17 9 11 11 16 14 11 12 14 13 16 20 24 26 30 31 31 23 24 23 22 19 18 15
4 14 19 19 19 17 18 20 19 20 16 14 13 16 15 12 1 4 5 3 10 16 10 9 9 18 16 15 20 25 27 28 29 26 26 25 25 22 20 19 17 16 15 15
8 13 14 20 20 22 16 20 21 21 20 19 14 17 14 16 17 13 10 5 6 5 4 1 7 17 20 20 22 22 23 24 22 20 18 16 17 16 16 14 13 15 17 16
12 8 13 16 19 17 18 16 13 13 14 13 13 10 11 9 10 9 4 5 7 7 6 3 5 17 20 19 21 19 19 19 19 18 16 14 13 11 13 14 16 15 13 12
8 11 10 9 3 23 10 12 14 13 12 13 14 11 10 12 16 3 3 3 7 10 9 10 13 14 17 18 16 15 12 16 16 15 15 15 15 17 17 17 15 12 12 11
9 4 3 7 14 12 19 10 9 9 14 12 14 13 14 18 4 3 7 5 7 14 13 14 14 17 15 16 15 14 16 17 18 18 18 18 18 19 18 15 15 14 10 7
13 12 4 6 11 16 9 12 6 7 12 13 12 9 11 7 4 1 11 10 13 14 14 16 17 19 20 17 17 19 20 19 18 18 17 19 18 18 17 15 11 10 9 9
6 6 13 7 5 5 8 11 13 14 5 17 18 16 11 5 4 15 15 16 17 18 18 19 20 22 22 23 24 24 24 22 21 20 19 20 18 13 11 13 13 13 13 13
6 10 6 6 6 15 5 4 19 9 6 14 11 9 5 9 11 14 17 19 21 22 23 23 23 22 22 22 24 23 21 20 21 19 20 17 17 18 18 16 15 12 10 11
5 9 3 5 3 2 11 10 14 7 4 7 9 7 7 13 15 16 20 20 22 22 23 22 23 23 22 22 21 23 22 21 22 20 20 20 17 15 14 12 11 8 7 8
16 16 2 6 7 11 9 5 8 10 6 4 6 7 5 16 18 19 21 22 23 23 23 22 23 23 22 20 20 22 23 21 20 20 18 17 15 14 12 9 9 10 12 11
6 12 14 13 15 10 22 22 18 13 11 14 9 9 9 13 21 23 24 25 25 24 23 22 22 22 20 20 21 20 19 18 18 17 15 15 14 9 12 13 10 10 10 10
11 9 5 2 6 5 4 8 8 8 15 12 8 8 8 11 15 18 19 21 23 23 22 21 21 22 20 19 18 16 16 17 17 16 14 13 12 11 8 4 7 7 9 11

GFSCGP_850_spd_075.txt.gz
Wind_Speed
19 5 12 12 14 17 17 14 8 5 1 4 9 6 10 15 13 15 21 27 30 27 23 16 18 24 24 20 25 28 31 29 28 31 32 35 37 33 28 23 23 24 25 29
9 18 13 16 18 18 20 6 7 7 7 5 5 6 7 10 15 20 27 29 31 31 28 24 21 27 28 35 36 35 33 33 35 37 36 33 28 27 26 24 26 27 27 25
16 9 18 19 20 18 6 5 7 7 6 4 3 5 4 5 13 26 30 33 37 38 35 31 28 31 37 39 34 29 27 28 29 31 29 26 24 23 27 30 31 32 32 28
12 20 20 20 19 8 5 9 9 6 5 2 3 4 4 6 8 11 22 30 34 36 37 35 32 32 38 35 30 27 26 27 25 26 28 30 31 35 33 34 34 33 29 28
15 10 19 20 13 7 8 7 1 3 6 5 2 2 7 8 11 10 19 31 37 40 40 41 38 34 38 32 30 29 30 28 26 28 27 30 31 29 28 29 31 32 30 27
13 21 11 14 10 8 5 4 6 2 1 4 8 4 6 6 13 13 20 33 41 40 42 42 38 38 38 34 31 31 32 32 29 29 30 31 37 33 33 31 35 34 33 30
20 19 13 17 10 7 6 3 2 4 1 6 3 5 10 9 7 5 18 33 38 41 45 44 44 44 40 38 36 35 35 39 37 35 32 36 38 37 33 36 38 37 35 34
14 11 20 9 15 8 7 8 5 6 2 3 8 3 6 8 5 12 14 34 36 40 44 45 49 49 47 40 40 42 41 40 43 40 39 38 38 38 36 34 35 35 35 33
12 13 4 18 5 9 4 6 10 5 2 3 5 7 5 6 6 8 5 7 33 42 46 45 46 50 48 44 42 42 44 44 42 42 42 41 41 41 37 37 37 35 32 29
5 4 16 11 7 8 10 4 4 2 7 5 5 2 3 6 2 6 6 12 11 11 25 42 43 48 49 48 43 43 44 45 44 43 45 43 41 39 40 36 36 38 33 30
22 10 10 11 14 13 5 9 3 2 5 6 2 5 5 6 7 8 7 17 15 11 7 10 12 48 47 50 48 46 46 50 47 42 43 44 44 42 37 38 36 35 30 30
11 4 10 20 15 21 17 9 9 5 5 4 5 5 6 7 3 8 12 16 18 21 16 7 7 2 37 44 47 47 46 45 37 39 41 43 42 43 36 30 36 25 31 23
6 4 9 12 12 13 17 7 8 6 4 6 5 4 7 6 3 9 9 9 11 18 19 15 10 8 8 18 34 39 45 49 29 27 33 35 38 35 33 32 29 33 28 22
11 5 15 14 11 3 7 9 9 7 5 4 6 4 7 9 5 9 15 11 5 8 12 17 16 13 10 11 17 32 34 39 28 31 31 30 33 30 28 25 24 19 21 21
7 16 19 18 18 11 9 10 12 11 11 7 6 8 9 8 6 8 8 15 11 15 16 11 24 22 21 19 17 23 30 31 30 29 28 27 29 29 25 22 20 19 19 17
5 5 4 15 13 14 14 11 15 13 10 7 7 11 12 14 12 11 16 22 22 24 18 5 5 28 27 25 23 23 23 23 21 22 23 23 23 22 19 17 17 17 18 17
8 5 4 13 12 7 10 11 8 9 13 9 10 9 7 6 5 4 9 18 20 23 17 10 12 24 27 28 27 25 26 24 22 19 15 16 16 17 16 15 16 16 17 17
4 6 4 4 2 14 4 4 5 9 11 6 1 2 3 7 7 9 15 17 22 17 14 12 16 24 27 27 26 23 20 18 18 18 18 17 16 16 15 16 17 18 16 16
3 3 2 5 10 4 11 5 4 5 8 6 4 4 4 11 7 8 13 14 15 16 17 17 18 22 24 22 18 16 14 16 17 19 19 18 17 16 18 18 18 18 18 16
7 3 4 2 4 9 3 9 9 3 6 4 2 5 5 3 4 4 15 12 18 19 20 21 19 19 19 18 17 16 17 20 21 19 18 17 18 19 20 19 20 19 14 15
3 3 5 1 2 6 5 13 8 6 7 8 7 8 13 3 6 15 18 15 14 18 20 20 19 19 18 16 16 18 21 20 19 19 19 21 21 21 20 19 17 18 19 18
5 6 6 4 4 4 15 2 8 5 12 17 5 8 5 13 17 24 21 19 19 19 19 20 22 19 16 16 16 19 20 20 20 19 19 20 21 19 18 19 19 18 19 21
6 5 4 4 4 9 9 7 5 1 6 5 6 5 3 20 23 23 22 18 17 18 21 21 23 24 22 22 21 22 20 16 16 18 22 20 18 18 19 20 21 21 19 18
3 5 4 3 5 12 11 11 9 9 6 4 9 6 2 13 16 18 16 16 19 21 22 21 21 22 19 17 17 18 18 17 18 21 21 22 21 18 18 18 17 16 16 14
5 9 7 4 7 19 16 9 12 19 15 11 12 9 1 4 14 15 16 19 22 22 20 20 21 20 20 19 20 21 21 23 23 23 20 19 18 17 15 14 13 11 11 12
6 7 6 6 15 10 6 13 16 23 17 16 7 10 7 4 14 17 18 21 22 22 21 25 25 24 25 27 26 22 19 21 23 21 18 15 14 12 10 9 9 9 11 11

GFSCGP_850_spd_078.txt.gz
Wind_Speed
8 3 12 11 9 7 5 11 14 16 13 6 7 6 9 17 14 18 20 20 20 16 15 13 15 18 21 19 22 25 26 29 32 39 44 44 42 41 31 40 35 21 21 19
6 17 11 8 7 9 9 13 19 18 5 5 5 5 5 16 17 30 30 30 26 19 18 16 17 18 22 23 22 26 29 31 34 37 39 42 44 42 35 36 40 34 24 23
13 7 17 11 12 13 15 13 18 8 5 1 1 5 3 8 7 16 28 30 29 28 25 21 21 21 23 25 28 28 29 31 33 34 34 38 41 36 35 39 40 36 29 25
9 16 13 11 16 12 11 15 10 5 3 2 1 5 5 5 8 15 22 28 34 34 29 26 26 28 30 33 35 32 31 31 33 35 37 41 42 40 37 35 35 31 28 30
11 11 14 19 17 10 13 18 6 4 3 2 3 1 7 4 6 10 18 32 36 43 39 36 33 32 32 34 33 31 31 33 35 37 37 36 36 36 32 33 33 33 32 32
15 14 7 15 14 16 17 5 4 4 2 2 5 6 6 4 10 18 22 36 39 43 43 38 34 35 36 34 33 33 33 34 36 38 36 35 35 34 33 35 37 39 38 38
10 19 9 6 10 7 7 5 2 3 3 6 3 3 11 7 7 16 23 36 42 46 44 41 41 41 42 43 40 39 39 37 36 37 37 37 35 35 32 33 34 36 39 41
11 6 16 13 15 9 8 9 6 5 4 4 4 5 5 10 12 20 27 41 41 40 46 45 45 44 43 45 44 42 42 39 39 39 39 38 38 39 38 36 37 40 40 39
8 12 6 14 13 14 7 5 9 6 1 1 4 6 7 2 4 3 12 27 35 39 45 48 46 46 45 45 47 46 44 44 43 41 40 41 41 42 41 41 42 42 43 41
5 3 14 5 15 9 10 7 4 1 7 4 5 4 5 4 5 4 7 21 31 42 42 40 43 45 46 44 46 46 47 47 44 42 42 43 43 44 45 46 46 46 42 40
17 2 6 8 11 10 2 4 3 6 6 6 2 5 7 9 7 8 9 21 26 31 38 43 46 47 48 48 48 48 49 50 49 46 45 46 48 46 44 50 46 43 43 41
15 10 12 15 6 2 11 13 10 5 5 3 4 8 5 9 7 9 12 23 24 25 26 27 30 37 43 48 49 49 49 48 48 50 47 47 51 48 46 45 43 38 39 32
7 10 4 16 11 6 5 7 11 7 5 9 6 5 4 6 2 7 13 19 20 21 20 19 21 21 26 32 43 47 47 45 44 44 42 44 45 43 44 41 41 37 33 28
21 7 21 16 6 3 2 11 17 14 7 6 6 6 6 7 6 9 17 22 24 23 26 23 22 19 15 14 20 35 41 42 41 46 46 40 37 39 39 38 36 35 33 34
4 6 4 12 7 5 10 16 16 16 9 12 9 10 10 8 8 13 24 16 16 20 25 26 21 20 19 20 23 26 35 37 38 42 40 42 31 33 35 34 33 25 21 24
10 4 5 4 9 10 16 21 14 11 8 8 7 7 10 17 18 11 19 25 25 20 23 20 17 22 23 22 21 26 34 37 37 36 38 36 32 34 29 25 20 21 22 21
7 5 5 5 10 13 9 16 19 6 6 9 9 9 7 7 7 14 24 21 28 23 21 21 19 22 29 28 26 26 30 31 32 32 32 30 26 24 22 20 19 19 19 20
8 12 2 3 6 8 8 12 19 11 11 8 5 6 8 11 17 15 16 17 27 25 23 22 20 26 33 31 28 26 26 25 23 21 20 19 19 19 21 19 18 18 17 19
11 9 4 5 7 3 8 12 5 7 9 7 9 7 6 5 8 2 15 20 26 26 24 20 18 22 28 27 25 23 20 17 15 15 15 17 18 20 20 19 18 17 18 19
5 10 5 2 7 8 4 15 23 1 6 5 8 8 5 8 4 4 17 20 24 22 18 15 16 17 21 22 21 19 17 17 16 15 16 17 17 17 16 16 16 17 17 18
4 4 3 1 1 6 8 7 16 8 7 7 6 8 6 5 8 10 24 22 21 18 18 17 17 18 18 18 17 17 16 14 12 13 14 14 14 14 15 17 17 19 19 18
5 4 2 3 1 6 6 10 6 6 8 7 1 5 8 7 11 15 26 22 24 22 21 18 17 16 15 14 14 14 12 12 12 11 11 12 15 17 18 18 19 18 18 17
5 7 3 5 6 5 9 1 15 12 3 7 10 5 3 15 20 26 26 25 24 21 19 17 16 15 14 12 10 11 12 12 11 11 12 15 17 17 17 17 17 16 14 14
3 2 4 4 8 11 16 12 12 14 6 5 8 8 6 7 11 18 22 22 21 20 20 17 15 15 16 15 13 10 12 11 9 13 18 18 16 17 16 16 15 15 15 13
5 6 4 3 6 7 15 16 13 13 12 5 5 1 2 2 7 16 18 19 21 23 21 20 20 22 21 19 19 17 14 12 16 17 17 18 17 17 17 15 13 9 9 8
7 6 4 5 13 9 9 5 12 13 15 13 11 2 4 4 6 15 21 23 26 26 27 27 25 23 23 23 23 20 18 19 21 22 19 16 15 13 11 8 7 6 5 7

GFSCGP_850_spd_081.txt.gz
Wind_Speed
7 4 12 14 9 3 3 2 4 14 13 3 11 16 9 13 16 14 20 18 15 9 5 8 9 11 15 16 14 18 24 30 35 40 39 33 38 36 35 33 30 26 24 25
3 16 6 7 7 6 5 5 12 11 9 4 9 11 7 9 12 21 22 25 25 16 12 11 12 16 17 21 20 18 19 27 32 39 41 38 42 40 37 31 32 31 31 31
10 6 12 12 7 7 8 7 10 7 11 5 4 7 5 6 5 15 19 23 24 26 22 21 22 21 21 21 23 20 20 21 29 40 41 43 40 39 37 38 37 37 31 25
8 14 4 5 12 10 11 10 10 10 6 4 1 5 6 6 11 8 20 25 27 28 25 20 27 25 25 24 25 24 24 26 28 34 40 44 43 42 44 42 39 39 35 30
9 8 17 13 14 10 10 7 9 9 11 2 2 2 6 2 6 11 14 26 32 33 30 27 24 20 20 24 26 26 27 30 30 32 35 37 40 45 45 39 34 45 41 39
10 5 9 14 15 12 8 2 1 2 2 3 4 5 6 5 8 7 13 25 31 34 33 29 23 22 23 26 27 26 26 29 33 36 39 39 42 45 46 40 39 40 43 40
3 13 4 2 6 6 5 3 2 3 1 7 5 4 10 7 7 9 15 27 36 34 34 34 32 31 31 33 32 31 32 33 36 37 38 39 38 38 38 37 36 38 40 40
12 8 14 7 11 5 7 9 5 6 4 5 0 5 6 7 11 20 27 35 32 33 35 36 36 35 36 37 37 37 38 38 38 38 38 37 37 38 39 38 37 38 38 38
6 8 4 11 7 13 5 5 11 5 1 3 4 6 9 6 4 6 17 19 29 36 38 38 38 38 37 39 41 41 40 38 39 39 38 39 40 42 43 41 41 40 38 38
4 3 7 6 9 14 11 6 2 2 7 5 4 4 5 7 6 5 6 18 29 34 36 37 39 41 40 39 40 42 42 41 40 41 41 41 42 43 44 43 42 41 41 41
6 6 5 2 6 10 4 6 3 5 5 6 2 6 8 10 9 7 9 24 31 33 34 38 43 42 41 40 41 42 43 45 44 44 44 46 46 44 42 44 45 44 42 42
4 5 12 24 9 3 10 12 10 5 4 3 4 9 4 8 7 8 16 25 29 29 31 33 38 40 40 40 44 45 44 45 46 42 40 49 49 48 47 45 45 43 46 45
10 4 4 7 9 17 5 4 4 2 4 9 7 6 3 5 4 8 10 17 20 29 31 32 33 37 35 37 40 43 47 49 47 45 49 51 49 48 48 46 46 47 48 48
10 5 12 14 6 5 5 6 1 7 6 5 12 5 7 7 7 8 12 11 22 26 29 31 31 32 31 32 36 37 37 40 44 47 49 51 50 48 49 48 49 49 48 42
6 7 14 18 17 5 5 5 3 2 9 10 8 13 14 12 9 12 14 12 17 23 26 29 29 29 28 29 30 32 28 29 31 37 41 46 45 40 41 40 39 38 37 34
3 5 15 6 13 17 15 9 9 4 9 12 8 14 7 16 22 12 20 19 19 24 29 30 29 28 27 26 25 27 28 31 34 36 37 36 40 40 39 37 33 32 27 25
0 5 6 5 5 5 3 16 13 8 8 9 10 10 7 8 9 15 25 21 24 32 31 30 32 30 28 30 28 28 28 29 31 32 32 32 33 35 33 29 22 20 19 19
8 3 3 4 1 4 8 9 15 18 18 17 12 7 9 10 26 28 24 18 25 29 31 31 31 28 27 27 29 28 26 26 25 25 26 27 25 22 19 13 15 17 19 20
10 5 4 3 3 4 4 5 9 12 16 23 12 8 5 14 7 8 22 21 23 28 30 32 25 19 17 22 23 20 18 18 18 17 15 12 11 12 14 16 19 20 21 20
13 9 4 1 3 8 6 10 10 3 11 9 7 8 11 8 4 5 15 20 23 23 26 27 19 14 15 16 17 17 16 15 12 9 9 10 12 14 18 19 18 17 17 18
3 3 6 7 6 6 6 7 1 6 7 8 8 16 7 4 9 10 13 17 17 21 24 20 16 15 16 18 17 16 14 11 9 9 10 11 14 15 15 14 15 15 16 18
5 5 2 2 4 5 2 4 1 1 18 10 4 15 17 16 9 11 14 20 22 24 21 18 17 17 16 15 13 12 10 8 6 5 8 9 10 11 12 13 14 15 15 15
6 5 4 5 3 27 18 5 4 7 10 12 5 9 20 15 10 10 17 20 22 22 21 18 16 17 14 11 8 6 5 6 7 9 9 9 10 12 13 13 13 12 11 12
4 5 4 4 9 20 33 21 15 8 19 24 15 8 4 7 10 9 15 18 19 17 17 17 17 16 15 11 9 6 9 8 8 4 6 9 11 13 12 11 9 10 10 8
5 4 6 4 5 15 24 21 22 16 12 19 16 5 5 1 5 8 13 15 16 17 17 18 19 19 18 16 15 13 10 6 4 5 9 12 12 12 13 13 13 12 13 12
5 4 3 5 9 7 15 22 16 11 17 15 12 4 4 4 5 12 17 20 20 19 19 20 20 20 20 19 19 17 14 11 12 16 17 17 16 16 16 15 14 10 5 2

GFSCGP_850_spd_084.txt.gz
Wind_Speed
9 4 11 13 6 6 4 3 3 8 5 4 9 7 15 7 12 15 17 13 13 12 9 10 9 9 10 10 10 13 20 33 38 37 35 38 40 36 37 40 35 35 37 34
2 11 10 9 9 7 4 4 7 10 6 6 11 14 12 4 6 18 20 20 16 15 13 12 11 12 14 12 13 13 15 27 35 36 38 38 40 36 33 36 34 31 32 31
14 4 12 11 6 8 6 10 5 8 7 5 4 7 6 2 5 6 18 25 18 19 19 16 14 13 15 15 16 15 17 23 29 33 37 36 36 35 33 35 35 34 31 29
8 14 3 6 11 10 9 9 9 6 3 4 4 6 5 6 7 6 14 24 25 23 21 17 15 14 14 16 19 19 18 22 26 33 42 38 41 44 38 40 38 34 31 29
7 4 9 8 6 10 9 7 8 5 5 2 3 2 7 2 7 9 11 27 30 27 25 23 18 15 16 21 22 21 22 21 27 35 39 40 41 43 44 41 38 34 34 35
6 3 7 9 9 11 3 3 5 2 2 3 7 6 6 3 6 5 4 20 29 31 28 25 20 19 19 20 21 22 24 26 27 31 38 43 45 45 42 45 43 43 40 39
2 8 3 3 4 7 6 5 2 2 1 5 5 3 10 5 7 7 9 18 28 30 32 32 30 27 26 27 27 26 29 30 32 33 36 40 40 44 43 43 46 44 45 42
10 8 10 6 8 7 9 10 5 6 4 4 4 6 6 8 8 17 19 20 19 28 30 34 34 32 30 30 32 31 30 30 31 32 35 33 36 39 40 42 45 50 47 46
3 5 5 7 11 12 5 8 8 4 1 2 4 6 8 7 8 5 8 12 18 27 32 32 34 35 33 33 34 34 32 31 31 31 31 33 35 37 39 41 45 48 46 38
4 5 4 5 4 6 9 6 3 1 5 5 4 4 5 6 8 6 4 13 19 20 25 29 31 34 36 34 33 34 34 32 32 32 33 34 35 35 36 37 38 40 40 39
6 3 7 9 3 8 3 9 3 5 5 6 2 5 8 10 9 9 8 18 18 19 21 24 28 30 33 36 36 35 36 37 37 37 36 35 36 37 38 40 41 41 41 42
3 3 4 11 16 12 4 7 12 10 4 3 4 10 4 9 7 6 12 17 17 17 18 18 22 24 27 30 34 39 39 40 40 38 37 36 37 40 41 42 41 41 42 41
5 2 5 7 5 3 5 5 5 2 2 8 7 5 3 6 5 9 14 20 20 19 21 21 20 21 23 25 29 31 36 41 42 41 39 39 45 47 44 48 45 43 42 42
3 4 6 5 9 15 12 8 14 8 5 7 14 4 4 6 7 7 10 13 15 20 22 24 22 23 23 23 25 26 28 31 36 40 41 41 44 44 41 39 39 41 41 42
3 4 3 11 14 20 26 22 10 15 12 10 5 10 9 10 10 13 20 14 15 17 22 24 25 26 25 24 25 23 23 26 27 30 35 38 44 45 44 42 41 42 44 42
2 3 3 7 13 18 20 21 14 14 5 6 5 6 7 12 18 7 18 21 18 18 22 29 31 30 28 26 23 24 25 26 27 27 28 30 32 32 35 36 34 35 36 32
2 3 2 9 10 20 10 24 21 8 6 6 7 7 6 8 9 15 29 29 28 25 24 26 35 34 30 30 28 27 28 27 27 26 27 26 24 26 28 28 28 28 27 23
7 3 2 5 7 8 8 5 14 14 12 9 5 5 7 9 23 32 37 33 31 30 30 28 31 33 33 32 28 25 25 23 21 20 20 20 20 21 21 21 20 16 15 18
16 7 3 3 4 8 15 6 5 7 18 14 13 7 7 24 15 23 33 32 31 26 21 27 28 29 31 27 23 22 17 14 12 10 10 10 9 9 7 8 11 15 17 18
13 11 7 3 3 5 6 9 23 0 10 6 4 11 13 6 4 7 21 24 30 31 24 25 25 24 23 21 19 15 11 7 7 7 5 4 4 6 8 10 14 16 18 16
5 6 14 8 5 6 4 9 29 6 5 8 8 14 8 5 9 23 18 13 13 15 16 18 24 22 20 17 14 12 11 10 8 7 6 5 6 7 10 12 12 11 11 12
6 5 4 4 5 7 5 13 6 5 16 17 14 21 21 22 21 22 16 10 7 9 15 20 22 20 18 16 14 13 12 11 7 4 2 2 3 4 4 5 7 8 10 12
5 6 3 6 4 4 9 10 31 24 23 16 18 14 27 20 30 12 10 8 10 13 17 18 20 23 21 17 12 14 12 8 6 5 4 2 2 3 5 6 8 9 9 7
4 4 4 1 6 12 18 19 30 23 27 14 19 21 24 22 13 10 6 9 15 18 21 25 26 23 21 17 14 12 13 12 11 9 6 6 6 9 11 10 9 7 7 7
7 3 5 6 12 22 25 17 17 26 21 20 9 16 16 13 1 12 20 17 20 22 23 21 22 22 20 18 16 16 13 11 11 12 12 10 10 11 11 11 10 9 9 7
7 7 4 6 13 4 15 26 31 22 18 9 9 8 10 5 3 9 18 17 16 21 20 20 17 20 23 22 19 16 15 12 11 13 14 15 14 13 11 8 7 6 3 3

GFSCGP_850_spd_087.txt.gz
Wind_Speed
8 8 13 23 15 5 6 5 6 5 5 4 9 10 16 12 11 10 14 14 14 14 10 7 7 7 8 9 11 14 14 15 21 28 32 34 34 35 34 40 43 32 35 34
4 13 15 8 9 13 7 8 12 12 2 6 8 16 16 5 8 8 15 17 16 15 14 11 11 12 13 13 12 16 16 21 25 29 33 34 38 30 33 36 47 37 28 27
13 5 14 13 10 12 16 17 13 13 9 3 6 6 5 2 5 8 9 16 17 20 17 14 16 16 17 17 17 16 17 22 28 30 34 33 39 28 31 34 35 45 41 30
10 11 8 10 14 15 14 11 13 11 5 6 5 8 8 13 10 8 12 17 19 22 21 17 17 16 18 18 17 17 18 20 28 33 34 31 46 40 37 41 41 34 37 42
6 6 16 10 8 13 12 7 13 11 8 5 6 6 2 2 12 12 11 16 19 25 24 22 18 15 17 21 23 20 19 21 25 28 30 34 41 38 38 37 42 41 39 34
4 2 6 9 12 14 3 4 2 2 2 7 10 7 6 4 5 4 2 9 18 24 26 23 19 17 17 20 21 24 23 24 26 30 32 38 40 39 37 36 39 42 45 37
4 8 3 4 4 5 9 6 4 4 4 8 6 7 14 7 9 9 11 7 12 22 29 28 28 24 23 22 23 24 25 28 30 31 34 39 41 39 40 42 41 44 42 40
9 7 12 8 13 6 14 13 4 6 6 7 4 7 6 8 9 9 12 8 9 17 29 32 30 28 26 25 24 24 25 27 29 31 35 40 42 42 44 44 44 43 45 43
3 4 2 6 10 15 6 8 14 2 1 1 4 5 7 8 9 4 6 7 15 17 26 33 32 32 29 28 27 26 25 27 29 32 35 38 41 42 44 44 45 43 48 46
5 4 3 3 3 5 7 8 5 6 7 11 5 5 7 3 5 6 6 8 11 15 20 27 33 33 33 30 28 28 27 27 28 30 33 35 36 40 41 43 45 47 45 47
6 1 6 5 1 6 5 10 2 3 4 8 5 6 8 13 11 6 7 5 10 15 19 22 28 32 34 34 33 31 31 32 32 32 32 31 32 34 35 37 37 37 38 41
6 1 2 4 10 8 5 3 11 10 8 3 5 12 2 11 6 6 8 8 6 12 14 16 20 26 30 33 35 35 35 35 35 33 34 33 32 33 34 34 33 34 34 34
6 1 3 5 0 3 3 6 7 4 5 18 12 6 5 5 5 11 11 17 14 11 12 15 17 20 24 27 31 35 37 37 37 35 36 35 36 37 37 37 36 36 34 37
1 3 7 6 5 3 7 14 17 10 10 12 17 16 7 6 9 8 13 17 15 14 13 15 17 18 19 21 24 27 29 34 37 39 40 39 37 37 38 39 38 38 38 39
5 5 6 11 10 14 13 14 17 20 18 14 10 16 15 16 10 15 21 12 10 12 15 19 20 20 20 22 22 22 24 25 27 31 36 39 39 41 41 40 38 37 35 35
4 1 2 6 13 15 18 20 20 22 20 22 18 19 7 16 16 13 18 15 18 19 18 19 22 22 25 25 23 24 23 23 22 23 24 25 28 32 34 35 35 34 33 32
4 2 1 4 1 8 12 12 12 19 19 17 17 11 8 9 8 10 18 20 22 27 28 25 23 24 29 30 27 27 25 23 21 20 20 20 19 20 22 23 24 25 24 22
5 4 2 5 6 9 8 5 11 14 22 18 15 7 9 9 15 20 23 23 28 31 29 35 31 29 30 33 28 27 25 21 19 17 16 16 15 16 16 14 13 14 17 18
16 8 4 4 7 15 17 4 1 4 18 13 18 18 14 18 17 27 32 32 28 31 29 30 32 29 27 27 26 22 19 16 14 13 12 10 8 8 9 10 11 13 14 14
13 13 8 5 7 6 4 4 1 1 10 19 22 14 10 13 9 14 24 22 20 19 26 27 23 18 23 24 23 21 17 15 13 12 12 10 9 8 8 8 11 12 11 12
5 6 15 11 9 10 5 6 2 3 5 29 28 28 19 7 9 11 11 11 10 9 13 17 17 19 23 23 23 22 20 19 18 16 13 10 7 6 6 5 5 8 8 7
8 7 5 7 6 9 5 3 2 2 12 28 35 28 18 19 8 4 5 5 7 5 3 10 18 21 19 22 24 27 25 22 18 15 11 7 5 4 5 6 7 6 8 10
6 7 4 7 3 6 7 3 5 6 11 27 32 31 17 22 14 7 11 10 11 10 11 15 22 30 27 23 22 27 25 18 17 15 15 13 11 10 10 11 12 14 12 11
4 4 4 1 3 6 12 22 22 19 22 33 30 25 18 17 15 8 9 11 13 15 19 26 31 34 33 27 26 26 24 21 17 17 16 14 11 13 15 15 15 13 11 8
7 3 5 6 10 9 14 5 21 30 33 26 18 9 5 15 10 5 13 15 17 22 25 27 30 30 33 29 29 26 23 20 19 20 20 16 16 16 16 15 14 12 12 9
4 6 4 8 12 10 18 17 22 24 25 22 10 10 5 6 4 3 11 14 20 24 26 27 28 29 29 25 25 21 19 17 16 19 20 20 19 19 17 14 15 13 9 5

GFSCGP_850_spd_090.txt.gz
Wind_Speed
22 14 19 22 22 19 12 13 14 10 0 5 14 19 16 16 8 11 12 13 13 12 9 8 7 7 7 8 11 13 9 14 14 20 27 25 31 42 42 41 44 42 35 30
10 21 20 17 17 17 18 17 18 13 7 7 13 17 17 15 11 8 10 13 15 14 13 11 9 9 10 11 12 13 12 11 17 22 27 32 35 42 40 40 40 41 36 33
19 4 20 16 16 17 18 20 17 15 7 14 15 19 20 13 9 9 11 13 15 18 17 15 13 12 15 15 15 16 15 14 18 23 27 29 37 42 41 43 42 36 39 35
15 17 9 20 22 16 20 18 16 18 12 10 3 9 12 8 15 14 16 15 17 19 18 17 16 16 16 17 17 17 18 18 20 22 28 32 35 37 44 45 46 41 44 37
9 11 19 16 17 16 16 13 11 15 16 14 15 9 9 2 10 12 6 18 18 21 21 20 18 16 17 18 19 19 19 21 24 24 29 33 34 24 33 43 49 44 37 33
10 2 8 17 12 14 2 11 5 7 9 12 16 13 8 8 7 6 2 4 16 22 22 19 18 17 17 19 19 19 21 23 24 29 29 33 35 32 29 35 47 49 40 39
19 17 9 7 8 13 16 9 5 7 7 8 7 11 15 5 5 9 11 7 13 21 24 24 22 21 20 21 22 20 21 24 26 27 31 33 32 35 27 34 40 38 44 47
11 9 22 17 21 9 18 17 7 9 8 7 12 8 10 7 7 7 5 7 11 20 25 27 25 22 21 21 22 23 23 23 28 29 29 28 27 31 28 33 32 40 43 39
3 5 2 9 16 18 11 16 18 13 11 7 9 9 10 12 12 10 9 6 12 19 26 27 27 25 23 23 23 24 24 24 26 29 29 29 29 30 27 27 31 31 35 36
3 3 1 2 7 16 18 4 8 10 7 11 9 12 7 5 10 2 8 8 10 18 22 25 26 28 26 25 23 23 24 25 25 26 28 28 30 32 30 30 30 32 33 33
5 3 1 4 6 7 9 12 10 7 12 10 10 8 6 14 14 11 4 3 8 16 18 21 24 24 26 25 26 26 26 26 27 26 27 28 29 32 33 32 32 32 32 34
6 1 4 5 8 8 7 9 16 12 13 10 12 13 2 4 10 5 3 1 2 10 14 17 20 23 25 27 26 29 28 29 28 27 28 29 29 29 32 35 33 32 35 34
7 3 2 3 4 3 3 2 3 6 10 18 14 5 3 10 13 19 16 13 4 7 13 15 18 22 24 26 27 28 30 31 30 29 29 30 31 32 33 34 34 35 35 34
3 3 6 6 7 5 7 7 10 7 6 12 16 17 16 18 14 14 22 15 9 8 14 15 18 21 23 25 27 28 29 30 31 32 31 32 32 32 31 30 30 32 33 33
5 8 9 10 12 15 16 16 17 17 14 15 16 19 16 12 16 22 26 24 17 7 13 17 18 20 22 24 25 25 25 28 30 31 32 33 31 31 30 30 31 32 32 32
3 2 3 8 13 15 20 22 21 20 20 22 19 24 20 24 25 24 24 25 20 15 11 9 15 19 23 25 27 27 26 25 26 27 28 25 26 28 29 29 29 28 27 25
2 3 3 4 2 7 13 19 25 23 19 18 19 19 17 19 20 26 24 24 21 21 17 16 16 20 24 27 27 24 27 26 25 23 22 22 22 22 23 23 22 22 21 22
6 6 4 4 5 8 9 6 12 17 13 10 13 14 16 21 25 26 20 16 16 16 17 20 22 18 18 21 22 25 23 25 25 24 22 22 21 21 21 21 21 21 20 21
16 11 4 4 8 14 18 9 10 13 14 5 7 10 14 16 27 29 30 26 27 28 26 23 22 19 23 28 23 25 27 27 25 25 23 22 22 21 19 16 16 17 17 17
16 15 8 5 4 4 5 10 13 10 13 9 11 12 11 18 9 10 22 22 12 16 19 21 15 19 19 20 21 23 25 24 26 24 22 19 18 18 18 16 14 13 13 12
9 6 12 10 8 9 11 17 15 8 5 19 15 17 18 12 13 26 24 18 17 14 11 11 9 12 15 17 22 24 28 26 24 23 23 23 21 19 16 15 13 11 10 9
9 9 6 9 8 11 1 3 5 9 15 21 20 16 16 28 24 20 14 11 7 5 5 10 12 15 17 21 26 30 30 30 29 28 27 25 23 20 18 14 14 12 11 12
6 8 5 8 6 4 5 12 18 20 21 19 25 21 21 29 23 12 11 6 0 5 9 16 21 22 22 22 27 34 34 30 28 26 24 22 19 18 18 15 16 17 14 14
11 12 7 11 12 13 15 15 18 15 16 21 21 20 25 20 5 7 5 4 6 12 17 24 29 33 34 35 35 34 35 27 23 25 26 24 22 22 23 19 18 18 16 13
8 9 10 12 13 15 16 12 14 16 22 20 22 28 19 12 6 6 6 9 8 17 22 27 33 37 36 35 33 30 29 27 27 28 28 25 24 23 24 23 19 16 16 13
13 12 9 10 13 13 19 19 12 18 18 18 22 19 9 8 6 3 9 7 9 20 28 32 33 35 34 32 31 30 29 27 28 30 29 27 25 24 21 20 20 16 13 9

GFSCGP_850_spd_093.txt.gz
Wind_Speed
24 17 22 26 24 23 21 23 18 15 10 6 15 18 18 18 22 16 14 14 13 12 11 11 11 9 9 9 11 8 8 9 6 11 23 29 38 48 50 51 47 44 41 42
18 24 23 23 22 22 23 22 22 20 18 8 15 21 19 19 17 20 15 12 13 13 14 14 12 12 12 13 14 13 9 12 15 19 26 38 37 37 47 46 47 43 36 32
21 19 24 24 22 21 22 22 19 22 18 9 15 22 22 22 23 25 13 17 14 16 18 17 16 13 15 15 15 16 13 13 17 21 22 26 27 33 40 42 46 41 39 34
20 22 18 16 26 22 22 19 19 21 17 14 17 15 15 16 11 11 18 20 18 16 18 19 18 16 16 16 16 18 17 16 18 20 20 23 28 38 42 46 45 42 41 40
21 16 23 20 21 19 20 14 15 20 15 17 21 12 14 21 14 9 13 13 17 18 20 20 19 18 17 18 18 16 20 19 21 22 25 27 31 41 45 45 46 46 43 47
21 14 13 21 18 15 8 13 14 11 15 15 17 16 12 15 14 10 4 6 16 18 20 19 19 19 19 19 19 18 19 23 22 20 24 25 32 40 42 46 47 44 42 41
19 22 13 11 15 14 15 10 6 4 10 13 14 14 17 9 3 4 7 5 12 17 21 22 22 21 22 22 22 21 21 21 25 26 27 25 31 36 39 48 46 43 37 38
19 20 24 16 15 12 19 18 7 11 9 11 18 9 14 15 8 8 6 6 12 18 22 24 24 23 23 25 24 22 23 22 24 28 30 27 36 34 31 41 48 47 45 42
4 14 2 22 22 17 15 16 18 18 15 8 5 9 10 11 8 6 9 10 10 17 23 26 25 24 24 24 26 26 24 23 26 26 30 29 31 35 33 27 31 45 52 47
1 5 2 10 9 16 25 10 12 11 15 12 13 15 10 2 10 9 4 10 12 14 21 26 27 25 24 23 23 23 23 24 24 25 26 27 30 29 29 29 28 31 36 41
6 5 9 5 10 12 13 17 13 12 13 10 9 5 2 5 8 11 9 4 8 12 21 26 26 25 24 23 23 24 24 24 24 26 26 27 32 30 33 32 27 32 30 31
5 4 6 8 5 9 11 14 19 11 14 12 13 11 13 6 5 10 15 4 5 6 17 23 25 26 26 26 26 25 25 26 26 25 26 28 27 29 34 31 31 29 32 32
5 4 6 5 8 5 7 9 7 9 7 14 10 6 7 4 4 10 14 15 6 2 12 17 22 27 28 28 27 27 27 27 26 27 27 29 30 31 32 32 30 29 31 31
6 8 9 8 7 7 3 9 9 6 7 11 15 16 17 15 15 14 16 16 15 4 6 14 19 24 27 28 28 28 27 27 27 27 28 29 29 30 29 30 30 31 30 28
4 10 11 13 14 14 14 13 14 16 14 14 13 15 16 16 14 12 19 19 19 18 9 13 18 20 24 27 28 27 27 28 28 28 28 29 27 26 25 26 26 26 27 27
3 8 10 12 14 15 18 20 20 21 20 21 18 19 18 19 26 25 27 27 25 22 17 12 15 17 20 23 26 26 27 29 29 30 31 28 28 26 26 26 25 24 23 23
4 4 3 10 10 9 10 17 19 20 22 20 20 18 15 15 19 20 24 28 28 26 23 20 16 14 18 21 23 24 25 26 28 29 28 28 27 26 27 24 22 21 19 18
6 7 3 5 3 6 10 8 9 14 16 14 20 14 12 16 24 26 31 26 28 20 20 13 14 17 18 18 22 23 23 25 26 26 25 26 27 25 23 21 21 28 28 28
17 7 4 4 8 12 16 6 7 7 11 14 10 10 10 13 21 23 24 25 18 16 22 25 23 19 18 18 20 22 23 23 23 23 23 22 22 22 29 33 33 31 30 27
17 14 6 6 7 5 7 6 7 11 6 5 9 8 9 15 11 11 27 30 28 22 20 20 19 18 14 15 16 24 29 25 20 19 25 30 32 33 31 28 26 24 22 21
13 9 13 12 7 8 13 12 10 8 3 11 13 16 17 9 12 24 30 30 25 22 23 21 17 12 10 12 16 19 24 33 36 39 32 28 25 23 23 25 24 23 21 19
11 9 6 8 5 10 9 3 4 8 13 16 17 18 22 24 19 22 23 28 23 21 17 13 9 3 4 13 26 31 31 31 32 31 30 29 28 25 25 24 23 20 20 19
7 10 8 9 9 12 5 8 11 12 15 14 15 21 22 24 30 21 25 17 17 16 12 9 9 12 14 19 24 27 27 31 34 34 33 33 32 28 25 23 22 22 20 19
10 13 7 9 9 12 13 13 13 16 12 12 18 18 20 29 29 17 18 11 11 12 8 8 10 15 15 18 26 30 34 34 35 35 33 30 29 28 26 26 24 23 23 22
9 9 8 11 13 13 15 8 9 13 13 17 14 17 19 24 20 6 9 9 9 7 5 6 12 18 21 25 31 33 34 35 36 35 33 32 32 28 28 28 25 22 23 19
11 9 6 7 9 10 14 17 16 14 15 13 14 16 11 11 6 5 6 7 11 8 4 8 16 22 26 27 27 28 29 30 33 35 33 33 35 32 30 30 29 23 19 16

GFSCGP_850_spd_096.txt.gz
Wind_Speed
24 15 19 22 22 24 21 22 22 22 20 19 13 12 14 15 21 15 17 16 18 14 13 17 13 11 10 10 12 13 12 9 6 3 5 10 23 32 35 32 38 46 46 41
15 22 21 22 23 24 25 25 26 22 23 21 19 15 14 15 18 20 21 21 15 15 22 17 15 12 11 13 15 13 13 11 11 11 10 13 24 32 36 47 52 50 48 45
20 17 24 21 23 24 24 24 20 23 21 24 22 17 15 19 23 26 28 20 13 19 27 22 18 16 14 17 17 16 15 15 16 16 23 20 32 43 49 48 52 49 49 41
21 20 21 22 23 22 24 19 20 16 17 15 19 16 18 15 17 16 23 22 11 15 29 27 22 18 17 18 18 18 18 18 18 18 24 29 41 44 46 48 51 43 43 41
22 20 21 22 23 16 20 20 17 17 18 18 23 14 12 15 14 18 14 20 24 24 30 28 24 21 17 17 19 20 21 21 20 20 20 25 30 34 40 51 51 50 44 45
22 24 21 23 21 22 16 16 13 13 11 16 19 20 14 14 18 13 8 8 4 21 28 27 23 22 19 21 20 22 22 23 23 22 19 24 27 33 40 44 47 49 48 42
22 22 22 20 14 16 16 10 8 9 7 11 16 16 14 12 16 5 10 12 6 19 27 28 28 26 24 23 23 21 23 25 26 25 25 26 28 29 38 43 47 49 46 45
11 16 25 17 19 18 19 17 8 12 10 9 9 10 14 13 17 10 4 1 20 18 26 28 30 28 27 24 25 24 21 24 27 27 28 26 24 32 37 41 47 46 49 48
8 17 18 23 17 20 18 18 18 18 7 2 7 14 17 5 10 6 3 7 14 20 24 27 29 29 29 27 24 25 24 23 26 30 29 28 27 34 38 41 46 47 47 48
5 7 5 4 22 16 16 11 13 10 14 14 8 4 8 10 5 6 7 8 14 18 25 27 29 29 29 28 25 25 26 22 23 31 31 31 30 32 35 32 44 47 47 45
6 6 4 5 7 14 14 15 15 12 12 10 8 3 4 10 12 10 11 6 3 4 26 28 28 31 28 27 26 27 27 28 25 27 32 34 32 35 34 33 29 39 46 47
6 4 5 12 7 2 6 17 18 11 12 8 10 7 7 1 9 8 10 15 4 6 13 24 27 31 30 29 29 30 32 31 30 29 29 32 33 35 36 34 34 31 34 35
7 3 6 6 5 8 8 10 10 16 11 14 6 6 10 10 6 1 6 14 21 5 4 15 26 29 31 30 30 30 31 33 31 28 31 29 33 34 38 35 38 31 33 32
6 5 9 7 8 9 4 9 6 7 5 10 12 12 4 16 15 4 6 9 16 18 10 8 16 24 30 31 32 31 30 32 33 31 29 32 34 32 38 39 38 34 30 31
3 6 12 16 14 13 12 12 11 11 8 7 12 15 13 8 11 13 18 16 18 22 21 11 12 17 19 30 31 31 31 30 34 35 34 34 31 32 31 32 38 38 35 35
2 8 10 14 15 15 17 17 17 17 15 15 15 19 16 16 18 16 16 15 16 19 25 25 16 11 23 23 29 32 32 34 32 36 36 34 34 34 36 35 34 34 34 34
2 4 7 10 12 14 12 15 16 15 16 15 17 14 14 13 14 12 18 25 24 19 18 25 22 17 11 22 26 30 33 33 35 32 35 35 34 35 33 33 32 32 32 29
3 6 4 5 8 7 9 8 4 5 8 10 13 14 16 12 11 14 20 25 32 35 33 29 25 22 11 12 22 28 31 32 33 34 33 32 32 32 31 31 29 31 35 36
12 8 3 3 6 11 15 10 4 5 6 10 10 14 15 19 16 10 17 27 27 30 28 28 28 24 18 15 13 23 29 31 33 34 32 31 32 29 28 32 38 37 36 35
16 11 6 4 6 4 7 8 8 6 4 9 9 9 10 16 7 9 31 32 29 26 23 29 27 25 19 16 16 12 22 28 29 28 27 29 31 36 38 39 38 36 33 32
14 11 13 10 5 8 6 10 6 3 4 9 12 11 13 10 10 21 24 27 26 23 21 28 19 16 20 17 17 16 18 24 30 34 37 40 42 43 40 36 34 33 31 28
12 9 7 7 5 10 10 8 2 2 5 9 9 9 10 12 13 18 27 22 22 17 21 23 20 14 12 10 15 22 27 29 32 36 37 34 33 37 35 34 30 27 27 25
5 8 7 9 5 11 13 11 9 8 7 10 7 10 12 16 19 20 19 16 15 20 26 25 20 18 17 18 12 17 20 23 27 30 29 29 27 27 29 29 30 32 30 31
5 10 3 4 8 10 18 10 16 14 9 8 10 12 14 16 18 14 9 11 16 21 24 20 15 11 10 11 14 16 17 18 22 24 26 27 28 30 29 30 31 31 32 33
4 3 9 9 12 5 8 9 19 15 10 8 8 9 11 10 9 10 13 13 15 20 18 14 7 4 2 5 10 15 19 24 28 32 33 34 35 36 37 36 33 33 29 27
11 10 5 3 8 2 11 10 6 9 9 7 8 11 8 8 7 15 16 11 13 14 10 7 6 13 11 7 10 15 20 26 34 37 38 38 39 39 38 39 38 29 29 24

GFSCGP_850_spd_099.txt.gz
Wind_Speed
17 7 11 11 13 15 11 13 17 13 12 11 11 14 13 10 8 9 24 26 29 29 33 28 22 20 16 12 11 13 14 14 13 14 17 22 23 21 26 32 39 41 36 37
9 20 15 13 12 17 19 20 20 19 14 15 15 17 16 11 6 13 16 20 29 29 37 32 27 21 14 12 15 17 15 13 11 12 13 18 27 28 28 35 36 41 40 38
17 8 18 17 17 18 18 17 12 17 14 13 13 19 13 11 8 22 31 30 15 39 42 36 30 22 15 16 18 19 16 13 11 8 11 15 22 30 35 39 46 47 45 42
16 15 19 20 20 18 17 12 16 17 9 8 0 17 16 16 19 15 25 31 26 35 39 37 31 23 18 17 21 19 18 15 11 7 8 12 23 31 38 39 40 48 50 39
17 8 13 19 18 19 15 11 13 13 10 7 4 11 5 12 21 19 9 22 31 46 41 38 32 23 19 18 24 23 19 17 17 12 11 12 27 31 33 40 46 52 54 46
17 18 7 6 12 12 6 4 8 9 2 9 10 12 4 10 16 15 16 23 31 46 41 37 29 24 21 18 25 26 23 21 20 18 18 16 23 32 38 45 47 53 54 54
14 21 17 11 10 13 9 7 1 2 2 6 8 11 12 15 19 23 18 15 21 41 40 37 33 29 24 22 26 27 27 25 23 24 22 21 23 31 36 42 47 55 53 49
8 5 17 11 15 7 6 7 6 8 5 3 9 7 6 10 17 29 23 16 24 38 40 38 35 31 24 23 27 29 30 28 27 27 26 26 26 30 36 37 50 53 44 38
4 7 3 8 19 10 6 9 9 10 4 3 4 6 10 15 21 11 6 7 27 34 38 39 36 30 24 24 28 29 29 30 32 31 28 29 27 27 31 33 41 43 45 47
2 3 4 10 14 12 11 4 8 6 13 7 5 5 3 16 13 5 15 6 26 36 38 37 36 32 24 23 24 27 27 30 33 33 32 32 31 28 29 36 42 43 45 48
1 1 5 6 2 15 5 11 2 3 9 5 2 4 6 4 7 10 14 15 22 23 40 39 39 35 27 25 26 27 29 27 28 37 33 33 33 30 30 36 39 39 40 46
6 1 1 7 10 10 8 7 9 8 5 3 7 7 7 9 7 10 13 29 28 26 19 38 38 38 34 28 27 26 29 28 27 28 36 34 35 32 34 33 36 36 38 39
6 3 1 2 11 14 2 1 3 9 6 10 3 3 6 13 11 19 7 30 29 29 26 28 36 38 36 32 29 26 28 29 28 26 31 36 37 36 37 36 35 33 32 37
6 3 5 3 3 6 7 11 8 9 4 6 6 6 9 9 6 10 8 4 14 23 24 23 32 38 37 35 33 30 27 29 31 30 29 33 39 39 37 39 38 36 33 32
5 4 6 6 9 10 12 10 3 8 12 2 5 7 6 10 10 20 12 23 26 31 36 33 27 13 35 36 35 34 30 28 33 35 34 33 32 34 36 39 40 38 37 33
3 5 7 6 5 8 14 12 9 9 10 5 5 10 3 4 12 7 21 21 25 30 30 31 30 30 12 37 38 36 35 33 31 37 37 35 32 33 34 33 39 39 37 33
2 1 3 3 7 10 6 7 10 11 8 4 5 8 11 7 11 17 21 22 22 23 27 31 31 34 28 17 26 36 35 34 34 35 37 37 35 34 34 32 36 38 38 37
3 2 1 2 5 3 6 8 7 5 4 3 8 13 15 11 10 25 26 22 21 22 26 30 32 34 31 25 17 27 36 35 36 37 37 40 38 36 35 34 33 34 39 42
6 2 1 1 1 8 9 4 4 3 6 8 8 8 10 17 8 10 25 24 22 19 22 27 29 29 26 25 23 15 13 42 39 39 38 37 40 38 36 38 41 39 38 39
12 5 4 1 3 4 0 11 12 5 2 7 8 7 8 14 5 5 26 30 22 20 23 25 26 28 24 24 24 19 13 32 39 39 38 36 36 38 40 42 43 43 39 40
11 5 9 5 3 6 2 10 12 2 2 2 1 7 8 4 2 13 21 22 22 18 20 21 23 27 25 21 22 16 10 16 28 33 34 36 38 42 42 44 44 44 42 40
8 7 4 3 3 6 4 8 2 4 7 3 9 7 12 13 14 18 17 20 25 20 22 23 26 28 26 21 21 19 12 9 21 28 34 37 38 42 42 43 40 35 35 35
5 6 5 7 6 6 9 0 9 4 12 8 15 12 7 9 10 11 14 21 22 21 23 27 28 23 21 18 20 20 13 10 11 17 23 27 29 31 33 36 37 36 35 35
1 7 1 2 3 4 8 5 8 10 8 16 11 7 6 6 7 8 12 15 18 17 21 28 27 20 15 13 13 12 7 5 8 12 16 21 25 28 30 31 33 35 35 37
1 2 3 2 8 20 13 6 4 3 16 15 12 9 8 7 6 7 10 13 14 15 19 23 20 17 12 10 9 8 7 11 18 21 25 28 31 32 34 34 33 33 33 35
2 6 1 1 2 10 9 12 11 10 10 9 8 7 9 10 9 11 12 10 9 11 13 14 13 7 6 6 5 6 9 13 21 26 29 31 33 35 37 38 38 29 28 27

GFSCGP_850_spd_102.txt.gz
Wind_Speed
8 4 12 11 11 10 10 8 11 1 5 7 9 14 9 12 16 14 21 22 23 24 31 38 34 29 24 19 15 11 17 17 18 20 19 20 18 17 16 29 39 33 43 45
4 17 11 10 9 10 12 14 20 12 11 13 13 20 10 8 8 19 23 21 17 20 30 37 34 31 26 20 16 14 18 17 18 19 21 23 21 17 17 31 41 44 48 42
15 6 16 13 14 15 15 17 14 15 14 16 12 20 8 6 8 22 30 24 17 21 39 42 39 35 27 23 18 17 19 16 15 15 15 18 23 22 20 28 48 47 46 42
13 16 17 13 18 16 18 17 17 15 10 8 6 13 9 9 15 14 24 27 18 23 35 46 42 36 31 24 20 19 19 16 12 12 16 18 23 28 28 27 47 47 45 42
11 8 19 22 19 17 13 17 15 16 9 4 4 4 4 4 9 15 16 26 16 23 38 49 47 39 30 24 21 19 19 16 12 11 11 16 20 27 29 34 37 40 42 42
13 11 4 7 8 15 12 14 15 13 5 10 7 6 6 4 8 7 16 26 18 18 36 43 45 36 30 25 23 19 20 17 14 12 11 15 20 26 30 38 44 44 45 48
8 22 17 9 7 7 6 3 4 3 2 5 6 5 14 10 12 16 19 23 31 22 38 46 44 40 34 29 26 22 21 20 18 16 14 14 18 20 26 38 41 47 45 47
7 7 13 7 18 6 8 9 5 8 5 4 7 5 5 4 8 18 20 17 17 21 39 49 45 41 35 29 26 24 23 21 22 22 19 16 13 17 22 28 34 44 51 48
5 6 3 5 12 15 9 7 8 5 3 3 4 5 7 5 11 17 15 28 19 30 33 44 42 39 34 29 27 26 24 23 24 24 23 21 19 19 19 25 30 38 48 50
5 8 5 3 4 12 10 5 4 3 8 6 4 4 5 3 11 19 16 16 14 8 23 38 42 38 32 28 26 26 24 24 27 26 26 25 24 23 22 26 33 37 46 52
7 4 4 1 2 4 5 10 1 4 4 10 1 5 5 6 8 9 14 16 27 17 12 18 40 37 32 29 28 27 25 26 28 30 29 27 26 25 25 28 32 35 37 34
8 5 4 5 4 4 4 4 6 4 2 3 4 5 2 6 6 7 9 22 28 31 27 23 27 37 35 31 29 29 27 27 27 31 33 32 28 30 29 28 28 32 33 37
8 5 4 4 3 7 6 6 5 4 4 5 3 3 3 12 12 11 11 21 27 31 23 7 16 22 31 34 31 30 29 29 27 30 35 34 33 34 34 32 32 33 33 33
6 5 3 2 2 1 2 6 8 4 3 1 12 6 4 4 9 6 16 10 11 20 24 29 7 5 12 22 31 31 31 30 30 31 33 38 38 36 37 33 32 35 35 34
5 3 5 6 2 3 3 3 4 3 1 1 3 1 5 5 10 1 17 12 11 11 21 24 29 4 14 15 30 32 33 31 34 34 34 35 38 37 37 37 34 34 35 35
3 3 2 2 6 6 2 4 3 4 4 10 9 0 3 3 18 7 7 14 14 13 15 20 22 24 13 17 16 30 34 34 34 36 37 35 33 35 36 38 37 36 36 36
6 4 4 1 8 4 3 2 5 5 9 13 3 2 7 13 12 12 9 12 12 17 17 12 20 20 18 15 13 8 25 34 37 39 38 37 35 34 35 33 37 39 39 37
2 3 3 3 5 0 3 10 2 12 9 11 10 7 10 16 18 16 17 13 14 18 19 20 19 20 22 20 16 13 9 25 33 40 40 40 37 35 35 33 34 34 38 41
6 2 0 1 1 6 4 5 4 3 5 5 8 7 7 11 7 15 16 16 16 18 18 21 22 22 21 21 18 13 10 17 30 36 46 43 40 36 35 33 33 37 36 38
6 4 3 2 1 3 2 5 10 4 3 2 7 6 7 11 4 2 10 13 16 17 17 20 23 24 23 22 22 18 13 13 23 34 37 40 37 37 35 36 36 35 35 37
4 1 7 2 1 6 6 6 11 3 4 1 10 14 12 5 4 7 9 14 17 17 19 21 23 29 26 23 21 18 12 9 16 23 28 36 37 34 36 37 36 37 37 42
6 6 3 3 2 6 4 2 1 3 2 7 13 12 11 8 9 9 11 15 18 20 19 19 24 27 29 22 20 18 13 9 10 16 20 30 34 35 35 37 39 38 40 39
4 5 5 6 6 4 9 6 5 11 3 16 14 10 9 9 8 9 11 14 16 15 15 17 19 22 23 19 17 16 13 7 7 9 14 23 30 34 36 38 41 38 36 36
6 5 1 4 3 3 7 10 5 3 18 15 12 11 8 7 7 10 13 16 18 17 20 20 19 21 20 16 16 13 9 7 8 9 12 17 22 26 30 34 36 38 37 38
4 2 3 3 3 1 8 9 8 21 16 14 12 11 10 7 8 10 12 14 15 17 20 21 20 18 18 18 16 13 8 5 10 14 17 21 25 29 32 33 33 37 34 35
5 4 2 1 8 3 3 5 2 15 13 9 8 10 10 10 11 13 13 14 15 16 19 19 17 15 15 16 16 13 7 5 11 17 20 23 27 29 31 32 32 22 27 29

GFSCGP_850_spd_105.txt.gz
Wind_Speed
5 4 15 17 12 11 9 7 8 0 5 4 8 12 10 11 21 13 24 24 27 25 25 29 36 35 34 30 26 21 16 17 19 18 20 18 16 16 14 16 17 26 28 43
3 16 7 9 10 8 8 14 14 5 5 5 14 24 18 7 8 19 20 22 22 17 20 26 35 36 35 32 28 21 17 20 21 18 18 19 19 15 16 13 22 28 32 44
12 8 13 15 10 13 11 16 5 12 4 7 7 21 17 10 11 18 21 28 22 15 22 28 36 40 39 35 29 22 19 22 21 19 21 21 20 19 15 16 27 34 42 46
12 15 15 7 16 10 16 8 11 9 4 6 7 12 7 6 12 8 18 27 22 18 22 29 35 44 44 37 29 22 20 23 20 17 19 21 24 22 21 15 32 38 36 42
16 8 15 21 22 13 10 9 10 9 6 3 13 5 4 1 6 12 15 22 21 16 20 30 35 44 44 36 30 23 22 23 18 17 16 15 16 17 22 18 31 35 41 48
17 1 6 7 9 17 4 4 2 1 3 8 8 8 6 5 7 5 9 21 26 16 20 27 32 41 43 35 29 25 24 23 19 16 14 17 17 20 21 24 33 44 47 44
7 11 2 1 3 3 5 6 2 2 3 7 9 8 12 7 9 4 15 25 29 16 20 27 35 40 44 39 32 27 26 25 21 18 15 17 18 17 22 23 26 42 43 43
8 8 12 5 16 5 7 8 5 7 4 3 4 6 5 6 2 5 25 33 21 13 20 31 37 39 45 41 34 30 28 26 22 20 17 15 16 17 21 21 29 33 43 44
5 5 4 5 15 16 12 6 15 6 1 1 4 5 7 3 5 7 16 26 35 12 6 14 26 37 45 40 37 32 29 26 22 21 18 16 14 18 18 22 26 32 42 44
4 4 5 3 5 9 13 6 5 3 10 14 4 4 5 4 6 3 8 20 30 29 21 11 20 29 38 38 34 31 28 25 22 22 22 18 15 14 17 21 25 31 39 45
7 1 4 2 4 7 3 6 5 6 5 9 6 5 5 7 3 1 13 21 25 35 36 12 18 24 31 31 30 29 29 27 25 24 24 22 20 18 16 17 21 25 25 30
4 1 3 6 4 1 2 8 13 5 5 3 4 5 8 4 4 8 9 7 25 33 36 22 13 18 23 24 26 27 29 28 26 25 25 25 24 22 21 21 22 22 27 24
3 3 3 5 2 4 4 5 2 4 3 5 6 3 3 9 9 12 6 0 12 26 32 26 8 4 13 22 24 25 28 28 26 26 27 28 27 27 26 25 23 22 25 27
5 4 4 2 9 1 4 4 5 5 4 1 4 6 6 6 6 8 11 9 2 18 24 26 18 14 2 9 16 21 25 27 28 27 28 31 30 29 28 28 26 25 26 28
3 5 7 17 11 4 3 8 5 6 4 4 5 6 3 5 8 10 10 12 6 11 19 21 20 13 17 8 4 12 18 23 26 29 29 31 32 30 29 29 28 27 26 26
3 4 4 15 9 4 4 5 3 2 2 3 10 9 5 8 17 17 19 12 13 13 9 16 16 18 15 16 11 4 13 19 24 27 30 31 32 31 31 31 31 31 29 29
3 4 3 6 10 10 1 2 4 6 6 5 8 5 9 11 12 10 13 16 15 9 5 10 16 21 19 14 11 16 13 14 23 30 31 30 32 33 32 31 32 32 32 31
2 2 3 3 4 4 2 6 6 9 4 7 8 9 6 15 16 15 14 15 13 7 9 10 11 13 16 15 8 4 10 18 24 31 31 31 30 31 33 34 34 33 34 33
4 3 1 1 1 6 1 2 3 3 3 4 7 9 10 22 22 15 13 11 10 9 9 8 10 11 13 14 12 9 8 8 17 27 31 32 31 31 30 34 34 33 34 36
4 1 2 2 1 3 4 2 2 1 4 3 5 3 6 6 3 3 7 7 9 9 8 9 11 13 17 14 12 12 11 11 9 17 27 29 30 30 28 30 34 33 32 33
1 1 6 2 2 6 7 7 11 4 5 7 9 10 10 5 5 13 6 7 7 7 7 10 11 14 17 18 17 14 12 11 11 9 16 23 26 27 29 30 28 31 33 33
3 3 3 3 2 7 4 5 1 3 4 14 9 11 17 18 15 10 6 7 8 10 10 12 14 16 16 17 15 15 16 14 11 10 10 17 25 28 31 31 30 33 36 36
2 5 2 7 6 5 4 2 0 5 7 9 13 11 13 12 11 7 7 8 10 11 13 15 17 16 18 19 16 13 11 13 12 11 8 13 21 29 35 36 36 37 35 33
4 6 4 3 3 1 5 7 5 9 17 16 12 11 10 12 8 7 7 9 11 12 14 17 17 18 18 17 16 13 12 10 9 9 8 10 15 21 27 32 35 37 38 39
5 6 4 3 4 8 9 13 8 16 12 14 12 11 12 9 11 10 10 11 12 13 13 15 16 17 17 17 16 13 11 8 7 6 6 8 13 17 22 25 28 32 31 34
4 4 2 1 6 7 6 12 12 14 10 11 10 12 11 11 13 13 13 11 10 11 12 14 15 16 17 17 14 11 9 6 4 4 7 9 11 14 18 22 23 15 16 17

GFSCGP_850_spd_108.txt.gz
Wind_Speed
6 4 19 16 10 10 9 5 8 2 4 2 7 16 7 12 16 14 24 27 29 31 27 28 22 20 27 35 37 33 30 26 22 21 20 22 22 19 21 22 26 29 26 30
3 16 6 9 9 10 9 14 19 4 5 6 11 27 13 6 8 20 22 27 31 27 26 27 21 20 25 33 36 34 32 26 22 21 19 21 21 21 21 18 19 18 24 29
13 8 15 11 7 12 16 19 9 8 1 7 3 25 16 9 9 20 23 25 26 29 30 27 24 22 27 35 37 35 31 25 21 20 18 18 17 19 19 22 13 23 28 27
11 17 14 4 12 10 16 10 8 9 5 6 5 10 2 5 9 5 14 23 27 28 27 27 27 24 32 39 38 33 28 23 20 21 21 21 22 22 23 17 19 22 29 29
22 7 11 16 18 11 8 10 12 7 6 2 3 4 5 2 3 8 5 18 27 29 26 20 31 28 33 40 36 32 28 22 21 22 21 20 23 20 19 19 18 25 36 34
15 3 9 13 8 18 7 3 3 3 4 5 8 7 3 3 4 4 6 20 29 24 20 24 28 28 30 36 34 33 28 23 22 21 21 18 16 15 15 16 19 29 36 41
13 10 3 5 5 5 7 7 2 1 3 6 10 7 9 5 3 6 4 17 26 31 22 21 24 26 29 33 36 35 29 25 24 21 19 15 14 12 15 14 18 31 35 38
6 5 16 7 7 7 11 14 5 7 4 4 7 6 5 10 8 10 11 20 32 41 31 22 20 27 26 29 34 35 31 26 24 21 19 15 14 15 13 14 16 32 32 36
4 5 4 11 9 9 5 9 8 3 1 1 4 4 8 5 7 7 8 22 25 31 37 26 20 19 23 26 32 32 29 25 22 22 19 17 16 16 15 16 17 27 36 41
4 3 3 4 5 7 9 7 3 1 6 7 3 3 4 2 6 7 5 9 18 34 42 36 16 16 16 21 27 30 25 21 19 19 18 17 15 17 15 15 17 20 25 35
3 3 5 1 4 8 4 5 4 5 5 5 2 5 4 4 4 8 4 12 20 34 36 34 9 10 11 18 27 25 20 19 18 18 16 14 13 14 16 17 17 17 23 31
5 4 4 7 5 2 1 4 10 5 7 2 3 5 5 7 8 7 6 15 17 31 33 27 9 4 8 14 17 17 17 18 18 17 17 16 15 13 12 14 18 19 19 23
5 3 2 1 3 5 3 2 2 5 3 6 5 4 2 4 7 10 10 14 20 27 35 24 23 13 4 5 10 12 13 16 17 19 19 17 17 16 15 15 15 17 17 20
4 3 6 3 2 8 6 6 6 4 5 7 3 4 5 4 1 5 11 13 16 17 20 25 20 20 13 2 1 4 6 10 15 18 20 21 20 18 17 16 17 16 19 18
1 5 3 7 8 5 5 8 12 4 1 6 3 2 2 5 5 4 11 12 10 16 9 17 20 18 15 16 4 2 5 8 11 17 19 20 20 20 19 18 17 17 18 19
2 2 4 6 9 5 1 3 12 5 3 4 4 6 5 7 14 13 13 10 7 13 11 9 16 16 19 15 11 3 5 6 8 12 16 19 21 20 22 22 21 21 20 20
4 1 2 2 6 9 2 6 9 4 2 4 2 4 5 5 8 10 13 12 5 8 5 6 7 12 16 16 13 6 2 1 3 10 12 14 18 22 22 21 22 23 23 22
5 3 1 2 4 6 3 4 5 4 3 4 6 10 11 5 14 16 11 10 7 7 7 8 9 8 12 11 9 9 11 8 8 6 13 11 15 22 24 24 23 24 24 25
8 2 2 1 2 4 1 3 4 4 4 3 9 11 12 12 16 13 9 5 4 5 6 8 10 11 12 13 8 6 3 11 9 8 9 14 26 25 26 26 24 23 25 25
3 0 2 2 0 1 2 4 7 1 1 1 8 12 16 9 3 3 6 5 3 4 5 7 10 11 11 10 10 9 8 6 5 10 17 32 33 29 26 27 27 22 21 25
1 2 3 2 2 5 4 8 11 1 3 6 19 19 18 4 2 14 6 6 5 5 7 8 9 13 15 14 12 10 10 10 10 8 9 19 27 28 26 25 29 26 23 21
1 0 2 1 2 6 2 5 2 3 1 12 7 10 16 18 14 8 4 3 5 5 5 8 11 13 15 16 15 13 12 10 12 12 10 9 15 21 29 27 25 29 29 27
1 3 3 5 4 4 4 5 8 12 1 11 18 16 17 14 9 5 4 5 6 7 9 11 12 13 15 17 16 13 13 12 9 10 12 10 10 14 21 28 29 30 31 32
3 4 3 2 2 4 13 7 5 5 19 18 18 16 13 14 7 6 6 7 8 9 9 10 12 15 17 18 18 15 13 13 11 9 8 8 8 8 12 18 23 27 29 31
4 7 6 3 4 2 14 14 9 17 21 19 17 17 15 12 10 7 6 6 7 7 8 11 14 15 15 14 14 14 12 10 11 11 8 6 3 2 5 9 13 18 21 23
5 5 3 2 10 4 12 14 9 16 19 11 14 17 15 12 11 9 8 7 8 9 10 10 12 13 14 15 14 12 10 8 7 6 4 4 5 6 6 8 12 10 6 6

GFSCGP_850_spd_111.txt.gz
Wind_Speed
6 7 19 18 20 19 13 11 14 6 2 6 13 21 18 15 15 13 20 23 26 32 30 27 21 21 21 18 21 25 31 34 32 29 25 25 23 21 24 24 26 27 30 37
5 19 12 11 15 15 17 20 25 14 12 11 19 28 20 17 19 26 26 26 26 29 29 25 20 22 21 18 20 24 30 32 32 27 24 24 20 21 21 22 23 26 29 32
18 28 17 11 10 17 20 23 18 17 8 10 10 29 20 18 23 25 22 26 22 19 21 23 24 23 21 21 22 24 30 32 31 26 24 23 21 22 23 24 26 24 25 29
17 27 14 9 19 15 19 11 17 15 9 11 6 12 3 9 12 9 12 6 8 13 17 20 18 22 21 23 22 26 30 32 29 26 23 23 23 25 26 26 26 25 23 28
12 5 18 23 19 15 9 10 15 16 15 10 16 8 2 4 5 1 5 6 10 12 15 15 19 19 20 24 24 25 29 31 29 25 24 21 23 22 20 23 23 29 26 27
24 19 10 19 13 20 6 6 5 3 6 8 13 12 4 9 7 7 4 7 10 17 15 11 12 17 18 22 25 24 31 32 28 25 23 21 23 23 22 22 24 26 26 26
11 22 16 9 12 13 17 12 6 7 6 9 6 11 11 7 5 8 8 8 12 18 23 15 11 8 11 18 20 24 32 31 27 25 22 20 19 16 14 17 21 24 26 32
9 8 21 16 18 12 19 17 8 9 7 7 9 9 6 12 11 11 7 9 15 21 23 20 12 7 9 13 16 21 31 30 27 24 21 17 13 13 13 15 15 18 23 29
4 6 4 10 12 16 9 17 16 2 1 3 6 6 8 8 14 8 6 13 19 21 23 23 14 6 5 9 15 20 28 30 25 25 20 15 14 13 14 11 13 13 21 25
3 6 6 0 15 12 10 17 9 6 9 7 4 3 4 12 13 10 8 13 15 18 23 23 22 16 10 6 13 21 26 28 24 25 18 14 13 13 13 12 11 17 20 26
7 3 2 5 7 19 12 11 7 9 5 10 9 5 4 1 14 10 11 14 16 20 23 24 21 18 12 5 10 21 23 25 21 20 16 13 15 15 12 12 13 12 21 23
4 4 6 12 4 1 11 21 11 11 13 7 5 5 3 6 10 10 12 14 17 23 25 24 23 17 9 5 10 18 20 19 18 17 14 14 15 13 14 13 12 12 13 25
7 3 5 5 3 5 6 4 5 15 0 14 9 5 3 7 9 11 15 12 12 20 27 27 27 23 15 2 6 13 14 15 17 16 14 14 15 14 12 10 12 14 12 15
1 4 8 2 3 1 1 3 6 5 12 16 8 7 10 8 8 9 14 12 11 14 20 26 27 24 22 12 1 4 10 13 16 16 14 14 16 16 15 13 12 12 14 14
1 2 6 14 7 1 3 2 3 2 3 13 17 13 12 11 6 10 13 12 13 11 14 17 19 23 25 20 11 2 9 10 11 13 11 11 13 15 15 16 15 15 15 16
8 3 3 3 13 6 1 0 5 3 2 4 6 4 3 4 12 11 13 14 15 11 12 13 14 16 24 19 18 12 2 6 13 11 11 12 12 15 18 17 17 16 16 16
6 7 9 5 6 7 5 2 1 2 4 3 5 4 7 11 12 11 14 14 14 11 11 10 9 10 10 16 19 14 5 1 8 11 8 11 13 15 17 19 21 20 19 19
7 9 4 6 10 3 1 5 6 2 11 7 6 10 9 13 17 16 13 13 11 10 9 10 10 9 10 8 10 11 7 2 2 7 8 8 12 16 16 18 21 23 22 22
12 3 4 3 6 4 2 4 2 1 2 1 11 11 14 16 16 15 13 12 11 10 9 9 10 12 13 12 11 9 9 8 4 2 10 15 19 16 16 15 17 20 24 24
5 5 3 4 4 2 1 6 6 3 1 2 12 11 12 9 4 2 6 7 8 8 7 8 10 12 13 14 13 13 11 8 7 6 3 9 16 22 27 17 13 17 22 26
3 1 6 6 4 6 5 12 9 2 3 8 18 12 13 4 2 7 2 3 6 7 7 7 8 12 15 15 14 13 12 11 10 11 9 9 11 18 17 21 17 17 20 24
3 3 1 2 3 6 18 10 4 4 3 6 13 8 9 15 13 9 4 5 5 6 8 10 10 12 15 16 15 14 12 12 13 12 10 10 10 11 16 16 20 22 24 26
3 1 3 4 3 5 12 9 10 6 3 2 9 10 17 17 11 8 6 5 6 8 9 11 12 12 14 15 15 15 14 12 12 11 10 9 9 8 10 14 20 25 27 32
4 8 4 3 1 2 13 9 11 10 14 12 16 14 12 14 10 9 7 6 7 8 9 11 13 15 15 15 15 15 14 12 10 10 9 7 5 4 3 6 13 18 21 24
5 7 5 5 5 7 20 20 12 13 15 14 16 15 13 12 11 9 7 7 8 10 11 13 15 15 15 15 14 14 13 12 10 8 7 7 7 6 5 4 4 6 10 13
5 4 4 3 14 4 11 20 13 13 12 13 16 12 13 12 12 10 10 10 10 10 11 12 14 14 13 13 13 13 12 11 8 7 8 8 9 10 11 11 14 16 12 10

GFSCGP_850_spd_114.txt.gz
Wind_Speed
15 10 21 21 23 26 22 24 22 18 7 13 17 21 20 19 24 21 24 27 26 25 26 25 22 20 22 21 17 22 25 28 35 39 37 32 30 27 24 24 27 28 28 33
15 24 29 19 21 22 24 26 28 21 17 14 21 28 25 23 22 26 26 28 30 31 27 24 20 18 23 20 17 20 24 28 35 38 36 32 29 25 24 25 25 28 29 30
19 37 12 23 18 21 24 25 20 21 16 17 20 31 25 26 30 31 31 33 30 25 22 19 18 19 18 21 19 19 24 28 32 32 34 27 19 23 24 24 26 27 28 32
17 19 21 24 25 23 23 20 19 18 13 16 14 22 15 4 8 11 17 15 14 13 13 16 18 19 18 18 19 19 22 27 28 29 29 28 23 19 21 23 25 26 25 28
33 23 11 18 34 19 25 17 15 15 15 16 21 11 11 11 13 11 8 7 7 6 8 10 12 16 14 16 19 19 23 26 29 28 24 23 18 16 15 17 21 24 27 28
32 33 25 24 19 24 18 12 11 10 10 14 20 16 11 12 10 7 5 6 1 3 4 5 6 6 11 13 17 18 22 28 33 32 25 22 21 19 20 19 22 26 27 30
26 28 28 27 25 21 25 18 10 10 10 17 9 13 18 4 6 7 7 5 3 5 7 7 5 2 8 13 15 18 25 30 32 33 28 23 20 20 21 20 20 25 27 32
16 21 22 19 28 26 23 25 12 19 13 14 12 10 9 13 14 10 10 5 4 6 8 10 6 2 4 9 12 18 26 28 31 31 26 22 19 16 16 16 18 19 21 26
11 11 22 18 25 25 26 22 28 18 13 8 12 16 8 7 15 14 10 6 5 7 10 11 10 6 2 4 10 16 23 23 29 25 21 20 18 16 14 15 15 15 16 18
5 14 15 8 14 22 24 23 21 14 19 20 18 18 8 14 17 16 10 7 6 9 10 10 9 8 5 2 6 11 18 21 25 21 20 17 18 15 14 16 14 13 15 13
10 7 8 7 10 19 17 16 19 20 16 15 14 12 8 14 17 15 10 8 8 10 11 12 12 10 11 6 2 8 15 18 20 23 21 18 16 15 15 14 12 10 12 12
3 6 8 14 4 5 22 21 24 14 23 16 12 7 5 8 16 13 12 12 11 12 13 15 15 11 9 7 2 4 15 17 18 20 21 18 16 15 16 14 11 10 11 11
11 6 12 6 6 7 4 18 19 21 15 19 16 10 7 10 13 15 16 14 12 12 14 15 17 21 17 6 1 4 11 15 15 16 19 16 18 18 15 14 12 12 11 13
14 6 6 8 16 2 6 2 9 19 15 16 15 15 10 11 14 14 15 14 13 11 12 14 16 18 22 16 6 7 8 9 12 14 17 17 17 17 15 12 12 12 13 11
14 9 12 15 19 11 2 12 10 10 20 17 16 15 12 14 12 14 14 13 11 10 10 13 15 15 16 21 17 8 9 12 11 13 14 16 17 17 18 16 15 13 13 14
13 8 16 18 9 12 3 4 3 12 14 16 12 19 11 12 10 13 13 13 10 10 11 11 13 13 17 21 23 19 9 4 13 16 15 15 18 19 19 19 18 17 16 16
9 7 11 7 14 5 4 9 2 3 3 4 10 3 5 12 12 12 12 11 10 10 10 11 12 11 11 13 16 20 22 14 2 16 18 16 16 17 20 21 20 21 20 19
8 10 5 10 11 3 4 10 3 5 4 5 5 6 8 13 17 17 12 12 10 10 11 11 11 11 12 9 6 9 18 18 10 6 12 16 17 16 17 20 22 22 22 22
9 7 5 5 8 2 5 9 9 8 6 11 4 9 15 18 20 16 12 12 11 11 10 10 9 10 12 11 8 4 6 14 13 6 3 10 16 19 20 19 20 21 24 24
2 6 5 6 5 3 5 15 19 4 3 6 6 10 11 12 5 5 7 9 10 11 11 9 8 10 12 12 11 8 7 8 8 7 6 8 13 16 20 23 23 20 20 21
7 3 4 5 3 6 14 20 18 4 8 14 10 16 9 7 5 6 4 9 10 11 11 9 9 11 12 11 10 9 8 8 7 5 5 6 9 15 19 24 24 20 26 24
5 5 2 4 3 4 23 11 10 13 20 10 14 9 8 10 11 8 7 9 10 10 9 10 10 11 12 12 11 9 8 7 9 8 7 5 7 6 11 19 21 27 22 24
3 6 6 5 6 14 17 14 17 17 6 9 7 3 8 10 10 8 8 8 8 8 9 11 10 11 13 13 12 11 11 9 8 9 9 6 4 2 1 6 17 23 30 27
4 11 3 7 4 10 16 16 16 15 14 11 13 12 10 11 9 8 7 8 8 9 10 11 11 12 13 14 13 12 11 10 10 10 10 9 9 7 4 4 6 12 20 23
7 6 11 10 9 14 19 21 14 13 14 15 15 16 13 11 9 7 8 8 8 8 9 10 11 12 13 14 15 14 12 12 11 11 11 11 11 11 10 8 8 7 8 7
3 3 4 3 12 3 11 16 12 11 13 12 12 15 15 11 9 8 8 8 8 9 9 10 11 12 13 14 15 14 12 12 12 11 12 12 13 14 15 15 17 17 13 11

GFSCGP_850_spd_117.txt.gz
Wind_Speed
12 17 26 22 22 27 20 25 27 26 20 20 21 22 19 22 28 25 27 27 23 22 20 23 24 24 25 23 22 21 24 28 32 33 35 39 35 30 29 26 24 24 24 24
14 25 25 24 26 29 25 27 30 28 26 21 24 23 22 22 25 27 27 28 27 27 28 26 25 25 25 24 23 21 23 27 32 38 41 31 26 25 20 20 20 23 26 29
21 31 23 25 26 29 30 27 28 26 24 19 23 28 25 27 30 35 36 34 30 29 28 28 26 25 22 25 23 22 23 26 33 40 33 23 22 25 27 26 23 21 22 28
22 27 26 26 29 28 26 27 26 23 20 18 21 22 22 24 25 23 28 34 33 29 28 24 20 21 23 26 22 22 23 25 35 33 29 29 25 27 24 19 19 22 23 26
28 29 29 30 26 20 31 25 25 22 18 20 25 18 15 15 19 17 14 16 17 9 11 15 18 19 21 23 21 20 22 25 31 29 28 30 25 18 15 17 18 20 18 22
23 31 25 30 33 31 26 23 26 20 16 17 25 22 19 17 12 11 4 2 7 7 7 7 8 9 14 13 16 19 21 25 28 31 30 27 26 21 19 18 17 19 20 22
31 22 21 33 30 29 28 22 17 16 15 20 23 21 19 13 11 11 15 12 10 8 4 1 1 1 5 11 14 16 20 24 29 33 30 26 23 22 19 17 17 18 20 25
18 29 22 26 29 28 28 26 17 24 16 21 22 19 18 17 16 10 11 13 10 6 5 6 5 3 2 7 10 14 17 24 32 30 29 24 22 19 17 18 15 18 19 23
18 21 40 30 20 23 26 25 27 26 20 14 13 18 19 15 13 14 13 13 9 7 6 8 7 6 2 3 8 12 17 23 28 31 26 22 20 18 15 15 14 15 20 21
12 29 21 22 19 23 23 21 23 18 23 23 17 18 16 19 14 21 15 10 9 8 7 7 7 7 5 2 6 10 17 20 23 23 25 19 19 18 15 15 16 17 17 18
20 7 22 13 7 12 13 19 21 18 19 18 15 15 16 14 18 19 16 13 9 8 8 7 8 7 4 3 3 7 13 20 20 22 23 19 17 15 15 14 16 15 14 13
5 8 14 31 14 16 21 21 23 11 21 18 16 14 12 12 14 15 14 13 12 12 11 11 10 9 6 4 2 2 9 16 18 23 20 18 15 14 14 15 13 14 12 8
10 7 13 20 8 18 12 16 19 19 17 21 16 15 5 3 13 12 18 17 13 13 12 12 12 15 13 7 3 2 6 12 16 18 17 17 15 14 14 14 15 13 13 10
12 11 17 15 19 14 16 23 15 16 15 19 18 18 7 13 14 16 20 14 13 13 11 11 11 12 14 17 10 2 6 11 12 13 15 14 17 16 17 12 13 13 13 12
14 17 17 21 24 19 18 13 13 12 15 17 18 19 14 15 15 15 17 15 12 12 10 10 12 12 12 15 18 13 4 5 11 11 12 14 14 14 13 12 13 13 13 13
15 12 18 22 13 17 19 8 13 15 18 19 15 21 17 7 25 21 21 15 15 12 12 10 10 11 11 13 16 15 17 15 5 12 13 12 15 16 16 16 14 13 13 14
9 10 15 15 16 19 6 12 5 7 10 13 16 12 16 10 8 9 13 15 15 12 10 9 9 9 10 10 10 12 16 17 16 6 14 13 15 19 18 15 16 16 15 15
10 13 11 12 14 3 8 12 8 10 4 7 7 19 11 18 26 24 22 17 15 10 10 10 9 9 10 9 8 8 8 13 17 18 7 8 14 17 16 19 17 18 17 17
7 8 6 6 11 2 4 14 17 14 11 14 13 5 10 16 23 25 19 14 11 10 9 9 9 9 10 11 10 8 6 7 10 17 20 9 3 15 18 19 19 19 19 19
8 8 6 10 7 4 12 20 21 18 2 22 19 8 9 10 6 7 11 11 10 11 10 10 9 10 11 13 11 11 8 5 7 10 16 15 8 7 15 17 22 20 20 19
9 7 7 7 4 4 19 21 29 3 10 21 15 15 18 12 9 9 9 11 11 11 11 9 10 11 12 13 11 11 11 8 7 7 11 8 9 10 8 14 18 20 22 21
5 7 3 6 4 3 29 13 10 14 28 18 5 13 15 20 15 11 11 10 9 10 11 11 10 11 13 14 12 11 12 11 9 5 8 16 9 10 10 9 13 19 20 22
2 4 5 6 11 16 19 18 20 18 20 18 19 8 14 16 12 10 9 8 11 12 11 11 11 12 13 14 14 12 12 11 10 9 7 4 9 7 9 9 10 14 19 23
10 9 4 14 6 13 19 24 20 18 17 14 20 16 13 14 11 10 10 11 10 11 13 12 12 13 14 15 14 13 13 11 9 8 7 7 4 3 2 4 6 11 14 17
6 9 11 11 10 16 19 24 22 16 14 15 17 16 12 13 13 11 11 12 11 12 12 12 12 12 13 14 14 13 12 11 9 9 10 8 7 7 7 5 4 5 7 8
4 1 4 5 11 10 10 18 19 17 15 11 12 12 14 14 14 13 12 11 12 12 12 12 12 12 13 12 13 13 11 11 9 10 11 11 12 13 14 14 16 17 13 11

GFSCGP_850_spd_120.txt.gz
Wind_Speed
15 15 14 19 21 26 23 24 28 27 25 22 24 23 23 19 23 23 26 19 25 24 23 25 25 27 26 23 31 27 21 30 33 35 37 35 32 33 33 29 25 22 21 23
15 19 19 21 25 26 27 28 29 28 23 20 21 24 26 25 18 22 23 25 28 29 25 19 20 20 24 27 28 28 29 23 32 36 39 37 33 34 30 32 28 25 23 22
17 23 23 22 26 28 26 24 29 28 25 18 18 23 26 28 31 30 32 34 35 26 30 27 23 27 27 28 26 27 26 24 32 35 34 34 34 29 24 30 28 27 26 25
12 16 24 23 26 25 28 28 30 27 22 17 17 18 20 21 24 26 32 38 39 34 31 26 31 31 32 33 33 32 24 25 30 36 39 38 36 35 33 32 29 26 24 25
21 24 25 25 28 29 30 29 25 24 25 20 23 14 20 20 24 26 25 38 40 42 30 28 29 28 14 16 23 26 26 26 30 37 41 35 34 33 26 29 29 29 25 21
21 31 29 25 19 21 25 28 28 25 17 18 20 19 15 17 23 23 14 19 23 14 10 4 5 9 13 14 25 29 28 26 31 36 34 30 33 30 25 23 23 22 22 23
25 21 24 8 28 28 23 22 15 17 15 14 22 19 15 16 23 26 10 16 15 12 8 7 8 7 8 11 14 17 21 21 27 32 27 29 31 27 23 23 25 24 21 21
16 27 19 26 31 20 25 19 15 22 15 16 21 21 19 25 25 22 13 18 16 15 12 10 10 8 4 8 8 15 17 24 16 27 22 28 26 28 23 21 21 24 21 23
16 28 30 24 21 21 10 15 19 21 23 14 14 17 23 24 19 20 15 22 15 15 19 17 8 7 5 5 4 8 9 21 25 24 26 31 26 26 25 22 25 18 20 21
17 26 19 24 23 16 13 16 13 13 21 20 17 20 12 19 17 12 16 15 18 18 15 12 8 8 8 5 2 6 8 16 20 23 30 28 25 26 21 22 20 20 20 25
16 6 23 21 14 14 12 10 16 15 16 14 13 13 16 6 19 17 17 22 20 28 19 9 8 9 7 5 3 3 6 14 14 19 28 25 25 23 20 19 20 21 24 23
8 7 14 29 12 9 15 14 17 9 20 13 14 17 19 13 6 14 16 23 27 24 22 13 12 11 9 6 3 3 1 7 13 15 22 22 21 22 21 19 18 20 20 17
8 5 14 22 7 19 24 22 22 20 17 16 12 16 14 8 11 13 18 19 14 29 23 16 14 15 13 10 7 3 1 5 10 14 13 23 20 18 19 17 18 20 18 16
7 6 13 14 19 20 21 26 26 16 8 11 13 18 16 1 10 12 22 26 7 29 23 14 14 15 14 13 10 7 1 4 7 9 10 18 19 19 15 15 19 21 18 16
12 17 19 20 23 24 17 20 16 13 11 6 15 15 8 11 16 14 18 21 21 21 22 15 14 14 14 15 14 12 9 4 3 7 9 11 11 14 14 16 15 14 14 14
18 13 20 21 23 18 26 13 16 12 13 14 15 15 18 15 12 7 15 16 26 24 22 13 15 15 12 10 12 12 14 12 6 3 9 12 13 11 13 16 17 15 12 10
18 9 15 19 18 23 7 11 9 6 5 12 12 11 15 14 16 14 35 33 29 26 20 13 14 14 13 12 11 9 11 10 11 10 4 6 13 13 14 15 14 14 12 10
14 12 9 12 17 5 8 16 19 14 17 21 22 21 15 16 23 24 25 24 23 22 18 13 13 13 13 11 11 13 9 7 8 10 13 11 7 14 18 18 13 15 13 12
8 8 5 5 10 12 5 25 24 21 14 24 20 18 6 22 27 20 18 20 22 17 13 11 12 12 13 15 13 8 10 9 7 7 8 12 17 7 15 20 23 12 13 15
12 9 6 9 8 5 16 25 37 9 2 26 25 20 16 13 8 6 16 19 17 16 13 12 11 13 16 16 13 12 12 10 8 7 7 7 12 18 9 11 19 21 18 14
8 6 8 9 6 3 20 24 22 12 10 22 22 22 15 8 9 11 16 18 19 17 15 12 14 16 17 15 14 13 13 14 11 8 6 5 5 10 18 12 10 20 23 23
6 6 4 6 7 4 30 11 8 11 20 23 29 5 14 16 9 20 17 17 18 17 16 16 15 16 17 17 14 13 14 13 11 10 7 5 3 5 9 13 8 13 19 23
2 5 5 6 4 6 15 10 18 18 16 23 24 19 15 15 16 17 17 17 18 17 17 14 14 15 17 17 15 14 16 14 12 9 9 6 5 1 5 12 12 11 12 19
9 11 4 10 10 13 17 19 22 20 18 19 23 17 19 18 16 17 17 16 15 16 14 13 15 15 16 15 15 14 14 13 11 10 10 9 8 7 6 2 2 1 2 8
4 5 6 8 12 8 16 19 21 22 19 18 17 20 19 16 17 14 13 13 12 13 13 14 14 13 14 14 15 15 13 12 12 10 11 12 13 13 14 11 6 6 1 3
3 1 1 3 5 6 10 14 17 18 19 17 15 15 17 14 13 11 12 11 12 13 13 15 14 14 15 15 16 16 14 13 12 12 12 13 13 14 16 18 22 20 19 17